[[{"header":{"parameterUnit":"m.s-1","parameterCategory":1,"la1":31.0,"la2":29.5877,"lo1":-88.7671,"lo2":-86.6584,"dy":0.0162,"dx":0.0185,"nx":115,"ny":88,"refTime":"2023-03-02T06:00:00:Z","depth":0,"parameterNumber":2,"parameterNumberName":"U-component_of_WINDS"},"data":[0.0,0.0,0.0,0.0,0.0,0.0,0.0,0.0,0.0,0.0,0.0,0.0,0.0,0.0,0.0,0.0,0.0,0.0,0.0,0.0,0.0,0.0,0.0,0.0,0.0,0.0,0.0,0.0,0.0,0.0,0.0,0.0,0.0,0.0,0.0,0.0,0.0,0.0,0.0,0.0,0.0,0.0,0.0,0.0,0.0,0.0,0.0,0.0,0.0,0.0,0.0,0.0,0.0,0.0,0.0,0.0,0.0,0.0,0.0,0.0,0.0,0.0,0.0,0.0,0.0,0.0,0.0,0.0,0.0,0.0,0.0,0.0,0.0,0.0,0.0,0.0,0.0,0.0,0.0,0.0,0.0,0.0,0.0,0.0,0.0,0.0,0.0,0.0,0.0,0.0,0.0,0.0,0.0,0.0,0.0,0.0,0.0,0.0,0.0,0.0,0.0,0.0,0.0,0.0,0.0,0.0,0.0,0.0,0.0,0.0,0.0,0.0,0.0,0.0,0.0,0.0,0.0,0.0,0.0,0.0,0.0,0.0,0.0,0.0,0.0,0.0,0.0,0.0,0.0,0.0,0.0,0.0,0.0,0.0,0.0,0.0,0.0,0.0,0.0,0.0,0.0,0.0,0.0,0.0,0.0,0.0,0.0,0.0,0.0,0.0,0.0,0.0,0.0,0.0,0.0,0.0,0.0,0.0,0.0,0.0,0.0,0.0,0.0,0.0,0.0,0.0,0.0,0.0,0.0,0.0,0.0,0.0,0.0,0.0,0.0,0.0,0.0,0.0,0.0,0.0,0.0,0.0,0.0,0.0,0.0,0.0,0.0,0.0,0.0,0.0,0.0,0.0,0.0,0.0,0.0,0.0,0.0,0.0,0.0,0.0,0.0,0.0,0.0,0.0,0.0,0.0,0.0,0.0,0.0,0.0,0.0,0.0,0.0,0.0,0.0,0.0,0.0,0.0,0.0,0.0,0.0,0.0,0.0,0.0,0.0,0.0,0.0,0.0,0.0,0.0,0.0,0.0,0.0,0.0,0.0,0.0,0.0,0.0,0.0,0.0,0.0,0.0,0.0,0.0,0.0,0.0,0.0,0.0,0.0,0.0,0.0,0.0,0.0,0.0,0.0,0.0,0.0,0.0,0.0,0.0,0.0,0.0,0.0,0.0,0.0,0.0,0.0,0.0,0.0,0.0,0.0,0.0,0.0,0.0,0.0,0.0,0.0,0.0,0.0,0.0,0.0,0.0,0.0,0.0,0.0,0.0,0.0,0.0,0.0,0.0,0.0,0.0,0.0,0.0,0.0,0.0,0.0,0.0,0.0,0.0,0.0,0.0,0.0,0.0,0.0,0.0,0.0,0.0,0.0,0.0,0.0,0.0,0.0,0.0,0.0,0.0,0.0,0.0,0.0,0.0,0.0,0.0,0.0,0.0,0.0,0.0,0.0,0.0,0.0,0.0,0.0,0.0,0.0,0.0,0.0,0.0,0.0,0.0,0.0,0.0,0.0,0.0,0.0,0.0,0.0,0.0,0.0,0.0,0.0,0.0,0.0,0.0,0.0,0.0,0.0,0.0,0.0,0.0,0.0,0.0,0.0,0.0,0.0,0.0,0.0,0.0,0.0,0.0,0.0,0.0,0.0,0.0,0.0,0.0,0.0,0.0,0.0,0.0,0.0,0.0,0.0,0.0,0.0,0.0,0.0,0.0,0.0,0.0,0.0,0.0,0.0,0.0,0.0,0.0,0.0,0.0,0.0,0.0,0.0,0.0,0.0,0.0,0.0,0.0,0.0,0.0,0.0,0.0,0.0,0.0,0.0,0.0,0.0,0.0,0.0,0.0,0.0,0.0,0.0,0.0,0.0,0.0,0.0,0.0,0.0,0.0,0.0,0.0,0.0,0.0,0.0,0.0,0.0,0.0,0.0,0.0,0.0,0.0,0.0,0.0,0.0,0.0,0.0,0.0,0.0,0.0,0.0,0.0,0.0,0.0,0.0,0.0,0.0,0.0,0.0,0.0,0.0,0.0,0.0,0.0,0.0,0.0,0.0,0.0,0.0,0.0,0.0,0.0,0.0,0.0,0.0,0.0,0.0,0.0,0.0,0.0,0.0,0.0,0.0,0.0,0.0,0.0,0.0,0.0,0.0,0.0,0.0,0.0,0.0,0.0,0.0,0.0,0.0,0.0,0.0,0.0,0.0,0.0,0.0,0.0,0.0,0.0,0.0,0.0,0.0,0.0,0.0,0.0,0.0,0.0,0.0,0.0,0.0,0.0,0.0,0.0,0.0,0.0,0.0,0.0,0.0,0.0,0.0,0.0,0.0,0.0,0.0,0.0,0.0,0.0,0.0,0.0,0.0,0.0,0.0,0.0,0.0,0.0,0.0,0.0,0.0,0.0,0.0,0.0,0.0,0.0,0.0,0.0,0.0,0.0,0.0,0.0,0.0,0.0,0.0,0.0,0.0,0.0,0.0,0.0,0.0,0.0,0.0,0.0,0.0,0.0,0.0,0.0,0.0,0.0,0.0,0.0,0.0,0.0,0.0,0.0,0.0,0.0,0.0,0.0,0.0,0.0,0.0,0.0,0.0,0.0,0.0,0.0,0.0,0.0,0.0,0.0,0.0,0.0,0.0,0.0,0.0,0.0,0.0,0.0,0.0,0.0,0.0,0.0,0.0,0.0,0.0,0.0,0.0,0.0,0.0,0.0,0.0,0.0,0.0,0.0,0.0,0.0,0.0,0.0,0.0,0.0,0.0,0.0,0.0,0.0,0.0,0.0,0.0,0.0,0.0,0.0,0.0,0.0,0.0,0.0,0.0,0.0,0.0,0.0,0.0,0.0,0.0,0.0,0.0,0.0,0.0,0.0,0.0,0.0,0.0,0.0,0.0,0.0,0.0,0.0,0.0,0.0,0.0,0.0,0.0,0.0,0.0,0.0,0.0,0.0,0.0,0.0,0.0,0.0,0.0,0.0,0.0,0.0,0.0,0.0,0.0,0.0,0.0,0.0,0.0,0.0,0.0,0.0,0.0,0.0,0.0,0.0,0.0,0.0,0.0,0.0,0.0,0.0,0.0,0.0,0.0,0.0,0.0,0.0,0.0,0.0,0.0,0.0,0.0,0.0,0.0,0.0,0.0,0.0,0.0,0.0,0.0,0.0,0.0,0.0,0.0,0.0,0.0,0.0,0.0,0.0,0.0,0.0,0.0,0.0,0.0,0.0,0.0,0.0,0.0,0.0,0.0,0.0,0.0,0.0,0.0,0.0,0.0,0.0,0.0,0.0,0.0,0.0,0.0,0.0,0.0,0.0,0.0,0.0,0.0,0.0,0.0,0.0,0.0,0.0,0.0,0.0,0.0,0.0,0.0,0.0,0.0,0.0,0.0,0.0,0.0,0.0,0.0,0.0,0.0,0.0,0.0,0.0,0.0,0.0,0.0,0.0,0.0,0.0,0.0,0.0,0.0,0.0,0.0,0.0,0.0,0.0,0.0,0.0,0.0,0.0,0.0,0.0,0.0,0.0,0.0,0.0,0.0,0.0,0.0,0.0,0.0,0.0,0.0,0.0,0.0,0.0,0.0,0.0,0.0,0.0,0.0,0.0,0.0,0.0,0.0,0.0,0.0,0.0,0.0,0.0,0.0,0.0,0.0,0.0,0.0,0.0,0.0,0.0,0.0,0.0,0.0,0.0,0.0,0.0,0.0,0.0,0.0,0.0,0.0,0.0,0.0,0.0,0.0,0.0,0.0,0.0,0.0,0.0,0.0,0.0,0.0,0.0,0.0,0.0,0.0,0.0,0.0,0.0,0.0,0.0,0.0,0.0,0.0,0.0,0.0,0.0,0.0,0.0,0.0,0.0,0.0,0.0,0.0,0.0,0.0,0.0,0.0,0.0,0.0,0.0,0.0,0.0,0.0,0.0,0.0,0.0,0.0,0.0,0.0,0.0,0.0,0.0,0.0,0.0,0.0,0.0,0.0,0.0,0.0,0.0,0.0,0.0,0.0,0.0,0.0,0.0,0.0,0.0,0.0,0.0,0.0,0.0,0.0,0.0,0.0,0.0,0.0,0.0,0.0,0.0,0.0,0.0,0.0,0.0,0.0,0.0,0.0,0.0,0.0,0.0,0.0,0.0,0.0,0.0,0.0,0.0,0.0,0.0,0.0,0.0,0.0,0.0,0.0,0.0,0.0,0.0,0.0,0.0,0.0,0.0,0.0,0.0,0.0,0.0,0.0,0.0,0.0,0.0,0.0,0.0,0.0,0.0,0.0,0.0,-3.0522,0.0,0.0,0.0,0.0,0.0,0.0,0.0,0.0,0.0,0.0,0.0,0.0,0.0,0.0,0.0,0.0,0.0,0.0,0.0,0.0,0.0,0.0,0.0,0.0,0.0,0.0,0.0,0.0,0.0,0.0,0.0,0.0,0.0,0.0,0.0,0.0,0.0,0.0,0.0,0.0,0.0,0.0,0.0,0.0,0.0,0.0,0.0,0.0,0.0,0.0,0.0,0.0,0.0,0.0,0.0,0.0,0.0,0.0,0.0,0.0,0.0,0.0,0.0,0.0,0.0,0.0,0.0,0.0,0.0,0.0,0.0,0.0,0.0,0.0,0.0,0.0,0.0,0.0,0.0,0.0,0.0,0.0,0.0,0.0,0.0,0.0,0.0,0.0,0.0,0.0,0.0,0.0,0.0,0.0,0.0,0.0,0.0,0.0,0.0,0.0,0.0,0.0,0.0,0.0,0.0,0.0,0.0,0.0,0.0,0.0,-3.0251,-3.0658,-2.9813,-2.9774,-3.0655,0.0,0.0,0.0,0.0,0.0,0.0,0.0,0.0,0.0,0.0,0.0,0.0,0.0,0.0,0.0,0.0,0.0,0.0,0.0,0.0,0.0,0.0,0.0,0.0,0.0,0.0,0.0,0.0,0.0,0.0,0.0,0.0,0.0,0.0,0.0,0.0,0.0,0.0,0.0,0.0,0.0,0.0,0.0,0.0,0.0,0.0,0.0,0.0,0.0,0.0,0.0,0.0,0.0,0.0,0.0,0.0,0.0,0.0,0.0,0.0,0.0,0.0,0.0,0.0,0.0,0.0,0.0,0.0,0.0,0.0,0.0,0.0,0.0,0.0,0.0,0.0,0.0,0.0,0.0,0.0,0.0,0.0,0.0,0.0,0.0,0.0,0.0,0.0,0.0,0.0,0.0,0.0,0.0,0.0,0.0,0.0,0.0,0.0,0.0,0.0,0.0,0.0,0.0,0.0,0.0,0.0,0.0,0.0,0.0,0.0,0.0,0.0,-2.9469,-2.9279,-3.037,0.0,0.0,0.0,0.0,0.0,0.0,0.0,0.0,0.0,0.0,0.0,0.0,0.0,0.0,0.0,0.0,0.0,0.0,0.0,0.0,0.0,0.0,0.0,0.0,0.0,0.0,0.0,0.0,0.0,0.0,0.0,0.0,0.0,0.0,0.0,0.0,0.0,0.0,0.0,0.0,0.0,0.0,0.0,0.0,0.0,0.0,0.0,0.0,0.0,0.0,0.0,0.0,0.0,0.0,0.0,0.0,0.0,0.0,0.0,0.0,0.0,0.0,0.0,0.0,0.0,0.0,0.0,0.0,0.0,0.0,0.0,0.0,0.0,0.0,0.0,0.0,0.0,0.0,0.0,0.0,0.0,0.0,0.0,0.0,0.0,0.0,0.0,0.0,0.0,0.0,0.0,0.0,0.0,0.0,0.0,0.0,0.0,0.0,0.0,0.0,0.0,0.0,0.0,0.0,0.0,0.0,0.0,0.0,0.0,0.0,-3.0725,-3.0781,-3.0631,0.0,-2.9671,0.0,0.0,0.0,0.0,0.0,0.0,0.0,0.0,0.0,0.0,0.0,0.0,0.0,0.0,0.0,0.0,0.0,0.0,0.0,0.0,0.0,0.0,0.0,0.0,0.0,0.0,0.0,0.0,0.0,0.0,0.0,0.0,0.0,0.0,0.0,0.0,0.0,0.0,0.0,0.0,0.0,0.0,0.0,0.0,0.0,0.0,0.0,0.0,0.0,0.0,0.0,0.0,0.0,0.0,0.0,0.0,0.0,0.0,0.0,0.0,0.0,0.0,0.0,0.0,0.0,0.0,0.0,0.0,0.0,0.0,0.0,0.0,0.0,0.0,0.0,0.0,0.0,0.0,0.0,0.0,0.0,0.0,0.0,0.0,0.0,0.0,0.0,0.0,0.0,0.0,0.0,0.0,0.0,0.0,0.0,0.0,0.0,0.0,0.0,0.0,0.0,0.0,0.0,0.0,0.0,0.0,0.0,0.0,0.0,0.0,-3.0269,-3.079,-3.0759,-3.0343,0.0,0.0,0.0,0.0,0.0,0.0,0.0,0.0,0.0,0.0,0.0,0.0,0.0,0.0,0.0,0.0,0.0,0.0,0.0,0.0,0.0,0.0,0.0,0.0,0.0,0.0,0.0,0.0,0.0,0.0,0.0,0.0,0.0,0.0,0.0,0.0,0.0,0.0,0.0,0.0,0.0,0.0,0.0,0.0,0.0,0.0,0.0,0.0,0.0,0.0,0.0,0.0,0.0,0.0,0.0,0.0,0.0,0.0,0.0,0.0,0.0,0.0,0.0,0.0,0.0,0.0,0.0,0.0,0.0,0.0,0.0,0.0,0.0,0.0,0.0,0.0,0.0,0.0,0.0,0.0,0.0,0.0,0.0,0.0,0.0,0.0,0.0,0.0,0.0,0.0,0.0,0.0,0.0,0.0,0.0,0.0,0.0,0.0,0.0,0.0,0.0,0.0,0.0,0.0,0.0,0.0,0.0,0.0,0.0,0.0,-2.9967,-2.9815,-3.0393,-3.0614,-3.0232,-2.9193,0.0,0.0,0.0,0.0,0.0,0.0,0.0,0.0,0.0,0.0,0.0,0.0,0.0,0.0,0.0,0.0,0.0,0.0,0.0,0.0,0.0,0.0,0.0,0.0,0.0,0.0,0.0,0.0,0.0,0.0,0.0,0.0,0.0,0.0,0.0,0.0,0.0,0.0,0.0,0.0,0.0,0.0,0.0,0.0,0.0,0.0,0.0,0.0,0.0,0.0,0.0,0.0,0.0,0.0,0.0,0.0,0.0,0.0,0.0,0.0,0.0,0.0,0.0,0.0,0.0,0.0,0.0,0.0,0.0,0.0,0.0,0.0,0.0,0.0,0.0,0.0,0.0,0.0,0.0,0.0,0.0,0.0,0.0,0.0,0.0,0.0,0.0,0.0,0.0,0.0,0.0,0.0,0.0,0.0,0.0,0.0,0.0,0.0,0.0,0.0,0.0,0.0,0.0,0.0,0.0,0.0,0.0,0.0,-3.0711,-2.9973,-2.9586,-2.9589,-3.0351,-2.9996,0.0,0.0,0.0,0.0,0.0,0.0,0.0,0.0,0.0,0.0,0.0,0.0,0.0,0.0,0.0,0.0,0.0,0.0,0.0,0.0,0.0,0.0,0.0,0.0,0.0,0.0,0.0,0.0,0.0,0.0,0.0,0.0,0.0,0.0,0.0,0.0,0.0,0.0,0.0,0.0,0.0,0.0,0.0,0.0,0.0,0.0,0.0,0.0,0.0,0.0,0.0,0.0,0.0,0.0,0.0,0.0,0.0,0.0,0.0,0.0,0.0,0.0,0.0,0.0,0.0,0.0,0.0,0.0,0.0,0.0,0.0,0.0,0.0,0.0,0.0,0.0,0.0,0.0,0.0,0.0,0.0,0.0,0.0,0.0,0.0,0.0,0.0,0.0,0.0,0.0,0.0,0.0,0.0,0.0,0.0,0.0,0.0,0.0,0.0,0.0,0.0,0.0,0.0,0.0,0.0,0.0,0.0,0.0,0.0,-2.914,-2.8926,-2.9023,-2.9531,-2.9295,-2.8861,0.0,0.0,0.0,0.0,0.0,0.0,0.0,0.0,0.0,0.0,0.0,0.0,0.0,0.0,0.0,0.0,0.0,0.0,0.0,0.0,0.0,0.0,0.0,0.0,0.0,0.0,0.0,0.0,0.0,0.0,0.0,0.0,0.0,0.0,0.0,0.0,0.0,0.0,0.0,0.0,0.0,0.0,0.0,0.0,0.0,0.0,0.0,0.0,0.0,0.0,0.0,0.0,0.0,0.0,0.0,0.0,0.0,0.0,0.0,0.0,0.0,0.0,0.0,0.0,0.0,0.0,0.0,0.0,0.0,0.0,0.0,0.0,0.0,0.0,0.0,0.0,0.0,0.0,0.0,0.0,0.0,0.0,0.0,0.0,0.0,0.0,0.0,0.0,0.0,0.0,0.0,0.0,0.0,0.0,0.0,0.0,0.0,0.0,0.0,0.0,0.0,0.0,0.0,0.0,0.0,0.0,0.0,0.0,0.0,-2.787,0.0,-2.8454,-2.8709,-2.8417,-2.812,0.0,0.0,0.0,0.0,0.0,0.0,0.0,0.0,0.0,0.0,0.0,0.0,0.0,0.0,0.0,0.0,0.0,0.0,0.0,0.0,0.0,0.0,0.0,0.0,0.0,0.0,0.0,0.0,0.0,0.0,0.0,0.0,0.0,0.0,0.0,0.0,0.0,0.0,0.0,0.0,0.0,0.0,0.0,0.0,0.0,0.0,0.0,0.0,0.0,0.0,0.0,0.0,0.0,0.0,0.0,0.0,0.0,0.0,0.0,0.0,0.0,0.0,0.0,0.0,0.0,0.0,0.0,0.0,0.0,0.0,0.0,0.0,0.0,0.0,0.0,0.0,0.0,0.0,0.0,0.0,0.0,0.0,0.0,0.0,0.0,0.0,0.0,0.0,0.0,0.0,0.0,0.0,0.0,0.0,0.0,0.0,0.0,0.0,0.0,0.0,0.0,0.0,0.0,0.0,0.0,0.0,0.0,0.0,-2.6992,-2.7008,-2.7806,-2.7846,-2.7088,-2.7811,-2.7871,0.0,0.0,0.0,0.0,0.0,0.0,0.0,0.0,0.0,0.0,0.0,0.0,0.0,0.0,0.0,0.0,0.0,0.0,0.0,0.0,0.0,0.0,0.0,0.0,0.0,0.0,0.0,0.0,0.0,0.0,0.0,0.0,0.0,0.0,0.0,0.0,0.0,0.0,0.0,0.0,0.0,0.0,0.0,0.0,0.0,0.0,0.0,0.0,0.0,0.0,0.0,0.0,0.0,0.0,0.0,0.0,0.0,0.0,0.0,0.0,0.0,0.0,0.0,0.0,0.0,0.0,0.0,0.0,0.0,0.0,0.0,0.0,0.0,0.0,0.0,0.0,0.0,0.0,0.0,0.0,0.0,0.0,0.0,0.0,0.0,0.0,0.0,0.0,0.0,0.0,0.0,0.0,0.0,0.0,0.0,0.0,0.0,0.0,0.0,0.0,0.0,0.0,0.0,0.0,0.0,0.0,0.0,0.0,0.0,-2.6112,-2.6364,-2.6926,-2.7737,-2.6951,-2.7207,0.0,0.0,0.0,0.0,0.0,0.0,0.0,0.0,0.0,0.0,0.0,0.0,0.0,0.0,0.0,0.0,0.0,0.0,0.0,0.0,0.0,0.0,0.0,0.0,0.0,0.0,0.0,0.0,0.0,0.0,0.0,0.0,0.0,0.0,0.0,0.0,0.0,0.0,0.0,0.0,0.0,0.0,0.0,0.0,0.0,0.0,0.0,0.0,0.0,0.0,0.0,0.0,0.0,0.0,0.0,0.0,0.0,0.0,0.0,0.0,0.0,0.0,0.0,0.0,0.0,0.0,0.0,0.0,0.0,0.0,0.0,0.0,0.0,0.0,0.0,0.0,0.0,0.0,0.0,0.0,0.0,0.0,0.0,0.0,0.0,0.0,0.0,0.0,0.0,0.0,0.0,0.0,0.0,0.0,0.0,0.0,0.0,0.0,0.0,0.0,0.0,0.0,0.0,0.0,0.0,0.0,0.0,0.0,0.0,-2.707,-2.6503,-2.6848,-2.8203,-2.6893,-2.6777,-2.7988,0.0,0.0,0.0,0.0,0.0,0.0,0.0,0.0,0.0,0.0,0.0,0.0,0.0,0.0,0.0,0.0,0.0,0.0,0.0,0.0,0.0,0.0,0.0,0.0,0.0,0.0,0.0,0.0,0.0,0.0,0.0,0.0,0.0,0.0,0.0,0.0,0.0,0.0,0.0,0.0,0.0,0.0,0.0,0.0,0.0,0.0,0.0,0.0,0.0,0.0,0.0,0.0,0.0,0.0,0.0,0.0,0.0,0.0,0.0,0.0,0.0,0.0,0.0,0.0,0.0,0.0,0.0,0.0,0.0,0.0,0.0,0.0,0.0,0.0,0.0,0.0,0.0,0.0,0.0,0.0,0.0,0.0,0.0,0.0,0.0,0.0,0.0,0.0,0.0,0.0,0.0,0.0,0.0,0.0,0.0,0.0,0.0,0.0,0.0,0.0,0.0,0.0,0.0,0.0,0.0,0.0,0.0,0.0,-2.9567,-2.8086,-2.773,-2.8505,-2.7596,-2.6738,0.0,0.0,0.0,0.0,0.0,0.0,0.0,0.0,0.0,0.0,0.0,0.0,0.0,0.0,0.0,0.0,0.0,0.0,0.0,0.0,0.0,0.0,0.0,0.0,0.0,0.0,0.0,0.0,0.0,0.0,0.0,0.0,0.0,0.0,0.0,0.0,0.0,0.0,0.0,0.0,0.0,0.0,0.0,0.0,0.0,0.0,0.0,0.0,0.0,0.0,0.0,0.0,0.0,0.0,0.0,0.0,0.0,0.0,0.0,0.0,0.0,0.0,0.0,0.0,0.0,0.0,0.0,0.0,0.0,0.0,0.0,0.0,0.0,0.0,0.0,0.0,0.0,0.0,0.0,0.0,0.0,0.0,0.0,0.0,0.0,0.0,0.0,0.0,0.0,0.0,0.0,0.0,0.0,0.0,0.0,0.0,0.0,0.0,0.0,0.0,0.0,0.0,0.0,0.0,0.0,0.0,0.0,0.0,0.0,-3.0401,-3.0702,-3.0932,-3.104,-2.9069,-2.845,0.0,0.0,0.0,0.0,0.0,0.0,0.0,0.0,0.0,0.0,0.0,0.0,0.0,0.0,0.0,0.0,0.0,0.0,0.0,0.0,0.0,0.0,0.0,0.0,0.0,0.0,0.0,0.0,0.0,0.0,0.0,0.0,0.0,0.0,0.0,0.0,0.0,0.0,0.0,0.0,0.0,0.0,0.0,0.0,0.0,0.0,0.0,0.0,0.0,0.0,0.0,0.0,0.0,0.0,0.0,0.0,0.0,0.0,0.0,0.0,0.0,0.0,0.0,0.0,0.0,0.0,0.0,0.0,0.0,0.0,0.0,0.0,0.0,0.0,0.0,0.0,0.0,0.0,0.0,0.0,0.0,0.0,0.0,0.0,0.0,0.0,0.0,0.0,0.0,0.0,0.0,0.0,0.0,0.0,0.0,0.0,0.0,0.0,0.0,0.0,0.0,0.0,0.0,0.0,0.0,0.0,0.0,0.0,-3.0015,-3.1342,-3.2597,-3.3413,-3.3686,-3.1226,-2.9808,0.0,0.0,0.0,0.0,0.0,0.0,0.0,0.0,0.0,0.0,0.0,0.0,0.0,0.0,0.0,0.0,0.0,0.0,0.0,0.0,0.0,0.0,0.0,0.0,0.0,0.0,0.0,0.0,0.0,0.0,0.0,0.0,0.0,0.0,0.0,0.0,0.0,0.0,0.0,0.0,0.0,0.0,0.0,0.0,0.0,0.0,0.0,0.0,0.0,0.0,0.0,0.0,0.0,0.0,0.0,0.0,0.0,0.0,0.0,0.0,0.0,0.0,0.0,0.0,0.0,0.0,0.0,0.0,0.0,0.0,0.0,0.0,0.0,0.0,0.0,0.0,0.0,0.0,0.0,0.0,0.0,0.0,0.0,0.0,0.0,0.0,0.0,0.0,0.0,0.0,0.0,0.0,0.0,0.0,0.0,0.0,0.0,0.0,0.0,0.0,0.0,0.0,0.0,0.0,0.0,0.0,0.0,0.0,-3.1308,-3.2089,-3.3887,-3.5133,-3.5671,-3.3292,-3.0914,0.0,0.0,0.0,0.0,0.0,0.0,0.0,0.0,0.0,0.0,0.0,0.0,0.0,0.0,0.0,0.0,0.0,0.0,0.0,0.0,0.0,0.0,0.0,0.0,0.0,0.0,0.0,0.0,0.0,0.0,0.0,0.0,0.0,0.0,0.0,0.0,0.0,0.0,0.0,0.0,0.0,0.0,0.0,0.0,0.0,0.0,0.0,0.0,0.0,0.0,0.0,0.0,0.0,0.0,0.0,0.0,0.0,0.0,0.0,0.0,0.0,0.0,0.0,0.0,0.0,0.0,0.0,0.0,0.0,0.0,0.0,0.0,0.0,0.0,0.0,0.0,0.0,0.0,0.0,0.0,0.0,0.0,0.0,0.0,0.0,0.0,0.0,0.0,0.0,0.0,0.0,0.0,0.0,0.0,0.0,0.0,0.0,0.0,0.0,0.0,0.0,0.0,0.0,0.0,0.0,0.0,0.0,0.0,-3.1289,-3.2127,-3.4472,-3.5468,-3.4973,-3.2445,-3.1144,0.0,0.0,0.0,0.0,0.0,0.0,0.0,0.0,0.0,0.0,0.0,0.0,0.0,0.0,0.0,0.0,0.0,0.0,0.0,0.0,0.0,0.0,0.0,0.0,0.0,0.0,0.0,0.0,0.0,0.0,0.0,0.0,0.0,0.0,0.0,0.0,0.0,0.0,0.0,0.0,0.0,0.0,0.0,0.0,0.0,0.0,0.0,0.0,-2.7811,0.0,0.0,0.0,0.0,0.0,0.0,0.0,0.0,0.0,0.0,0.0,0.0,0.0,0.0,0.0,0.0,0.0,0.0,0.0,0.0,0.0,0.0,0.0,0.0,0.0,0.0,0.0,0.0,0.0,0.0,0.0,0.0,0.0,0.0,0.0,0.0,0.0,0.0,0.0,0.0,0.0,0.0,0.0,0.0,0.0,0.0,0.0,0.0,0.0,0.0,0.0,0.0,0.0,0.0,0.0,0.0,0.0,0.0,0.0,-3.168,-3.2129,-3.4258,-3.5371,-3.523,-3.2787,-3.1628,0.0,0.0,0.0,0.0,0.0,0.0,0.0,0.0,0.0,0.0,0.0,0.0,0.0,0.0,0.0,0.0,0.0,0.0,0.0,0.0,0.0,0.0,0.0,0.0,0.0,0.0,0.0,0.0,0.0,0.0,0.0,0.0,0.0,0.0,0.0,0.0,0.0,0.0,0.0,0.0,0.0,0.0,0.0,0.0,0.0,0.0,0.0,0.0,0.0,0.0,0.0,0.0,0.0,0.0,0.0,0.0,0.0,0.0,0.0,0.0,0.0,0.0,0.0,0.0,0.0,0.0,0.0,0.0,0.0,0.0,0.0,0.0,0.0,0.0,0.0,0.0,0.0,0.0,0.0,0.0,0.0,0.0,0.0,0.0,0.0,0.0,0.0,0.0,0.0,0.0,0.0,0.0,0.0,0.0,0.0,0.0,0.0,0.0,0.0,0.0,0.0,0.0,0.0,0.0,0.0,0.0,0.0,-3.0445,-3.2127,-3.2537,-3.4062,-3.5176,-3.574,-3.3417,-3.2108,-3.2081,0.0,0.0,0.0,0.0,0.0,0.0,0.0,0.0,0.0,0.0,0.0,0.0,0.0,0.0,0.0,0.0,0.0,0.0,0.0,0.0,0.0,0.0,0.0,0.0,0.0,0.0,0.0,0.0,0.0,0.0,0.0,0.0,0.0,0.0,0.0,0.0,0.0,0.0,-2.8769,-2.9284,0.0,0.0,0.0,0.0,0.0,0.0,0.0,0.0,-2.7928,0.0,0.0,0.0,0.0,0.0,0.0,0.0,0.0,0.0,0.0,0.0,0.0,0.0,0.0,0.0,0.0,0.0,0.0,0.0,0.0,0.0,0.0,0.0,0.0,0.0,0.0,0.0,0.0,0.0,0.0,0.0,0.0,0.0,0.0,0.0,0.0,0.0,0.0,0.0,0.0,0.0,0.0,0.0,0.0,0.0,0.0,0.0,0.0,0.0,0.0,0.0,0.0,0.0,0.0,0.0,0.0,-3.0211,-3.0819,-3.2129,-3.4219,-3.5273,-3.5506,-3.49,-3.3086,-3.2107,-3.2007,0.0,0.0,0.0,0.0,0.0,0.0,0.0,0.0,0.0,0.0,0.0,0.0,0.0,0.0,0.0,0.0,0.0,0.0,0.0,0.0,0.0,0.0,0.0,0.0,0.0,0.0,0.0,0.0,0.0,0.0,0.0,0.0,0.0,0.0,0.0,0.0,0.0,0.0,0.0,-3.0512,-3.0375,0.0,0.0,0.0,0.0,0.0,0.0,0.0,0.0,-2.9043,0.0,0.0,0.0,0.0,0.0,0.0,0.0,0.0,0.0,0.0,0.0,0.0,0.0,0.0,0.0,0.0,0.0,0.0,0.0,0.0,0.0,0.0,0.0,0.0,0.0,0.0,0.0,0.0,0.0,0.0,0.0,0.0,0.0,0.0,0.0,0.0,0.0,0.0,0.0,0.0,0.0,0.0,0.0,0.0,0.0,0.0,0.0,0.0,0.0,0.0,0.0,0.0,0.0,0.0,0.0,-3.0176,-3.1523,-3.3007,-3.4648,-3.5546,-3.5584,-3.4685,-3.3008,-3.2107,0.0,0.0,0.0,0.0,0.0,0.0,0.0,0.0,0.0,0.0,0.0,0.0,0.0,0.0,0.0,0.0,0.0,0.0,0.0,0.0,0.0,0.0,0.0,0.0,0.0,0.0,0.0,0.0,0.0,0.0,0.0,0.0,0.0,0.0,0.0,0.0,0.0,0.0,0.0,0.0,-3.0783,-3.0659,-3.0218,0.0,0.0,0.0,0.0,0.0,0.0,-2.9081,-2.8867,0.0,0.0,0.0,0.0,0.0,0.0,0.0,0.0,0.0,0.0,0.0,0.0,0.0,0.0,0.0,0.0,0.0,0.0,0.0,0.0,0.0,0.0,0.0,0.0,0.0,0.0,0.0,0.0,0.0,0.0,0.0,0.0,0.0,0.0,0.0,0.0,0.0,0.0,0.0,0.0,0.0,0.0,0.0,0.0,0.0,0.0,0.0,0.0,0.0,0.0,0.0,0.0,0.0,0.0,0.0,-3.0136,-3.2109,-3.373,-3.4922,-3.5624,-3.5584,-3.4706,-3.2831,-3.1906,0.0,0.0,0.0,0.0,0.0,0.0,0.0,0.0,0.0,0.0,0.0,0.0,0.0,0.0,0.0,0.0,0.0,0.0,0.0,0.0,0.0,0.0,0.0,0.0,0.0,0.0,0.0,0.0,0.0,0.0,0.0,0.0,0.0,0.0,0.0,0.0,0.0,0.0,0.0,0.0,0.0,-3.0795,-3.0793,-3.0208,0.0,0.0,0.0,0.0,-2.9866,-2.9881,0.0,0.0,0.0,0.0,0.0,0.0,0.0,0.0,0.0,0.0,0.0,0.0,0.0,0.0,0.0,0.0,0.0,0.0,0.0,0.0,0.0,0.0,0.0,0.0,0.0,0.0,0.0,0.0,0.0,0.0,0.0,0.0,0.0,0.0,0.0,0.0,0.0,0.0,0.0,0.0,0.0,0.0,0.0,0.0,0.0,0.0,0.0,0.0,0.0,0.0,0.0,0.0,0.0,0.0,0.0,0.0,-3.1677,-3.2088,-3.3418,-3.5703,-3.5956,-3.5584,-3.4686,-3.2214,-3.1237,0.0,0.0,0.0,0.0,0.0,0.0,0.0,0.0,0.0,0.0,0.0,0.0,0.0,0.0,0.0,0.0,0.0,0.0,0.0,0.0,0.0,0.0,0.0,0.0,0.0,0.0,0.0,0.0,0.0,0.0,0.0,0.0,0.0,0.0,0.0,0.0,0.0,0.0,0.0,0.0,0.0,-3.0793,-3.0798,-3.0717,-3.0351,0.0,0.0,0.0,-3.1784,-3.3652,0.0,0.0,0.0,0.0,0.0,0.0,0.0,0.0,0.0,0.0,0.0,0.0,0.0,0.0,0.0,0.0,0.0,0.0,0.0,0.0,0.0,0.0,0.0,0.0,0.0,0.0,0.0,0.0,0.0,0.0,0.0,0.0,0.0,0.0,0.0,0.0,0.0,0.0,0.0,0.0,0.0,0.0,0.0,0.0,0.0,0.0,0.0,0.0,0.0,0.0,0.0,0.0,0.0,0.0,0.0,-2.9687,-3.2022,-3.2594,-3.3866,-3.5898,-3.6015,-3.5586,-3.4726,-3.2108,-3.1145,0.0,0.0,0.0,0.0,0.0,0.0,0.0,0.0,0.0,0.0,0.0,0.0,0.0,0.0,0.0,0.0,0.0,0.0,0.0,0.0,0.0,0.0,0.0,0.0,0.0,0.0,0.0,0.0,0.0,0.0,0.0,0.0,0.0,0.0,0.0,0.0,0.0,0.0,0.0,0.0,0.0,0.0,-3.0859,-3.083,0.0,0.0,0.0,-3.2617,-3.212,0.0,0.0,0.0,0.0,0.0,0.0,0.0,0.0,0.0,0.0,0.0,0.0,0.0,0.0,0.0,0.0,0.0,0.0,0.0,0.0,0.0,0.0,0.0,0.0,0.0,0.0,0.0,0.0,0.0,0.0,0.0,0.0,0.0,0.0,0.0,0.0,0.0,0.0,0.0,0.0,0.0,0.0,0.0,0.0,0.0,0.0,0.0,0.0,0.0,0.0,0.0,0.0,0.0,0.0,0.0,0.0,0.0,-3.2407,-3.3062,-3.4238,-3.5918,-3.6016,-3.5586,-3.4687,-3.2323,0.0,0.0,0.0,0.0,0.0,0.0,0.0,0.0,0.0,0.0,0.0,0.0,0.0,0.0,0.0,0.0,0.0,0.0,0.0,0.0,0.0,0.0,0.0,0.0,0.0,0.0,0.0,-2.8069,0.0,0.0,0.0,0.0,0.0,0.0,0.0,0.0,0.0,0.0,0.0,0.0,0.0,0.0,-3.0892,-3.0878,-3.0836,-3.0858,0.0,0.0,-3.3005,-3.2151,-3.2986,-3.3026,0.0,0.0,0.0,0.0,0.0,0.0,0.0,0.0,0.0,0.0,0.0,0.0,0.0,0.0,0.0,0.0,0.0,0.0,0.0,0.0,0.0,0.0,0.0,0.0,0.0,0.0,0.0,0.0,0.0,0.0,0.0,0.0,0.0,0.0,0.0,0.0,0.0,0.0,0.0,0.0,0.0,0.0,0.0,0.0,0.0,0.0,0.0,0.0,0.0,0.0,0.0,0.0,0.0,0.0,0.0,-3.3206,-3.3374,-3.4257,-3.5937,-3.6016,-3.5586,-3.4687,-3.294,-3.2002,0.0,0.0,0.0,0.0,0.0,0.0,0.0,0.0,0.0,0.0,0.0,0.0,0.0,0.0,0.0,0.0,0.0,0.0,0.0,0.0,0.0,0.0,0.0,0.0,0.0,0.0,0.0,0.0,0.0,0.0,0.0,0.0,0.0,0.0,0.0,0.0,0.0,0.0,0.0,0.0,0.0,-3.08,-3.0799,-3.079,-3.11,0.0,0.0,-3.3016,-3.2224,-3.5484,-3.6477,-3.1589,0.0,0.0,0.0,0.0,0.0,0.0,0.0,0.0,0.0,0.0,0.0,0.0,0.0,0.0,0.0,0.0,0.0,0.0,0.0,0.0,0.0,0.0,0.0,0.0,0.0,0.0,0.0,0.0,0.0,0.0,0.0,0.0,0.0,0.0,0.0,0.0,0.0,0.0,0.0,0.0,0.0,0.0,0.0,0.0,0.0,0.0,0.0,0.0,0.0,0.0,0.0,0.0,0.0,-3.1386,-3.3351,-3.3395,-3.4238,-3.5918,-3.6016,-3.5586,-3.4726,-3.3019,-3.2083,0.0,0.0,0.0,0.0,0.0,0.0,0.0,0.0,0.0,0.0,0.0,0.0,0.0,0.0,0.0,0.0,0.0,0.0,0.0,0.0,0.0,0.0,0.0,0.0,0.0,0.0,0.0,0.0,-3.0885,-3.0756,-3.0771,0.0,0.0,0.0,0.0,0.0,0.0,0.0,0.0,0.0,0.0,-3.1601,-3.16,-3.2031,0.0,0.0,-3.3689,-3.4429,-3.3053,-3.4707,-3.5137,-3.1974,-3.1907,0.0,0.0,0.0,0.0,0.0,0.0,0.0,0.0,0.0,0.0,0.0,0.0,0.0,0.0,0.0,0.0,0.0,0.0,0.0,0.0,0.0,0.0,0.0,0.0,0.0,0.0,0.0,0.0,0.0,0.0,0.0,0.0,0.0,0.0,0.0,0.0,0.0,0.0,0.0,0.0,0.0,0.0,0.0,0.0,0.0,0.0,0.0,0.0,0.0,0.0,0.0,0.0,-3.1855,-3.3767,-3.3534,-3.4238,-3.5957,-3.6016,-3.5449,-3.4336,-3.3141,-3.2251,0.0,0.0,0.0,0.0,0.0,0.0,0.0,0.0,0.0,0.0,0.0,0.0,0.0,0.0,0.0,0.0,0.0,0.0,0.0,0.0,0.0,0.0,0.0,0.0,0.0,0.0,0.0,0.0,-3.1009,-3.0799,-3.0793,0.0,0.0,0.0,0.0,0.0,0.0,0.0,0.0,0.0,0.0,-3.248,-3.2461,-3.2948,-3.3178,-3.2862,-3.4324,-3.5059,-3.3848,-3.4413,-3.4353,-3.2594,0.0,0.0,0.0,0.0,0.0,0.0,0.0,0.0,0.0,0.0,0.0,0.0,0.0,0.0,0.0,0.0,0.0,0.0,0.0,0.0,0.0,0.0,0.0,0.0,0.0,0.0,0.0,0.0,0.0,0.0,0.0,0.0,0.0,0.0,0.0,0.0,0.0,0.0,0.0,0.0,0.0,0.0,0.0,0.0,0.0,0.0,0.0,0.0,0.0,0.0,0.0,0.0,0.0,0.0,-3.4589,-3.3828,-3.4238,-3.5937,-3.6016,-3.5176,-3.3535,-3.3379,-3.2576,-3.0919,0.0,0.0,0.0,0.0,0.0,0.0,0.0,0.0,0.0,0.0,0.0,0.0,0.0,0.0,0.0,0.0,0.0,0.0,0.0,0.0,0.0,0.0,0.0,0.0,0.0,0.0,-2.9844,-3.0312,-3.0818,0.0,0.0,0.0,0.0,0.0,0.0,0.0,0.0,0.0,0.0,-3.2789,-3.334,-3.329,-3.3311,-3.3623,-3.4296,-3.4495,-3.4519,-3.4457,-3.5076,-3.5054,0.0,0.0,0.0,0.0,0.0,0.0,0.0,0.0,0.0,0.0,0.0,0.0,0.0,0.0,0.0,0.0,0.0,0.0,0.0,0.0,0.0,0.0,0.0,0.0,0.0,0.0,0.0,-2.8259,-2.8299,0.0,0.0,0.0,0.0,0.0,0.0,0.0,0.0,0.0,0.0,0.0,-3.1172,-3.1757,0.0,0.0,0.0,0.0,0.0,0.0,0.0,0.0,0.0,0.0,0.0,0.0,-3.2105,-3.4531,-3.3848,-3.4238,-3.5937,-3.6016,-3.5449,-3.4297,-3.3691,-3.2851,-3.1711,0.0,0.0,0.0,0.0,0.0,0.0,0.0,0.0,0.0,0.0,0.0,0.0,0.0,0.0,0.0,0.0,0.0,0.0,0.0,0.0,0.0,0.0,0.0,0.0,0.0,-3.1789,0.0,0.0,0.0,0.0,0.0,0.0,0.0,0.0,0.0,0.0,0.0,-3.2399,-3.3573,-3.3438,-3.3436,-3.4001,-3.4567,-3.4811,0.0,0.0,0.0,0.0,0.0,0.0,0.0,0.0,0.0,0.0,0.0,0.0,0.0,0.0,-3.3832,-3.2029,-3.1602,-3.149,-3.1425,0.0,0.0,0.0,0.0,0.0,0.0,0.0,0.0,0.0,0.0,0.0,0.0,0.0,0.0,0.0,0.0,-2.9902,0.0,0.0,0.0,0.0,0.0,0.0,0.0,0.0,-3.2014,-3.2679,-3.292,-3.349,-3.3789,0.0,-3.3855,-3.2515,0.0,0.0,0.0,0.0,0.0,0.0,0.0,0.0,-3.2843,-3.4997,-3.4296,-3.4551,-3.5918,-3.6016,-3.5586,-3.4707,-3.3848,-3.3281,-3.3006,-3.3563,-3.3982,0.0,0.0,0.0,0.0,0.0,0.0,0.0,0.0,0.0,0.0,0.0,0.0,0.0,0.0,0.0,0.0,0.0,0.0,0.0,0.0,0.0,0.0,0.0,-3.2122,0.0,0.0,0.0,0.0,0.0,0.0,0.0,0.0,0.0,-3.1687,-3.2303,-3.3243,-3.4405,-3.4283,-3.4264,-3.4802,0.0,0.0,0.0,0.0,0.0,0.0,0.0,-3.3829,-3.3763,-3.3669,-3.3988,-3.5181,-3.6437,-3.7197,-3.6787,0.0,0.0,-3.3954,-3.3606,-3.3592,-3.3274,-3.3941,-3.4393,-3.3835,-3.4617,-3.5088,0.0,0.0,0.0,0.0,0.0,0.0,0.0,0.0,-3.0971,-3.0559,0.0,-3.0657,0.0,0.0,0.0,0.0,0.0,0.0,0.0,0.0,-3.4939,-3.537,-3.4643,-3.4631,-3.4664,-3.4743,-3.4778,-3.4345,-3.3518,-3.3499,0.0,0.0,0.0,0.0,0.0,0.0,-3.4263,-3.5894,-3.5117,-3.5117,-3.5957,-3.6016,-3.5586,-3.4707,-3.3945,-3.3887,-3.4648,-3.4765,-3.5153,-3.5948,-3.598,0.0,0.0,0.0,0.0,0.0,0.0,0.0,0.0,0.0,0.0,0.0,0.0,0.0,0.0,0.0,0.0,0.0,0.0,0.0,0.0,-3.2048,0.0,0.0,0.0,0.0,0.0,0.0,0.0,0.0,0.0,0.0,-3.119,-3.2939,-3.4503,-3.4531,0.0,0.0,0.0,0.0,-3.5601,-3.5346,-3.5386,-3.5393,-3.5327,-3.5309,-3.54,-3.5613,0.0,0.0,-3.7248,-3.7686,-3.7827,-3.7033,-3.7603,-3.7461,-3.5562,-3.5189,-3.4866,-3.407,-3.4639,-3.5034,-3.5036,-3.5363,-3.5404,-3.1729,0.0,0.0,0.0,0.0,-3.1469,-3.21,-3.2731,-3.3317,-3.3435,-3.3259,-3.3476,0.0,0.0,0.0,0.0,0.0,0.0,-3.3451,-3.4252,-3.4731,-3.5142,-3.5522,-3.5525,-3.5559,-3.5644,-3.6249,-3.6444,-3.619,-3.617,-3.5262,-3.3438,0.0,0.0,0.0,0.0,-3.4245,-3.5837,-3.5156,-3.5117,-3.5976,-3.6016,-3.5586,-3.4726,-3.5078,-3.5078,-3.4726,-3.5879,-3.6386,-3.6049,-3.7177,0.0,0.0,0.0,0.0,0.0,0.0,0.0,0.0,0.0,0.0,0.0,0.0,0.0,0.0,0.0,0.0,0.0,0.0,0.0,-3.2005,-3.3104,-3.3416,0.0,0.0,0.0,0.0,0.0,0.0,0.0,0.0,0.0,-3.3575,-3.3971,-3.4582,0.0,0.0,-3.4847,-3.545,-3.554,-3.5558,-3.5592,0.0,0.0,0.0,-3.5075,-3.4872,-3.5459,-3.6923,-3.8198,-3.8871,-3.9636,-4.0096,-3.9843,-3.9991,-3.9741,-3.8626,-3.7825,-3.7351,-3.7137,-3.7715,-3.8079,-3.7586,-3.8303,-3.8779,-3.2786,-3.1828,-3.1822,-3.2022,-3.2402,-3.2897,-3.3626,-3.4471,-3.498,-3.5019,-3.4726,-3.5078,-3.4551,-3.3378,-3.3378,0.0,0.0,0.0,-3.4529,-3.5641,-3.5671,-3.5924,-3.6404,-3.6433,-3.6285,-3.6035,-3.6894,-3.7129,-3.6797,-3.7148,-3.6341,-3.4497,0.0,0.0,-3.518,-3.4684,-3.5127,-3.6405,-3.5644,-3.5644,-3.6484,-3.6172,-3.5742,-3.5254,-3.5723,-3.5742,-3.5254,-3.6543,-3.7207,-3.7049,-3.8336,-3.8347,0.0,0.0,0.0,0.0,0.0,0.0,0.0,0.0,0.0,0.0,0.0,-3.2298,0.0,0.0,0.0,0.0,-3.3875,-3.3555,-3.3548,-3.4161,0.0,0.0,0.0,0.0,0.0,0.0,0.0,-3.4292,-3.5054,-3.5648,-3.5571,-3.5164,-3.508,-3.5638,-3.5208,-3.5006,-3.5519,0.0,-3.5706,-3.6087,-3.5786,-3.565,-3.6059,-3.5464,-3.5246,-3.6095,-3.7455,-3.8737,-3.9605,-4.0484,-4.1048,-4.1066,-4.1,-4.0789,-4.0264,-3.9707,-3.9224,-3.8961,-3.9567,-3.9911,-3.9412,-4.0145,-4.0471,-3.3635,-3.3698,-3.363,-3.3965,-3.458,-3.4683,-3.5136,-3.5879,-3.5957,-3.5586,-3.498,-3.5762,-3.5215,-3.3729,-3.363,0.0,-3.4804,-3.4862,-3.5741,-3.7209,-3.7322,-3.7361,-3.7326,-3.7361,-3.6953,-3.6133,-3.6992,-3.6992,-3.6309,-3.7029,-3.7025,-3.6317,-3.6219,-3.6176,-3.6088,-3.6096,-3.6496,-3.7244,-3.6503,-3.6445,-3.7168,-3.6406,-3.6016,-3.5996,-3.6016,-3.5996,-3.6035,-3.6836,-3.7676,-3.8476,-3.9334,-3.976,-3.9682,0.0,0.0,0.0,0.0,0.0,0.0,0.0,0.0,0.0,0.0,0.0,0.0,0.0,0.0,0.0,-3.6034,0.0,-3.6013,-3.5297,0.0,0.0,0.0,-3.5215,-3.6011,-3.682,-3.6951,-3.6121,0.0,0.0,-3.7113,0.0,-3.5844,-3.5901,-3.589,-3.583,-3.5716,-3.5705,-3.5958,-3.6546,-3.6122,-3.5919,-3.6487,-3.612,-3.6124,-3.7185,-3.8027,-3.8748,-3.973,-4.0379,-4.0908,-4.0997,-4.0941,-4.0878,-4.0898,-4.0743,-4.0575,-3.982,-4.0267,-4.0752,-4.061,-4.0668,-4.0694,-3.5771,-3.6302,-3.564,-3.4742,-3.3767,-3.4431,-3.4823,-3.5059,-3.5723,-3.625,-3.6699,-3.6894,-3.6758,-3.6328,-3.5683,-3.5488,-3.5722,-3.6387,-3.6894,-3.7323,-3.7988,-3.8281,-3.8261,-3.8301,-3.7851,-3.709,-3.7871,-3.8184,-3.7988,-3.8183,-3.8513,-3.8834,-3.8247,-3.7575,-3.6928,-3.6918,-3.7009,-3.7215,-3.7021,-3.6714,-3.6328,-3.6113,-3.6016,-3.6016,-3.6016,-3.6016,-3.6016,-3.6836,-3.7402,-3.7617,-3.9043,-3.9569,-3.8902,-3.8634,0.0,0.0,0.0,0.0,0.0,0.0,0.0,0.0,0.0,-3.472,-3.3405,0.0,-3.4745,0.0,-3.7094,-3.7611,-3.6962,-3.7287,0.0,0.0,-3.7217,-3.7581,-3.7787,-3.7977,-3.8026,-3.7791,-3.8011,-3.7908,-3.7241,-3.6986,-3.6622,-3.6071,-3.5853,-3.5733,-3.5705,-3.575,-3.5843,-3.6063,-3.6506,-3.6705,-3.6289,-3.6086,-3.6483,-3.8047,-3.7887,-3.8266,-4.0406,-4.031,-4.0151,-4.0764,-4.0877,-4.0831,-4.0787,-4.0809,-4.0725,-4.0556,-4.068,-4.0784,-4.0707,-4.0739,-4.0771,-3.7436,-3.7829,-3.7342,-3.6366,-3.5175,-3.5664,-3.5859,-3.5918,-3.6777,-3.7441,-3.7871,-3.7871,-3.7871,-3.7812,-3.6973,-3.6797,-3.7168,-3.7266,-3.7715,-3.8476,-3.8945,-3.918,-3.918,-3.918,-3.873,-3.791,-3.8359,-3.8613,-3.8613,-3.8613,-3.8613,-3.8687,-3.8589,-3.8093,-3.7251,-3.755,-3.794,-3.8346,-3.7966,-3.718,-3.6055,-3.6016,-3.6171,-3.652,-3.652,-3.6713,-3.7097,-3.7936,-3.8426,-3.8449,-3.9719,-4.0205,-3.973,-3.9306,-3.8853,0.0,0.0,0.0,0.0,0.0,0.0,0.0,0.0,0.0,0.0,0.0,-3.5952,0.0,-3.8053,-3.8724,-3.7851,-3.8199,-3.8448,-3.8317,-3.8723,-3.9176,-3.9597,-3.9651,-3.9499,-3.9122,-3.9093,-3.8786,-3.7946,-3.7477,-3.7244,-3.7129,-3.6722,-3.6261,-3.591,-3.5872,-3.6019,-3.6412,-3.6618,-3.6582,-3.6055,-3.5975,-3.6265,-3.7143,-3.7264,-3.7663,-3.9026,-3.9158,-3.9174,-3.9606,-3.9677,-3.9785,-4.0139,-4.0236,-4.0332,-4.07,-4.0797,-4.079,-4.0752,-4.0784,-4.079,-3.8513,-3.8612,-3.8612,-3.8242,-3.7617,-3.7637,-3.7519,-3.7363,-3.8223,-3.8652,-3.875,-3.875,-3.8769,-3.8711,-3.7851,-3.7891,-3.8555,-3.793,-3.8437,-3.9883,-4.0137,-4.0176,-4.0059,-4.0156,-3.9707,-3.8789,-3.8769,-3.8769,-3.8789,-3.8769,-3.8418,-3.7851,-3.8554,-3.8512,-3.7753,-3.84,-3.9045,-3.9607,-3.8761,-3.7629,-3.6191,-3.6249,-3.6655,-3.7324,-3.7361,-3.7702,-3.8475,-3.9216,-3.9692,-3.9819,-4.0524,-4.0996,-4.1058,-4.0298,-3.9767,0.0,-3.8893,0.0,0.0,0.0,0.0,0.0,0.0,0.0,0.0,-3.7849,-3.7426,-3.7528,-3.8913,-3.954,-3.8892,-3.8851,-3.9154,-3.9873,-3.9992,-4.0308,-4.1074,-4.1191,-4.0918,-4.0156,-4.0078,-3.9726,-3.8867,-3.8086,-3.7949,-3.832,-3.7734,-3.6973,-3.6367,-3.6211,-3.6445,-3.709,-3.6504,-3.6113,-3.6191,-3.6048,-3.5974,-3.6147,-3.6523,-3.6995,-3.7319,-3.7761,-3.8147,-3.8227,-3.8334,-3.8528,-3.921,-3.9423,-3.9771,-4.0429,-4.0681,-4.079,-4.0784,-4.079,-4.079,-3.7968,-3.8594,-3.8613,-3.8906,-3.9394,-3.9414,-3.8594,-3.7363,-3.8223,-3.9004,-3.9629,-3.9648,-3.9648,-3.959,-3.875,-3.8457,-3.8613,-3.916,-3.959,-3.9941,-4.1308,-4.1582,-4.1016,-4.1621,-4.1133,-3.9707,-3.9668,-3.9648,-3.9668,-3.9668,-3.9901,-4.0381,-4.0557,-4.0508,-4.0303,0.0,0.0,0.0,-3.7882,-3.729,-3.7,-3.7666,-3.8101,-3.8248,-3.8248,0.0,-3.8493,-3.8649,-3.908,-3.9748,-3.9962,0.0,0.0,0.0,0.0,0.0,0.0,0.0,0.0,0.0,0.0,0.0,-3.8668,-3.824,-3.8552,-3.8368,-3.8561,-3.9312,-3.9642,-4.0052,-4.0623,-4.0682,-4.076,-4.0917,-4.0937,-4.1015,-4.1191,-4.1191,-4.1113,-4.0976,-4.0957,-4.0605,-3.9766,-3.9492,-3.918,-3.8672,-3.7851,-3.7285,-3.7109,-3.7031,-3.6836,-3.6387,-3.6113,-3.6269,-3.6953,-3.6367,-3.6129,-3.6669,-3.6312,-3.6546,-3.7594,-3.741,-3.745,-3.7972,-3.8212,-3.8179,-3.8437,-3.8992,-3.9507,-3.9719,-4.0313,-4.0784,-4.072,-4.0771,-4.0759,-3.9492,0.0,-3.9883,-3.9902,0.0,-4.0351,-3.9805,-3.8672,-3.9922,-4.0957,-4.1738,-4.1328,-4.1133,-4.1094,-4.0254,-3.9883,-3.9883,-3.9902,-4.0137,-4.0586,-4.1406,-4.1797,-4.1797,-4.2207,-4.2187,-4.1758,-4.1328,-4.1348,-4.1738,-4.1348,-4.1132,-4.1168,-4.1539,-4.1087,-3.9848,-3.9806,-3.9584,-3.9138,-3.8297,-3.7644,-3.73,-3.7665,-3.8103,-3.85,0.0,0.0,0.0,0.0,0.0,0.0,0.0,0.0,0.0,0.0,0.0,-4.0381,-3.9985,-3.9733,-3.978,-3.981,-4.0013,-4.0448,-4.0116,-3.9706,-3.9275,-3.9605,-4.0036,-4.0488,-4.0506,-4.0682,-4.1152,-4.1191,-4.1191,-4.1191,-4.1191,-4.1191,-4.1191,-4.1191,-4.1191,-4.1191,-4.1191,-4.0879,-4.0,-3.9883,-3.9726,-3.9316,-3.8887,-3.8555,-3.8457,-3.7441,-3.6465,-3.6074,-3.6016,-3.6133,-3.6523,-3.6282,-3.6024,-3.6335,-3.607,-3.6098,-3.6852,-3.6633,-3.6493,-3.6923,-3.7014,-3.7111,-3.7631,-3.8317,-3.9018,-3.9517,-4.0213,-4.0752,-4.0752,-4.0778,-4.0765,-4.1074,-4.1211,-4.1348,-4.0996,-4.0391,-4.1094,-4.1094,-4.0664,0.0,0.0,0.0,-4.2949,-4.2539,-4.2344,-4.1699,-4.1328,-4.1152,-4.0605,-4.0723,-4.1426,-4.1738,-4.2148,-4.2617,-4.2773,-4.3164,-4.3652,-4.2969,-4.2988,-4.3652,-4.2969,-4.2305,-4.1738,-4.2148,-4.1269,-3.9199,-3.9062,-3.9373,-3.9966,-3.9183,-3.841,-3.7773,-3.7889,-3.8275,-3.8924,-3.9627,-4.034,-4.0957,-4.0976,-4.102,-4.107,-4.107,-4.1074,-4.1099,-4.1099,-4.1078,-4.1035,-4.1172,-4.1202,-4.1141,-4.1396,-4.1597,-4.1641,-4.1641,-4.1211,-4.0214,-4.0781,-4.1191,-4.1191,-4.1191,-4.1191,-4.1191,-4.1191,-4.1191,-4.1191,-4.1191,-4.1191,-4.1191,-4.1191,-4.1191,-4.1191,-4.1191,-4.0957,-4.0273,-4.0156,-4.0117,-4.0098,-3.9902,-3.9824,-3.9434,-3.7715,-3.6289,-3.6055,-3.6191,-3.6289,-3.6269,-3.6458,-3.6316,-3.6484,-3.6346,-3.6134,-3.5994,-3.5955,-3.5926,-3.5927,-3.5811,-3.6137,-3.6774,-3.7685,-3.8494,-3.9243,-4.0137,-4.0797,-4.0797,-4.0797,-4.079,-4.0527,-4.1269,-4.1933,-4.2148,-4.2051,-4.2187,-4.2578,-4.3105,-4.2637,-4.2891,-4.3691,-4.3574,-4.3105,-4.2383,-4.2285,-4.1855,-4.125,-4.1797,-4.2129,0.0,-4.3769,-4.4121,-4.3555,-4.4277,-4.4316,-4.373,-4.3574,-4.3574,-4.3672,-4.3574,-4.3437,-4.3281,-4.2715,-4.1855,-4.0918,-4.084,-4.0879,-4.0976,-4.007,-3.9576,-3.9461,-4.0125,-4.0539,-4.0652,-4.0732,-4.0864,-4.0976,-4.0996,-4.1015,-4.1018,-4.1018,-4.1031,-4.1094,-4.1134,-4.1122,-4.119,-4.1816,-4.1913,-4.1289,-4.2519,-4.334,-4.3359,-4.334,-4.2695,-4.1191,-4.1133,-4.1191,-4.1211,-4.125,-4.1191,-4.1191,-4.1191,-4.1191,-4.1191,-4.1191,-4.1191,-4.1191,-4.1191,-4.1191,-4.1191,-4.1191,-4.1191,-4.0996,-4.0957,-4.0937,-4.0879,-4.043,-3.9687,-3.8965,-3.7832,-3.6855,-3.6309,-3.6641,-3.7051,-3.7168,-3.7728,-3.7929,-3.8138,-3.7944,-3.7598,-3.6994,-3.6893,-3.6685,-3.5989,-3.5999,-3.6016,-3.6148,-3.7269,-3.8225,-3.8712,-3.9741,-4.0751,-4.0803,-4.0797,-4.0778,-4.1484,-4.1933,-4.2754,-4.2832,-4.2383,-4.2383,-4.3164,-4.4336,-4.3984,-4.4297,-4.5019,-4.4609,-4.418,-4.3828,-4.3808,-4.3359,-4.2578,-4.2949,-4.3105,-4.3164,-4.3926,-4.4355,-4.4453,-4.4805,-4.5039,-4.5058,-4.4609,-4.4648,-4.5019,-4.4629,-4.4394,-4.4316,-4.3066,-4.2226,-4.1855,-4.1406,-4.1191,-4.1172,-4.0311,-3.986,-3.986,-4.0226,-4.0417,-4.0417,-4.0846,-4.1101,-4.1121,-4.11,-4.1316,-4.1746,-4.1765,-4.1768,-4.1813,-4.2243,-4.2323,-4.1914,-4.2637,-4.293,-4.2578,-4.3262,-4.3711,-4.3711,-4.3711,-4.3398,-4.2617,-4.2558,-4.2363,-4.1914,-4.1836,-4.166,-4.125,-4.1191,-4.1191,-4.1191,-4.1191,-4.1191,-4.1191,-4.1191,-4.1191,-4.1191,-4.1191,-4.1191,-4.1191,-4.1191,-4.1191,-4.1152,-4.0781,-4.0273,-3.9434,-3.8984,-3.8398,-3.7656,-3.7754,-3.7949,-3.8008,-3.828,-3.8528,-3.8517,-3.8482,-3.8296,-3.7903,-3.7845,-3.7698,-3.742,-3.7305,-3.7112,-3.6778,-3.7977,-3.8694,-3.8552,-3.9694,-4.0676,-4.0821,-4.0784,-4.0713,-4.2812,-4.3066,-4.3711,-4.3613,-4.2969,-4.2773,-4.3574,-4.4961,-4.5,-4.5508,-4.6133,-4.5586,-4.5195,-4.5019,-4.5019,-4.4531,-4.3789,-4.3906,-4.3984,-4.4004,-4.4199,-4.4648,-4.5234,-4.5273,-4.5664,-4.6172,-4.5605,-4.5664,-4.6152,-4.5605,-4.5176,-4.4863,-4.3457,-4.2598,-4.2383,-4.1601,-4.1191,-4.1152,-4.0527,-4.0195,-4.0195,-4.0176,-4.0195,-4.0234,-4.0859,-4.1289,-4.1465,-4.1465,-4.1836,-4.2617,-4.25,-4.2383,-4.2422,-4.3047,-4.3105,-4.2558,-4.3398,-4.4082,-4.4258,-4.4101,-4.4082,-4.4277,-4.4277,-4.4297,-4.4297,-4.4297,-4.373,-4.2637,-4.2187,-4.1816,-4.1328,-4.1191,-4.1191,-4.1191,-4.1191,-4.1191,-4.1191,-4.1191,-4.1191,-4.1191,-4.1191,-4.1191,-4.1191,-4.1191,-4.1191,-4.1191,-4.1191,-4.0898,-4.0332,-4.0195,-3.9883,-3.9394,-3.9023,-3.8887,-3.8906,-3.9141,-3.9238,-3.911,-3.9167,-3.9109,-3.8951,-3.8815,-3.8663,-3.8555,-3.8516,-3.8223,-3.7851,-3.8722,-3.9314,-3.902,-3.9941,-4.0854,-4.0802,-4.0765,-4.0726,-4.4023,-4.4707,-4.4824,-4.4844,-4.4648,-4.3926,-4.4141,-4.498,-4.5019,-4.5508,-4.623,-4.6211,-4.5723,-4.5078,-4.5039,-4.457,-4.3887,-4.4531,-4.4883,-4.4961,-4.5703,-4.6113,-4.6133,-4.6152,-4.6211,-4.6289,-4.6172,-4.6172,-4.6269,-4.6191,-4.5762,-4.5,-4.4043,-4.3183,-4.2441,-4.166,-4.123,-4.1191,-4.1133,-4.1094,-4.1094,-4.1094,-4.1074,-4.1094,-4.1172,-4.1543,-4.2246,-4.2305,-4.2695,-4.3418,-4.2851,-4.2422,-4.2461,-4.2519,-4.2519,-4.2519,-4.3965,-4.5215,-4.5898,-4.5332,-4.5195,-4.5957,-4.5957,-4.5957,-4.5957,-4.5976,-4.498,-4.3027,-4.1816,-4.1523,-4.1211,-4.123,-4.1289,-4.1308,-4.123,-4.1191,-4.1289,-4.1191,-4.1191,-4.1191,-4.125,-4.1191,-4.1191,-4.1191,-4.1191,-4.1191,-4.1191,-4.1152,-4.0996,-4.0937,-4.0918,-4.0742,-4.0312,-3.9844,-3.9863,-4.0488,-4.0625,-4.0781,-4.0879,-4.0508,-3.998,-3.9726,-3.959,-3.9199,-3.8828,-3.8789,-3.873,-3.9211,-3.9731,-3.9613,-4.0124,-4.0873,-4.0808,-4.0765,-4.0733,-4.4219,-4.5039,-4.5566,-4.5762,-4.5644,-4.4844,-4.4961,-4.5742,-4.5762,-4.5976,-4.6269,-4.6289,-4.6094,-4.5762,-4.5762,-4.5566,-4.5293,-4.5605,-4.5781,-4.5781,-4.6152,-4.6289,-4.6289,-4.6289,-4.6289,-4.6289,-4.6289,-4.6289,-4.6289,-4.6289,-4.6113,-4.5723,-4.4902,-4.4297,-4.3887,-4.3105,-4.2656,-4.2676,-4.2168,-4.2148,-4.25,-4.1699,-4.1426,-4.1875,-4.1914,-4.2305,-4.3066,-4.3164,-4.3574,-4.4355,-4.4121,-4.3945,-4.3945,-4.4433,-4.4473,-4.4082,-4.5078,-4.5918,-4.6269,-4.5957,-4.5918,-4.6289,-4.6289,-4.6289,-4.6269,-4.584,-4.5019,-4.4141,-4.3633,-4.3086,-4.2109,-4.1894,-4.1914,-4.1855,-4.1504,-4.1582,-4.2598,-4.1777,-4.1367,-4.1777,-4.1484,-4.1211,-4.1191,-4.1191,-4.1191,-4.1191,-4.1191,-4.1191,-4.1191,-4.1191,-4.1191,-4.1152,-4.0879,-4.0723,-4.0684,-4.0918,-4.1172,-4.1191,-4.1191,-4.0976,-4.0801,-4.0664,-4.0508,-4.0117,-4.0019,-3.9785,-3.9434,-3.998,-4.0496,-4.022,-4.0271,-4.0831,-4.0803,-4.0784,-4.0784,-4.4766,-4.543,-4.6055,-4.6289,-4.625,-4.5625,-4.5703,-4.625,-4.6289,-4.6289,-4.6289,-4.6289,-4.6289,-4.6289,-4.6289,-4.6289,-4.6289,-4.6289,-4.6289,-4.6289,-4.6289,-4.6289,-4.6289,-4.6289,-4.6289,-4.6289,-4.6289,-4.6289,-4.6289,-4.6289,-4.6289,-4.6172,-4.543,-4.5019,-4.4922,-4.4141,-4.3711,-4.3633,-4.3047,-4.3066,-4.3457,-4.2519,-4.2168,-4.2676,-4.2754,-4.3164,-4.4004,-4.4043,-4.4473,-4.5293,-4.5137,-4.5019,-4.5039,-4.5605,-4.5762,-4.5449,-4.5957,-4.6289,-4.6289,-4.6289,-4.6289,-4.6289,-4.6289,-4.6289,-4.6191,-4.5723,-4.5391,-4.5332,-4.5351,-4.459,-4.3086,-4.2754,-4.2676,-4.2422,-4.2012,-4.2402,-4.3086,-4.2344,-4.2051,-4.2305,-4.1894,-4.1406,-4.125,-4.1191,-4.1191,-4.1191,-4.1191,-4.1191,-4.1191,-4.1191,-4.1191,-4.1191,-4.1191,-4.1172,-4.1191,-4.1191,-4.1191,-4.1191,-4.1191,-4.1191,-4.1191,-4.1191,-4.1172,-4.0723,-4.1074,-4.1055,-4.043,-4.0781,-4.1008,-4.0446,-4.0456,-4.0809,-4.0797,-4.0797,-4.0797,-4.623,-4.623,-4.6269,-4.6289,-4.6289,-4.623,-4.623,-4.6289,-4.6289,-4.6289,-4.6289,-4.6289,-4.6289,-4.6289,-4.6289,-4.6289,-4.6289,-4.6289,-4.6289,-4.6289,-4.6289,-4.6289,-4.6289,-4.6289,-4.6289,-4.6289,-4.6289,-4.6289,-4.6289,-4.6289,-4.6289,-4.625,-4.5488,-4.5058,-4.498,-4.4277,-4.375,-4.3867,-4.3711,-4.3691,-4.375,-4.3672,-4.3574,-4.3711,-4.3652,-4.4043,-4.4824,-4.4941,-4.5332,-4.6191,-4.5488,-4.5039,-4.5039,-4.5098,-4.5469,-4.6094,-4.625,-4.6289,-4.6289,-4.6289,-4.6289,-4.6289,-4.6289,-4.6289,-4.6289,-4.6191,-4.6133,-4.6211,-4.6133,-4.543,-4.4043,-4.3691,-4.3359,-4.2715,-4.3125,-4.3105,-4.2715,-4.3164,-4.3144,-4.2656,-4.2266,-4.1836,-4.1289,-4.1191,-4.1191,-4.1191,-4.1191,-4.1191,-4.1191,-4.1191,-4.1191,-4.1191,-4.1191,-4.1191,-4.1191,-4.1191,-4.1191,-4.1191,-4.1191,-4.1191,-4.1191,-4.1191,-4.1191,-4.1191,-4.1191,-4.1172,-4.1152,-4.1113,-4.1074,-4.0824,-4.0675,-4.0821,-4.0797,-4.0797,-4.0797,-4.5781,-4.6289,-4.6289,-4.6289,-4.6289,-4.6289,-4.6289,-4.6289,-4.6289,-4.6289,-4.6289,-4.6289,-4.6289,-4.6289,-4.6289,-4.6289,-4.6289,-4.6289,-4.6289,-4.6289,-4.6289,-4.6289,-4.6289,-4.6289,-4.6289,-4.6289,-4.6289,-4.6289,-4.6289,-4.6289,-4.6289,-4.6269,-4.6016,-4.582,-4.5781,-4.5527,-4.5351,-4.5293,-4.4844,-4.4785,-4.5215,-4.4824,-4.4785,-4.5293,-4.4805,-4.4941,-4.5801,-4.582,-4.5996,-4.6289,-4.5976,-4.584,-4.582,-4.582,-4.5957,-4.625,-4.6289,-4.6289,-4.6289,-4.6289,-4.6289,-4.6289,-4.6289,-4.6289,-4.6289,-4.6289,-4.6289,-4.6289,-4.6289,-4.5918,-4.5488,-4.4883,-4.4414,-4.4082,-4.3379,-4.3535,-4.4238,-4.3769,-4.293,-4.2988,-4.2383,-4.1484,-4.1445,-4.1211,-4.1191,-4.1191,-4.1211,-4.1191,-4.1191,-4.1191,-4.1191,-4.1191,-4.1191,-4.1191,-4.1191,-4.1191,-4.1191,-4.1191,-4.1191,-4.1191,-4.1191,-4.1191,-4.1191,-4.1191,-4.1172,-4.1133,-4.1113,-4.1035,-4.1028,-4.0979,-4.0851,-4.0815,-4.0797,-4.0797,-4.0797,-4.5762,-4.625,-4.6289,-4.6289,-4.6289,-4.6289,-4.6289,-4.6289,-4.6289,-4.6289,-4.6289,-4.6289,-4.6289,-4.6289,-4.6289,-4.6289,-4.6289,-4.6289,-4.6289,-4.6289,-4.6289,-4.6289,-4.6289,-4.6289,-4.6289,-4.6289,-4.6289,-4.6289,-4.6289,-4.6289,-4.6289,-4.6289,-4.6289,-4.6289,-4.6289,-4.6289,-4.6289,-4.6172,-4.5703,-4.5742,-4.6172,-4.5723,-4.5683,-4.6113,-4.5723,-4.5683,-4.6289,-4.6289,-4.6289,-4.6289,-4.6289,-4.6289,-4.6289,-4.6289,-4.6289,-4.6289,-4.6289,-4.6289,-4.6289,-4.6289,-4.6289,-4.6289,-4.6289,-4.6289,-4.6289,-4.6289,-4.6289,-4.6289,-4.6289,-4.6289,-4.6191,-4.5762,-4.5312,-4.5019,-4.418,-4.4199,-4.5566,-4.457,-4.3984,-4.3887,-4.2988,-4.2207,-4.1973,-4.1758,-4.166,-4.1582,-4.1406,-4.1211,-4.1191,-4.1191,-4.1191,-4.1191,-4.1191,-4.1191,-4.1211,-4.123,-4.125,-4.1269,-4.1211,-4.1191,-4.1191,-4.1172,-4.1169,-4.1167,-4.1139,-4.1101,-4.1042,-4.0972,-4.0924,-4.0903,-4.0851,-4.0803,-4.0797,-4.0797,-4.0797,-4.6289,-4.6289,-4.6289,-4.6289,-4.6289,-4.6289,-4.6289,-4.6289,-4.6289,-4.6289,-4.6289,-4.6289,-4.6289,-4.6289,-4.6289,-4.6289,-4.6289,-4.6289,-4.6289,-4.6289,-4.6289,-4.6289,-4.6289,-4.6289,-4.6289,-4.6289,-4.6289,-4.6289,-4.6289,-4.6289,-4.6289,-4.6289,-4.6289,-4.6289,-4.6289,-4.6289,-4.6289,-4.6269,-4.6191,-4.625,-4.6289,-4.6211,-4.6211,-4.6289,-4.623,-4.6211,-4.6289,-4.6289,-4.6289,-4.6289,-4.6289,-4.6289,-4.6289,-4.6289,-4.6289,-4.6289,-4.6289,-4.6289,-4.6289,-4.6289,-4.6289,-4.6289,-4.6289,-4.6289,-4.6289,-4.6289,-4.6289,-4.6289,-4.6289,-4.6289,-4.6289,-4.6211,-4.5918,-4.5254,-4.541,-4.5527,-4.541,-4.5762,-4.5918,-4.498,-4.3984,-4.3691,-4.3476,-4.291,-4.2441,-4.2324,-4.1816,-4.1367,-4.1367,-4.1308,-4.1211,-4.1289,-4.1445,-4.1562,-4.1406,-4.1269,-4.1308,-4.1328,-4.125,-4.1191,-4.1172,-4.1147,-4.1116,-4.1108,-4.1052,-4.1016,-4.0956,-4.0912,-4.0893,-4.0872,-4.082,-4.0816,-4.0797,-4.0797,-4.0797,-4.6289,-4.6289,-4.6289,-4.6289,-4.6289,-4.6289,-4.6289,-4.6289,-4.6289,-4.6289,-4.6289,-4.6289,-4.6289,-4.6289,-4.6289,-4.6289,-4.6289,-4.6289,-4.6289,-4.6289,-4.6289,-4.6289,-4.6289,-4.6289,-4.6289,-4.6289,-4.6289,-4.6289,-4.6289,-4.6289,-4.6289,-4.6289,-4.6289,-4.6289,-4.6289,-4.6289,-4.6289,-4.6289,-4.6289,-4.6289,-4.6289,-4.6289,-4.6289,-4.6289,-4.6289,-4.6289,-4.6289,-4.6289,-4.6289,-4.6289,-4.6289,-4.6289,-4.6289,-4.6289,-4.6289,-4.6289,-4.6289,-4.6289,-4.6289,-4.6289,-4.6289,-4.6289,-4.6289,-4.6289,-4.6289,-4.6289,-4.6289,-4.6289,-4.6289,-4.6289,-4.6289,-4.6289,-4.6152,-4.5898,-4.5625,-4.5644,-4.5762,-4.5625,-4.5312,-4.5,-4.4238,-4.3769,-4.3711,-4.3379,-4.332,-4.3223,-4.2578,-4.2051,-4.1973,-4.1641,-4.1504,-4.1875,-4.1992,-4.2207,-4.2344,-4.2402,-4.2422,-4.2187,-4.1894,-4.1717,-4.1575,-4.1282,-4.1205,-4.1209,-4.1131,-4.1138,-4.1058,-4.1061,-4.1175,-4.0965,-4.0912,-4.0893,-4.0816,-4.0797,-4.0797,-4.6289,-4.6289,-4.6289,-4.6289,-4.6289,-4.6289,-4.6289,-4.6289,-4.6289,-4.6289,-4.6289,-4.6289,-4.6289,-4.6289,-4.6289,-4.6289,-4.6289,-4.6289,-4.6289,-4.6289,-4.6289,-4.6289,-4.6289,-4.6289,-4.6289,-4.6289,-4.6289,-4.6289,-4.6289,-4.6289,-4.6289,-4.6289,-4.6289,-4.6289,-4.6289,-4.6289,-4.6289,-4.6289,-4.6289,-4.6289,-4.6289,-4.6289,-4.6289,-4.6289,-4.6289,-4.6289,-4.6289,-4.6289,-4.6289,-4.6289,-4.6289,-4.6289,-4.6289,-4.6289,-4.6289,-4.6289,-4.6289,-4.6289,-4.6289,-4.6289,-4.6289,-4.6289,-4.6289,-4.6289,-4.6289,-4.6289,-4.6289,-4.6289,-4.6289,-4.6289,-4.6289,-4.6289,-4.6289,-4.6289,-4.5859,-4.5742,-4.6113,-4.582,-4.5547,-4.543,-4.5039,-4.4726,-4.4668,-4.4297,-4.4219,-4.4082,-4.3437,-4.2891,-4.2793,-4.248,-4.2598,-4.2734,-4.2851,-4.3144,-4.3516,-4.3594,-4.3594,-4.3203,-4.2773,-4.2606,-4.2442,-4.1883,-4.1613,-4.176,-4.1756,-4.2186,-4.2187,-4.2072,-4.2054,-4.1628,-4.1139,-4.1106,-4.1087,-4.0855,-4.0797,-4.6289,-4.6289,-4.6289,-4.6289,-4.6289,-4.6289,-4.6289,-4.6289,-4.6289,-4.6289,-4.6289,-4.6289,-4.6289,-4.6289,-4.6289,-4.6289,-4.6289,-4.6289,-4.6289,-4.6289,-4.6289,-4.6289,-4.6289,-4.6289,-4.6289,-4.6289,-4.6289,-4.6289,-4.6289,-4.6289,-4.6289,-4.6289,-4.6289,-4.6289,-4.6289,-4.6289,-4.6289,-4.6289,-4.6289,-4.6289,-4.6289,-4.6289,-4.6289,-4.6289,-4.6289,-4.6289,-4.6289,-4.6289,-4.6289,-4.6289,-4.6289,-4.6289,-4.6289,-4.6289,-4.6289,-4.6289,-4.6289,-4.6289,-4.6289,-4.6289,-4.6289,-4.6289,-4.6289,-4.6289,-4.6289,-4.6289,-4.6289,-4.6289,-4.6289,-4.6289,-4.6289,-4.6289,-4.6289,-4.6289,-4.6191,-4.6211,-4.6269,-4.625,-4.6152,-4.6191,-4.6269,-4.625,-4.6035,-4.5449,-4.5176,-4.4922,-4.4336,-4.3867,-4.3691,-4.3555,-4.3672,-4.373,-4.3769,-4.4101,-4.447,-4.4602,-4.4594,-4.4456,-4.3923,-4.3575,-4.3175,-4.2552,-4.2194,-4.2338,-4.2492,-4.295,-4.3111,-4.286,-4.2467,-4.1938,-4.1629,-4.1506,-4.1216,-4.092,-4.0816,-4.6289,-4.6289,-4.6289,-4.6289,-4.6289,-4.6289,-4.6289,-4.6289,-4.6289,-4.6289,-4.6289,-4.6289,-4.6289,-4.6289,-4.6289,-4.6289,-4.6308,-4.6328,-4.6289,-4.6289,-4.6289,-4.6289,-4.6289,-4.6289,-4.6289,-4.6289,-4.6289,-4.6289,-4.6289,-4.6289,-4.6289,-4.6289,-4.6289,-4.6289,-4.6289,-4.6289,-4.6289,-4.6289,-4.6289,-4.6289,-4.6289,-4.6289,-4.6289,-4.6289,-4.6289,-4.6289,-4.6289,-4.6289,-4.6289,-4.6289,-4.6289,-4.6289,-4.6289,-4.6289,-4.6289,-4.6289,-4.6289,-4.6289,-4.6289,-4.6289,-4.6289,-4.6289,-4.6289,-4.6289,-4.6289,-4.6289,-4.6289,-4.6289,-4.6289,-4.6289,-4.6289,-4.6289,-4.6289,-4.6289,-4.6289,-4.6289,-4.6289,-4.6289,-4.6289,-4.6289,-4.6289,-4.6289,-4.623,-4.6113,-4.5898,-4.5742,-4.5234,-4.4648,-4.457,-4.4258,-4.4199,-4.4551,-4.4726,-4.5078,-4.5361,-4.5527,-4.5605,-4.5618,-4.5188,-4.4587,-4.3996,-4.3208,-4.3038,-4.3041,-4.3112,-4.346,-4.3382,-4.3189,-4.2711,-4.2447,-4.2247,-4.2125,-4.1281,-4.0791,-4.0829,-4.6289,-4.6289,-4.6289,-4.6289,-4.6289,-4.6289,-4.6289,-4.6289,-4.6289,-4.6289,-4.6289,-4.6289,-4.6289,-4.6289,-4.6289,-4.6289,-4.6328,-4.6699,-4.6641,-4.6289,-4.6289,-4.6289,-4.6289,-4.6289,-4.6289,-4.6289,-4.6308,-4.6289,-4.6289,-4.6289,-4.6289,-4.6289,-4.6289,-4.6289,-4.6289,-4.6289,-4.6289,-4.6289,-4.6289,-4.6289,-4.6289,-4.6289,-4.6289,-4.6289,-4.6289,-4.6289,-4.6289,-4.6289,-4.6289,-4.6289,-4.6289,-4.6289,-4.6289,-4.6289,-4.6289,-4.6289,-4.6289,-4.6289,-4.6289,-4.6289,-4.6289,-4.6289,-4.6289,-4.6289,-4.6289,-4.6289,-4.6289,-4.6289,-4.6289,-4.6289,-4.6289,-4.6289,-4.6289,-4.6289,-4.6289,-4.6289,-4.6289,-4.6289,-4.6289,-4.6289,-4.6289,-4.6289,-4.6289,-4.6289,-4.6289,-4.6191,-4.5879,-4.5605,-4.5488,-4.5019,-4.4805,-4.5195,-4.5449,-4.5683,-4.574,-4.5859,-4.5832,-4.5905,-4.5779,-4.5287,-4.4735,-4.3957,-4.4015,-4.3982,-4.3904,-4.3885,-4.3982,-4.3982,-4.3724,-4.3465,-4.3143,-4.2563,-4.1796,-4.1074,-4.1074,-4.6289,-4.6289,-4.6289,-4.6289,-4.6289,-4.6289,-4.6289,-4.6289,-4.6289,-4.6289,-4.6328,-4.6406,-4.6562,-4.6426,-4.6797,-4.668,-4.6699,-4.7461,-4.7246,-4.6973,-4.6797,-4.6816,-4.6836,-4.6426,-4.6426,-4.6523,-4.6465,-4.6621,-4.6816,-4.6758,-4.6562,-4.6601,-4.6523,-4.6367,-4.6328,-4.6289,-4.6289,-4.6289,-4.6289,-4.6289,-4.6289,-4.6289,-4.6289,-4.6289,-4.6289,-4.6289,-4.6289,-4.6289,-4.6289,-4.6289,-4.6289,-4.6289,-4.6289,-4.6289,-4.6289,-4.6289,-4.6289,-4.6289,-4.6289,-4.6289,-4.6289,-4.6289,-4.6289,-4.6289,-4.6289,-4.6289,-4.6289,-4.6289,-4.6289,-4.6289,-4.6289,-4.6289,-4.6289,-4.6289,-4.6289,-4.6289,-4.6289,-4.6289,-4.6289,-4.6289,-4.6289,-4.6289,-4.6289,-4.6289,-4.6289,-4.6289,-4.6094,-4.6035,-4.5976,-4.5781,-4.5703,-4.5937,-4.6094,-4.6172,-4.6147,-4.6103,-4.601,-4.5954,-4.5858,-4.5564,-4.5293,-4.4872,-4.5021,-4.5026,-4.4775,-4.4891,-4.52,-4.5084,-4.4671,-4.4316,-4.3891,-4.3253,-4.2557,-4.1886,-4.1622,-4.6289,-4.6289,-4.6289,-4.6289,-4.6289,-4.6289,-4.6289,-4.6289,-4.6308,-4.6387,-4.6465,-4.7012,-4.7305,-4.7363,-4.791,-4.834,-4.8203,-4.8437,-4.8476,-4.8398,-4.834,-4.834,-4.7988,-4.709,-4.6758,-4.7148,-4.7344,-4.7656,-4.8086,-4.8027,-4.793,-4.7324,-4.707,-4.6953,-4.6367,-4.6289,-4.6289,-4.6289,-4.6289,-4.6289,-4.6289,-4.6289,-4.6289,-4.6289,-4.6289,-4.6289,-4.6289,-4.6289,-4.6289,-4.6289,-4.6289,-4.6289,-4.6289,-4.6289,-4.6289,-4.6289,-4.6289,-4.6289,-4.6289,-4.6289,-4.6289,-4.6289,-4.6289,-4.6289,-4.6289,-4.6289,-4.6289,-4.6289,-4.6289,-4.6289,-4.6289,-4.6289,-4.6289,-4.6289,-4.6289,-4.6289,-4.6289,-4.6289,-4.6289,-4.6289,-4.6289,-4.6289,-4.6289,-4.6289,-4.6289,-4.6289,-4.6289,-4.6289,-4.6289,-4.6289,-4.6289,-4.6289,-4.6289,-4.6269,-4.6158,-4.6075,-4.5979,-4.5908,-4.5848,-4.5787,-4.5536,-4.5452,-4.5471,-4.5529,-4.5568,-4.5722,-4.5703,-4.5587,-4.5065,-4.4838,-4.458,-4.3987,-4.3349,-4.2679,-4.197,-4.6289,-4.6289,-4.6289,-4.6289,-4.6289,-4.6289,-4.6289,-4.6387,-4.6758,-4.6914,-4.7109,-4.7832,-4.8203,-4.8223,-4.8672,-4.8867,-4.8887,-4.8906,-4.9121,-4.9258,-4.9141,-4.8867,-4.8828,-4.8105,-4.7793,-4.8183,-4.8203,-4.8535,-4.873,-4.8535,-4.793,-4.7578,-4.7246,-4.6719,-4.6367,-4.6308,-4.6289,-4.6289,-4.6289,-4.6289,-4.6289,-4.6289,-4.6289,-4.6289,-4.6289,-4.6289,-4.6289,-4.6289,-4.6289,-4.6289,-4.6289,-4.6289,-4.6289,-4.6289,-4.6289,-4.6289,-4.6289,-4.6289,-4.6289,-4.6289,-4.6289,-4.6289,-4.6289,-4.6289,-4.6289,-4.6289,-4.6289,-4.6289,-4.6289,-4.6289,-4.6289,-4.6289,-4.6289,-4.6289,-4.6289,-4.6289,-4.6289,-4.6289,-4.6289,-4.6289,-4.6289,-4.6289,-4.6289,-4.6289,-4.6289,-4.6289,-4.6289,-4.6289,-4.6289,-4.6289,-4.6289,-4.6289,-4.6289,-4.625,-4.6113,-4.6011,-4.5894,-4.5861,-4.5834,-4.5807,-4.571,-4.571,-4.5768,-4.5742,-4.5664,-4.5568,-4.5529,-4.5452,-4.549,-4.5394,-4.5097,-4.4645,-4.4084,-4.3375,-4.2609,-4.6289,-4.6308,-4.6445,-4.6504,-4.6504,-4.6523,-4.666,-4.6875,-4.7305,-4.7598,-4.7969,-4.8711,-4.9101,-4.9141,-4.9336,-4.9316,-4.9355,-4.9414,-4.9883,-5.0234,-4.9824,-4.959,-4.9473,-4.9375,-4.9277,-4.9258,-4.9141,-4.9219,-4.918,-4.8594,-4.8652,-4.8008,-4.7187,-4.6933,-4.6641,-4.6348,-4.6426,-4.6582,-4.6406,-4.6465,-4.6484,-4.6445,-4.6289,-4.6289,-4.6289,-4.6289,-4.6289,-4.6289,-4.6289,-4.6289,-4.6289,-4.6289,-4.6289,-4.6289,-4.6289,-4.6289,-4.6289,-4.6289,-4.6289,-4.6289,-4.6289,-4.6289,-4.6289,-4.6289,-4.6289,-4.6289,-4.6289,-4.6289,-4.6289,-4.6289,-4.6289,-4.6289,-4.6289,-4.6289,-4.6289,-4.6289,-4.6289,-4.6289,-4.6289,-4.6289,-4.6289,-4.6289,-4.6289,-4.6289,-4.6289,-4.6289,-4.6289,-4.6289,-4.6289,-4.6289,-4.6289,-4.6289,-4.6269,-4.6191,-4.6074,-4.5954,-4.5835,-4.5822,-4.5807,-4.5807,-4.5807,-4.5807,-4.5787,-4.5671,-4.5594,-4.5548,-4.551,-4.5471,-4.5568,-4.5749,-4.5645,-4.5213,-4.4671,-4.4059,-4.3363,-4.6289,-4.6367,-4.709,-4.7383,-4.7383,-4.7383,-4.7754,-4.8281,-4.7871,-4.8047,-4.8769,-4.959,-4.998,-5.0117,-5.0723,-5.0937,-5.0742,-5.0723,-5.0879,-5.1094,-5.082,-5.0762,-5.0703,-5.0664,-5.0781,-5.0781,-5.0391,-5.0254,-5.0703,-5.082,-4.9922,-4.959,-4.875,-4.8047,-4.7305,-4.6777,-4.6797,-4.7187,-4.6816,-4.6719,-4.7012,-4.6641,-4.6289,-4.6289,-4.6289,-4.6289,-4.6289,-4.6289,-4.6289,-4.6289,-4.6289,-4.6289,-4.6289,-4.6289,-4.6289,-4.6289,-4.6289,-4.6289,-4.6289,-4.6289,-4.6289,-4.6289,-4.6289,-4.6289,-4.6289,-4.6289,-4.6289,-4.6289,-4.6289,-4.6289,-4.6289,-4.6289,-4.6289,-4.6289,-4.6289,-4.6289,-4.6289,-4.6289,-4.6289,-4.6289,-4.6289,-4.6289,-4.6289,-4.6289,-4.6289,-4.6289,-4.6289,-4.6289,-4.6289,-4.6289,-4.6289,-4.6269,-4.625,-4.6152,-4.6035,-4.5922,-4.5821,-4.5821,-4.5807,-4.5807,-4.5807,-4.5807,-4.5768,-4.5691,-4.5691,-4.571,-4.5645,-4.5568,-4.5626,-4.5787,-4.578,-4.5742,-4.522,-4.4639,-4.4349,-4.6562,-4.6992,-4.7422,-4.7871,-4.8223,-4.8281,-4.8496,-4.8867,-4.8926,-4.918,-4.9726,-5.041,-5.082,-5.0918,-5.1172,-5.1387,-5.1387,-5.1387,-5.1387,-5.1387,-5.1387,-5.1387,-5.1387,-5.1387,-5.1387,-5.1289,-5.1016,-5.0957,-5.1308,-5.0879,-5.0664,-5.0117,-4.9336,-4.8672,-4.8183,-4.7461,-4.7519,-4.7871,-4.748,-4.7148,-4.7519,-4.6797,-4.6387,-4.6308,-4.6308,-4.6289,-4.6289,-4.6289,-4.6289,-4.6289,-4.6289,-4.6289,-4.6289,-4.6289,-4.6289,-4.6289,-4.6289,-4.6289,-4.6289,-4.6289,-4.6289,-4.6289,-4.6289,-4.6289,-4.6289,-4.6289,-4.6308,-4.6308,-4.6308,-4.6289,-4.6289,-4.6308,-4.6289,-4.6289,-4.6328,-4.6328,-4.6308,-4.6308,-4.6328,-4.6348,-4.6367,-4.6348,-4.6289,-4.6289,-4.6289,-4.6289,-4.6289,-4.6289,-4.6289,-4.6289,-4.6289,-4.625,-4.6209,-4.6108,-4.5998,-4.5892,-4.5807,-4.5807,-4.5807,-4.5807,-4.5807,-4.5807,-4.5807,-4.5787,-4.5807,-4.5807,-4.5787,-4.5684,-4.5768,-4.5807,-4.5787,-4.5742,-4.5568,-4.5297,-4.4929,-4.6972,-4.7617,-4.7969,-4.8535,-4.9101,-4.916,-4.9277,-4.9512,-4.9922,-5.0215,-5.0527,-5.1055,-5.1348,-5.1387,-5.1387,-5.1387,-5.1387,-5.1387,-5.1387,-5.1387,-5.1387,-5.1387,-5.1387,-5.1387,-5.1387,-5.1387,-5.1328,-5.1387,-5.1308,-5.0918,-5.0547,-5.0312,-4.9609,-4.916,-4.8984,-4.8027,-4.8359,-4.8555,-4.8105,-4.7656,-4.7637,-4.7226,-4.6699,-4.6582,-4.6543,-4.6523,-4.6328,-4.6289,-4.6289,-4.6289,-4.6289,-4.6289,-4.6289,-4.6289,-4.6289,-4.6289,-4.6289,-4.6289,-4.6289,-4.6289,-4.6289,-4.6289,-4.6289,-4.6289,-4.6289,-4.6328,-4.6387,-4.6484,-4.6348,-4.6308,-4.6328,-4.6504,-4.6582,-4.6641,-4.6641,-4.6562,-4.6562,-4.6543,-4.6504,-4.6504,-4.6484,-4.6484,-4.6465,-4.6289,-4.6289,-4.6289,-4.6289,-4.6289,-4.6289,-4.6289,-4.6289,-4.6211,-4.6145,-4.6082,-4.5974,-4.588,-4.5827,-4.5807,-4.5807,-4.5807,-4.5807,-4.5807,-4.5807,-4.5807,-4.5807,-4.5807,-4.5807,-4.5807,-4.5807,-4.5807,-4.5807,-4.5768,-4.5664,-4.551,-4.5239,-4.7519,-4.7734,-4.9238,-4.9961,-5.0039,-5.0058,-5.0449,-5.0918,-5.0469,-5.0625,-5.1152,-5.1328,-5.1387,-5.1387,-5.1387,-5.1387,-5.1387,-5.1387,-5.1387,-5.1387,-5.1387,-5.1387,-5.1387,-5.1387,-5.1387,-5.1387,-5.1387,-5.1387,-5.1348,-5.1211,-5.1191,-5.0996,-5.0449,-5.0058,-4.9902,-4.8711,-4.8516,-4.9473,-4.8496,-4.8047,-4.8574,-4.8535,-4.8047,-4.7558,-4.7324,-4.6973,-4.6406,-4.6289,-4.6289,-4.6289,-4.6289,-4.6289,-4.6289,-4.6289,-4.6289,-4.6289,-4.6289,-4.6289,-4.6289,-4.6289,-4.6289,-4.6289,-4.6289,-4.6289,-4.6465,-4.6601,-4.6855,-4.7383,-4.6894,-4.6582,-4.6777,-4.7129,-4.7344,-4.7539,-4.7656,-4.7598,-4.748,-4.7226,-4.7127,-4.7245,-4.7401,-4.6992,-4.6738,-4.6484,-4.6289,-4.6289,-4.6308,-4.6328,-4.6289,-4.6289,-4.6269,-4.6191,-4.6134,-4.6052,-4.5969,-4.5873,-4.5834,-4.5807,-4.5807,-4.5807,-4.5807,-4.5807,-4.5807,-4.5807,-4.5807,-4.5807,-4.5807,-4.5807,-4.5807,-4.5807,-4.5807,-4.5807,-4.5787,-4.5626,-4.5471,-4.834,-4.8457,-4.9668,-5.0469,-5.0859,-5.0879,-5.1055,-5.1269,-5.1035,-5.1074,-5.1348,-5.1387,-5.1387,-5.1387,-5.1387,-5.1387,-5.1387,-5.1387,-5.1387,-5.1387,-5.1387,-5.1387,-5.1387,-5.1387,-5.1387,-5.1387,-5.1387,-5.1387,-5.1387,-5.1387,-5.1387,-5.1328,-5.1094,-5.0879,-5.0723,-4.9687,-4.9922,-5.0234,-4.9805,-4.9297,-4.9394,-4.9141,-4.8496,-4.7676,-4.7637,-4.7129,-4.6523,-4.6289,-4.6289,-4.6289,-4.6289,-4.6289,-4.6289,-4.6289,-4.6289,-4.6289,-4.6289,-4.6289,-4.6289,-4.6328,-4.6387,-4.6328,-4.6387,-4.6523,-4.6933,-4.7461,-4.7793,-4.8262,-4.8008,-4.7793,-4.791,-4.8574,-4.8906,-4.9082,-4.8984,-4.8965,-4.8789,-4.8203,-4.8045,-4.8182,-4.8299,-4.7987,-4.7773,-4.7851,-4.7558,-4.707,-4.6914,-4.6719,-4.6504,-4.625,-4.623,-4.6191,-4.6109,-4.6018,-4.5961,-4.5893,-4.5834,-4.5807,-4.5807,-4.5807,-4.5807,-4.5807,-4.5807,-4.5807,-4.5807,-4.5807,-4.5807,-4.5807,-4.5807,-4.5807,-4.5807,-4.5807,-4.5807,-4.5787,-4.5664,-4.8594,-4.8691,-4.9941,-5.0859,-5.1387,-5.1387,-5.1387,-5.1387,-5.1367,-5.1387,-5.1387,-5.1387,-5.1387,-5.1387,-5.1387,-5.1387,-5.1387,-5.1387,-5.1387,-5.1387,-5.1387,-5.1387,-5.1387,-5.1387,-5.1387,-5.1387,-5.1387,-5.1387,-5.1387,-5.1387,-5.1387,-5.1387,-5.1328,-5.1328,-5.1152,-5.0547,-5.0371,-5.0703,-5.0586,-5.0449,-5.0391,-4.9941,-4.9023,-4.8301,-4.7812,-4.7402,-4.6484,-4.6289,-4.6289,-4.6289,-4.6289,-4.6289,-4.6289,-4.6289,-4.6289,-4.6289,-4.6289,-4.6484,-4.6738,-4.6933,-4.6797,-4.6758,-4.6992,-4.7539,-4.8203,-4.8808,-4.9297,-4.9531,-4.9258,-4.9297,-4.9648,-5.0293,-5.0683,-5.0703,-5.0566,-5.0547,-5.0273,-4.9336,-4.8865,-4.91,-4.9257,-4.9432,-4.9336,-4.9473,-4.9023,-4.8125,-4.7617,-4.7226,-4.6777,-4.6367,-4.6218,-4.6175,-4.6115,-4.6035,-4.5937,-4.588,-4.5833,-4.5845,-4.5845,-4.5807,-4.5807,-4.5807,-4.5807,-4.5807,-4.5807,-4.5807,-4.5807,-4.5807,-4.5807,-4.5807,-4.5807,-4.5807,-4.5807,-4.5807,-4.5807,-4.7695,-4.7891,-5.0273,-5.123,-5.1289,-5.1387,-5.1348,-5.1289,-5.1328,-5.1348,-5.1387,-5.1387,-5.1387,-5.1387,-5.1387,-5.1387,-5.1387,-5.1387,-5.1387,-5.1387,-5.1387,-5.1387,-5.1387,-5.1387,-5.1387,-5.1387,-5.1387,-5.1387,-5.1387,-5.1387,-5.1387,-5.1387,-5.1387,-5.1387,-5.1211,-5.0801,-5.0449,-5.0762,-5.0898,-5.1172,-5.1191,-5.0898,-5.0234,-4.9062,-4.8652,-4.8047,-4.6445,-4.6387,-4.6328,-4.6328,-4.6289,-4.6289,-4.6289,-4.6289,-4.6289,-4.6289,-4.6289,-4.6621,-4.7168,-4.7871,-4.8144,-4.8008,-4.8183,-4.8828,-4.9453,-4.916,-4.9707,-5.0898,-5.0742,-5.0781,-5.1289,-5.1894,-5.2246,-5.2129,-5.1797,-5.1426,-5.0918,-4.9902,-4.9565,-4.994,-5.0155,-5.0273,-5.041,-5.043,-4.9922,-4.9004,-4.8125,-4.7695,-4.6973,-4.6531,-4.6301,-4.6196,-4.6128,-4.6055,-4.5932,-4.5962,-4.6155,-4.6078,-4.5981,-4.5884,-4.5807,-4.5807,-4.5807,-4.5807,-4.5807,-4.5807,-4.5807,-4.5807,-4.5807,-4.5807,-4.5807,-4.5807,-4.5807,-4.5807,-4.5807,-4.7617,-4.7754,-4.9258,-4.9863,-4.9863,-4.9863,-5.0176,-5.0605,-5.0664,-5.0976,-5.1387,-5.1387,-5.1387,-5.1387,-5.1387,-5.1387,-5.1387,-5.1387,-5.1387,-5.1387,-5.1387,-5.1387,-5.1387,-5.1387,-5.1387,-5.1387,-5.1387,-5.1387,-5.1387,-5.1387,-5.1387,-5.1387,-5.1387,-5.1387,-5.1211,-5.1074,-5.0937,-5.0937,-5.1172,-5.1387,-5.1387,-5.1308,-5.0605,-4.9082,-4.9551,-4.8418,-4.6816,-4.6914,-4.6699,-4.6465,-4.6367,-4.6328,-4.6348,-4.6328,-4.6367,-4.6406,-4.6426,-4.6914,-4.7656,-4.8496,-4.8906,-4.9355,-4.9531,-4.9863,-5.0351,-5.0644,-5.1328,-5.2051,-5.2305,-5.2344,-5.293,-5.3281,-5.3418,-5.3262,-5.2871,-5.2305,-5.1621,-5.0625,-5.0234,-5.0586,-5.082,-5.0996,-5.1133,-5.1269,-5.0605,-4.9844,-4.8965,-4.8125,-4.7461,-4.6951,-4.6808,-4.6688,-4.6654,-4.6692,-4.6602,-4.66,-4.66,-4.6368,-4.6155,-4.6,-4.5904,-4.5807,-4.5807,-4.5807,-4.5826,-4.5872,-4.5872,-4.5826,-4.5807,-4.5826,-4.5826,-4.5807,-4.5807,-4.5807,-4.5807,-4.7205,-4.7284,-4.787,-4.8437,-4.8867,-4.8887,-4.9394,-5.0117,-5.0234,-5.0644,-5.1387,-5.1387,-5.1387,-5.1387,-5.1387,-5.1387,-5.1387,-5.1387,-5.1387,-5.1387,-5.1387,-5.1387,-5.1387,-5.1387,-5.1387,-5.1387,-5.1387,-5.1387,-5.1387,-5.1387,-5.1387,-5.1387,-5.1387,-5.1387,-5.1387,-5.1387,-5.1387,-5.1387,-5.1387,-5.1387,-5.1387,-5.1348,-5.0859,-4.957,-4.9883,-4.9219,-4.791,-4.7695,-4.748,-4.7051,-4.6719,-4.6543,-4.6504,-4.6523,-4.6641,-4.6738,-4.6992,-4.7441,-4.8281,-4.8906,-4.9961,-5.1152,-5.0683,-5.0664,-5.0898,-5.168,-5.1953,-5.2578,-5.3183,-5.3789,-5.4043,-5.416,-5.4199,-5.4004,-5.3047,-5.2441,-5.2207,-5.1504,-5.1269,-5.123,-5.1348,-5.1308,-5.1348,-5.1367,-5.0879,-5.0273,-4.9746,-4.8906,-4.8164,-4.7769,-4.757,-4.7479,-4.7395,-4.7456,-4.7497,-4.7507,-4.7443,-4.6793,-4.6542,-4.6174,-4.602,-4.5981,-4.5884,-4.5807,-4.5852,-4.5924,-4.6157,-4.6377,-4.6163,-4.5845,-4.5826,-4.5807,-4.5807,-4.5807,-4.5807,-4.636,-4.6322,-4.6419,-4.738,-4.8652,-4.8867,-4.9258,-4.9902,-5.0156,-5.0644,-5.1348,-5.1387,-5.1387,-5.1387,-5.1387,-5.1387,-5.1387,-5.1387,-5.1387,-5.1387,-5.1387,-5.1387,-5.1387,-5.1387,-5.1387,-5.1387,-5.1387,-5.1387,-5.1387,-5.1387,-5.1387,-5.1465,-5.1523,-5.1504,-5.1426,-5.1387,-5.1387,-5.1387,-5.1387,-5.1387,-5.1387,-5.1387,-5.084,-5.0273,-5.0273,-4.9726,-4.873,-4.8672,-4.8398,-4.7754,-4.7598,-4.7305,-4.6836,-4.7324,-4.7539,-4.7578,-4.8262,-4.9062,-4.998,-5.0137,-5.1269,-5.2695,-5.1973,-5.1191,-5.1289,-5.1621,-5.1992,-5.2656,-5.3008,-5.373,-5.4219,-5.4492,-5.4453,-5.4082,-5.3047,-5.2402,-5.2109,-5.1953,-5.1562,-5.1387,-5.1387,-5.1387,-5.1387,-5.1308,-5.0957,-5.0586,-5.0293,-4.9707,-4.8965,-4.8608,-4.8438,-4.8222,-4.8161,-4.8357,-4.8425,-4.8462,-4.8229,-4.7533,-4.7057,-4.6851,-4.66,-4.6542,-4.6348,-4.6039,-4.63,-4.6771,-4.6952,-4.7113,-4.6719,-4.6306,-4.5898,-4.5807,-4.5807,-4.5807,-4.5807,-4.6299,-4.6302,-4.6305,-4.6638,-4.7167,-4.7167,-4.7695,-4.8594,-4.9668,-5.0644,-5.1269,-5.1387,-5.1387,-5.1387,-5.1387,-5.1387,-5.1387,-5.1387,-5.1387,-5.1387,-5.1387,-5.1387,-5.1387,-5.1387,-5.1387,-5.1387,-5.1387,-5.1387,-5.1387,-5.1484,-5.1426,-5.1465,-5.2012,-5.1914,-5.1562,-5.1387,-5.1387,-5.1387,-5.1387,-5.1387,-5.1387,-5.1367,-5.1055,-5.0293,-5.0683,-5.0312,-4.9238,-4.9492,-4.9297,-4.8594,-4.8476,-4.8223,-4.791,-4.8359,-4.8437,-4.8457,-4.8945,-4.959,-5.0527,-5.1133,-5.1914,-5.2754,-5.25,-5.1465,-5.1426,-5.2012,-5.2383,-5.2812,-5.334,-5.3965,-5.4141,-5.3594,-5.3359,-5.3105,-5.2402,-5.1914,-5.1621,-5.1562,-5.1387,-5.1387,-5.1387,-5.1426,-5.1426,-5.1465,-5.1191,-5.1133,-5.0937,-5.0508,-4.9824,-4.9552,-4.9347,-4.9034,-4.8938,-4.9221,-4.9379,-4.9395,-4.9243,-4.869,-4.822,-4.7908,-4.7637,-4.7226,-4.7316,-4.7284,-4.7482,-4.7686,-4.7833,-4.7845,-4.7284,-4.6821,-4.6578,-4.6058,-4.5807,-4.5807,-4.5807,-4.6294,-4.63,-4.6302,-4.6305,-4.6287,-4.6288,-4.6797,-4.7832,-4.9414,-5.0508,-5.0957,-5.123,-5.1387,-5.1387,-5.1387,-5.1387,-5.1387,-5.1387,-5.1387,-5.1387,-5.1387,-5.1387,-5.1387,-5.1387,-5.1387,-5.1387,-5.1387,-5.1387,-5.1426,-5.1738,-5.209,-5.2519,-5.2832,-5.2851,-5.2461,-5.2207,-5.1699,-5.1582,-5.1387,-5.1387,-5.1387,-5.1328,-5.1172,-5.0937,-5.0937,-5.0879,-5.0234,-5.0098,-5.0234,-4.9609,-4.9336,-4.918,-4.9101,-4.918,-4.9297,-4.9355,-4.9766,-5.0488,-5.1484,-5.1406,-5.2266,-5.3672,-5.2324,-5.1699,-5.1914,-5.2695,-5.3281,-5.375,-5.4141,-5.4746,-5.4961,-5.4141,-5.3437,-5.3281,-5.3047,-5.2617,-5.207,-5.207,-5.1914,-5.1855,-5.1816,-5.1738,-5.1621,-5.1523,-5.1465,-5.1523,-5.1582,-5.1133,-5.0721,-5.0439,-5.0229,-4.9957,-4.9828,-5.0107,-5.0265,-5.0296,-5.0093,-4.9795,-4.9354,-4.8894,-4.8331,-4.7907,-4.8215,-4.8428,-4.8283,-4.8291,-4.8679,-4.8623,-4.8297,-4.7889,-4.7507,-4.6858,-4.602,-4.602,-4.6225,-4.6305,-4.6293,-4.6293,-4.6301,-4.6287,-4.6289,-4.6797,-4.7715,-4.9316,-5.0098,-5.0293,-5.1035,-5.1289,-5.1387,-5.1387,-5.1387,-5.1387,-5.1387,-5.1387,-5.1387,-5.1387,-5.1387,-5.1387,-5.1387,-5.1387,-5.1387,-5.1426,-5.1504,-5.1543,-5.2363,-5.3125,-5.3652,-5.3867,-5.3672,-5.332,-5.3105,-5.25,-5.2207,-5.1992,-5.1914,-5.1797,-5.1758,-5.1621,-5.1465,-5.1406,-5.1406,-5.1113,-5.1094,-5.084,-5.0469,-5.0234,-4.9746,-4.959,-4.9805,-5.0078,-5.041,-5.0937,-5.1758,-5.2285,-5.1914,-5.2695,-5.3945,-5.2969,-5.2441,-5.2832,-5.3808,-5.4473,-5.4902,-5.5312,-5.6308,-5.6914,-5.584,-5.4824,-5.4668,-5.4531,-5.3965,-5.3242,-5.2969,-5.2773,-5.2676,-5.2637,-5.2558,-5.2344,-5.2187,-5.2109,-5.2305,-5.2344,-5.207,-5.1638,-5.1146,-5.0977,-5.09,-5.085,-5.1023,-5.1112,-5.0981,-5.0728,-5.0337,-5.0137,-4.9705,-4.9123,-4.8839,-4.9128,-4.9219,-4.8838,-4.8941,-4.9557,-4.9727,-4.9562,-4.9112,-4.8483,-4.7801,-4.7001,-4.6987,-4.7018,-4.6305,-4.6293,-4.6297,-4.6303,-4.6287,-4.6289,-4.6797,-4.7637,-4.8203,-4.8926,-5.0215,-5.043,-5.0898,-5.1367,-5.1387,-5.1387,-5.1387,-5.1387,-5.1387,-5.1387,-5.1387,-5.1387,-5.1387,-5.1387,-5.1387,-5.1387,-5.1465,-5.1699,-5.2402,-5.3183,-5.3672,-5.3965,-5.4687,-5.4297,-5.4023,-5.4062,-5.375,-5.3398,-5.3144,-5.2715,-5.2617,-5.2773,-5.2422,-5.1992,-5.2031,-5.1953,-5.1621,-5.1426,-5.1172,-5.1074,-5.1035,-5.0781,-5.082,-5.0937,-5.1055,-5.1152,-5.1777,-5.248,-5.2812,-5.3594,-5.4297,-5.4765,-5.4707,-5.4824,-5.5,-5.5293,-5.5957,-5.6269,-5.6406,-5.7187,-5.7324,-5.6543,-5.5996,-5.5898,-5.5586,-5.4883,-5.4258,-5.4023,-5.3808,-5.3574,-5.3555,-5.3516,-5.3281,-5.293,-5.291,-5.3125,-5.3144,-5.291,-5.2617,-5.2168,-5.1855,-5.1797,-5.1755,-5.1895,-5.155,-5.1372,-5.1158,-5.0914,-5.0894,-5.0831,-5.0479,-5.0274,-5.0261,-5.0099,-4.9839,-5.0125,-5.0679,-5.0572,-5.014,-4.989,-4.9323,-4.8657,-4.8118,-4.8077,-4.7794,-4.6291,-4.6297,-4.6302,-4.6306,-4.6288,-4.6308,-4.6641,-4.709,-4.7441,-4.8437,-4.9629,-5.0058,-5.0625,-5.1308,-5.1387,-5.1387,-5.1387,-5.1387,-5.1387,-5.1387,-5.1387,-5.1387,-5.1387,-5.1387,-5.1387,-5.1387,-5.1523,-5.1816,-5.2832,-5.3965,-5.4609,-5.5156,-5.5664,-5.5117,-5.4922,-5.5293,-5.5449,-5.4922,-5.4355,-5.3769,-5.3672,-5.375,-5.3125,-5.2695,-5.2812,-5.2363,-5.1953,-5.1738,-5.1445,-5.1406,-5.1387,-5.1387,-5.1367,-5.1367,-5.1387,-5.1504,-5.2129,-5.2539,-5.2891,-5.3887,-5.4687,-5.543,-5.6152,-5.6367,-5.6738,-5.709,-5.7461,-5.7754,-5.7695,-5.7676,-5.7383,-5.7109,-5.709,-5.7051,-5.6387,-5.5683,-5.539,-5.5156,-5.4883,-5.459,-5.4512,-5.4512,-5.4277,-5.3906,-5.375,-5.4023,-5.4082,-5.3848,-5.3633,-5.334,-5.3027,-5.2891,-5.2754,-5.2674,-5.2297,-5.2108,-5.2179,-5.2256,-5.2379,-5.2252,-5.1869,-5.1522,-5.1284,-5.1111,-5.0924,-5.1072,-5.1059,-5.0831,-5.0489,-5.0264,-5.0164,-4.9787,-4.9316,-4.9095,-4.8653,-4.6296,-4.6302,-4.6306,-4.6288,-4.6289,-4.6289,-4.6328,-4.6387,-4.7109,-4.7969,-4.8848,-4.9687,-5.0449,-5.1035,-5.1289,-5.1387,-5.1387,-5.1387,-5.1387,-5.1387,-5.1387,-5.1387,-5.1387,-5.1387,-5.1387,-5.1387,-5.1562,-5.1973,-5.3125,-5.4433,-5.5742,-5.6562,-5.6484,-5.6074,-5.5801,-5.6133,-5.6133,-5.5664,-5.5058,-5.4453,-5.4277,-5.418,-5.4101,-5.3789,-5.3418,-5.2949,-5.2656,-5.2187,-5.1562,-5.1543,-5.1543,-5.1582,-5.1406,-5.1387,-5.1387,-5.1875,-5.2539,-5.3066,-5.3594,-5.4551,-5.5156,-5.5801,-5.6328,-5.7187,-5.789,-5.8242,-5.8496,-5.8594,-5.8496,-5.8496,-5.8281,-5.793,-5.7793,-5.7695,-5.7246,-5.668,-5.6308,-5.6094,-5.5898,-5.5723,-5.5859,-5.5879,-5.5976,-5.5703,-5.5762,-5.5566,-5.5332,-5.5156,-5.5098,-5.4902,-5.4219,-5.3945,-5.3516,-5.3359,-5.3398,-5.3294,-5.3514,-5.3643,-5.3704,-5.3283,-5.263,-5.2372,-5.2236,-5.188,-5.1508,-5.1218,-5.1081,-5.0868,-5.0746,-5.0718,-5.0681,-5.0805,-5.055,-5.0047,-4.9521,-4.6296,-4.6302,-4.6288,-4.6289,-4.6289,-4.6289,-4.6289,-4.6308,-4.6504,-4.7129,-4.7969,-4.8848,-4.9726,-5.0547,-5.1191,-5.1387,-5.1387,-5.1387,-5.1387,-5.1387,-5.1387,-5.1387,-5.1387,-5.1387,-5.1387,-5.1387,-5.1601,-5.2344,-5.3769,-5.5254,-5.6308,-5.6562,-5.6601,-5.6406,-5.5937,-5.6269,-5.6367,-5.5976,-5.5879,-5.5371,-5.5078,-5.541,-5.5547,-5.4785,-5.4101,-5.4082,-5.3828,-5.3476,-5.2891,-5.2578,-5.2441,-5.2051,-5.1445,-5.1426,-5.1758,-5.2383,-5.3144,-5.3848,-5.4629,-5.5527,-5.6406,-5.707,-5.7754,-5.8418,-5.8906,-5.9082,-5.914,-5.914,-5.916,-5.914,-5.8965,-5.8574,-5.8281,-5.8125,-5.7969,-5.7519,-5.707,-5.6933,-5.6777,-5.6973,-5.7129,-5.7324,-5.7461,-5.7637,-5.7754,-5.7617,-5.7363,-5.7226,-5.7344,-5.7109,-5.5508,-5.498,-5.416,-5.3965,-5.4237,-5.4563,-5.4851,-5.4666,-5.4574,-5.4032,-5.3487,-5.3255,-5.3093,-5.2453,-5.1981,-5.1735,-5.1409,-5.0947,-5.089,-5.0898,-5.0898,-5.0898,-5.0898,-5.0531,-5.0123,-4.6301,-4.6305,-4.6289,-4.6289,-4.6289,-4.6289,-4.6289,-4.6289,-4.6289,-4.6562,-4.7207,-4.8301,-4.9375,-5.0215,-5.1035,-5.1367,-5.1367,-5.1387,-5.1387,-5.1387,-5.1387,-5.1387,-5.1387,-5.1387,-5.1387,-5.1465,-5.2383,-5.3398,-5.459,-5.5703,-5.6562,-5.6621,-5.6562,-5.6387,-5.5918,-5.6348,-5.6387,-5.5957,-5.6445,-5.6269,-5.584,-5.6152,-5.6269,-5.5488,-5.5137,-5.5039,-5.4668,-5.4297,-5.373,-5.3203,-5.291,-5.2187,-5.1758,-5.1836,-5.2207,-5.2891,-5.373,-5.4785,-5.5566,-5.6445,-5.7363,-5.7637,-5.7656,-5.7715,-5.7676,-5.7793,-5.8144,-5.8183,-5.8437,-5.8457,-5.789,-5.7441,-5.7422,-5.7324,-5.7246,-5.6992,-5.6836,-5.6758,-5.7012,-5.75,-5.7851,-5.8359,-5.8594,-5.9004,-5.9004,-5.8574,-5.8457,-5.8379,-5.8672,-5.8496,-5.707,-5.5996,-5.5176,-5.5323,-5.6022,-5.6198,-5.6263,-5.5973,-5.5461,-5.5714,-5.5566,-5.4606,-5.3906,-5.349,-5.2981,-5.2353,-5.1978,-5.1351,-5.0956,-5.0898,-5.0898,-5.0898,-5.0898,-5.0906,-5.0601,-4.6305,-4.6288,-4.6289,-4.6289,-4.6289,-4.6289,-4.6289,-4.6289,-4.6289,-4.6289,-4.6562,-4.8027,-4.916,-4.9922,-5.0996,-5.1172,-5.1289,-5.1348,-5.1367,-5.1387,-5.1387,-5.1387,-5.1387,-5.1387,-5.1523,-5.2129,-5.3086,-5.4082,-5.5156,-5.6113,-5.6621,-5.6621,-5.664,-5.666,-5.6699,-5.666,-5.6543,-5.664,-5.6797,-5.6621,-5.6582,-5.6601,-5.6504,-5.623,-5.5937,-5.5488,-5.5215,-5.4902,-5.4414,-5.3867,-5.3437,-5.2793,-5.2461,-5.2598,-5.2988,-5.3613,-5.4394,-5.5156,-5.5723,-5.6308,-5.664,-5.6719,-5.6621,-5.664,-5.6699,-5.6875,-5.7226,-5.7422,-5.7695,-5.7598,-5.7012,-5.6738,-5.6758,-5.6758,-5.6699,-5.666,-5.664,-5.668,-5.7226,-5.7812,-5.8359,-5.8945,-5.9433,-5.9883,-5.9746,-5.9355,-5.9199,-5.918,-5.9004,-5.8418,-5.7461,-5.6758,-5.6152,-5.6642,-5.7202,-5.7076,-5.6777,-5.6865,-5.6497,-5.7282,-5.7589,-5.6551,-5.562,-5.4858,-5.4289,-5.3503,-5.2453,-5.1679,-5.1331,-5.1033,-5.0898,-5.0898,-5.0898,-5.0914,-5.0947,-4.6306,-4.6289,-4.6289,-4.6289,-4.6289,-4.6289,-4.6289,-4.6289,-4.6289,-4.6289,-4.6562,-4.7246,-4.8008,-4.8262,-5.0547,-5.1152,-5.0723,-5.1035,-5.1328,-5.1387,-5.1387,-5.1387,-5.1465,-5.1601,-5.1894,-5.2656,-5.3594,-5.4433,-5.5547,-5.6289,-5.664,-5.6699,-5.6719,-5.6973,-5.7519,-5.7363,-5.7109,-5.7305,-5.7148,-5.6914,-5.6797,-5.6758,-5.6621,-5.6504,-5.6465,-5.6367,-5.6289,-5.6211,-5.5703,-5.5039,-5.4199,-5.3613,-5.3418,-5.3457,-5.3828,-5.4355,-5.5156,-5.5625,-5.6133,-5.6406,-5.6621,-5.6621,-5.6621,-5.6621,-5.664,-5.666,-5.6855,-5.6855,-5.7031,-5.7031,-5.666,-5.666,-5.666,-5.666,-5.664,-5.6621,-5.6621,-5.6797,-5.7148,-5.7656,-5.8144,-5.8691,-5.9238,-5.9492,-5.9473,-5.9199,-5.918,-5.9159,-5.8991,-5.8396,-5.7721,-5.731,-5.6862,-5.6647,-5.662,-5.6792,-5.669,-5.7,-5.7425,-5.7957,-5.8277,-5.8347,-5.7525,-5.6416,-5.5459,-5.4628,-5.3536,-5.2337,-5.1679,-5.137,-5.1033,-5.0898,-5.0898,-5.0906,-5.0925]},{"header":{"parameterUnit":"m.s-1","parameterCategory":1,"la1":31.0,"la2":29.5877,"lo1":-88.7671,"lo2":-86.6584,"dy":0.0162,"dx":0.0185,"nx":115,"ny":88,"refTime":"2023-03-02T06:00:00:Z","depth":0,"parameterNumber":3,"parameterNumberName":"V-component_of_WINDS"},"data":[0.0,0.0,0.0,0.0,0.0,0.0,0.0,0.0,0.0,0.0,0.0,0.0,0.0,0.0,0.0,0.0,0.0,0.0,0.0,0.0,0.0,0.0,0.0,0.0,0.0,0.0,0.0,0.0,0.0,0.0,0.0,0.0,0.0,0.0,0.0,0.0,0.0,0.0,0.0,0.0,0.0,0.0,0.0,0.0,0.0,0.0,0.0,0.0,0.0,0.0,0.0,0.0,0.0,0.0,0.0,0.0,0.0,0.0,0.0,0.0,0.0,0.0,0.0,0.0,0.0,0.0,0.0,0.0,0.0,0.0,0.0,0.0,0.0,0.0,0.0,0.0,0.0,0.0,0.0,0.0,0.0,0.0,0.0,0.0,0.0,0.0,0.0,0.0,0.0,0.0,0.0,0.0,0.0,0.0,0.0,0.0,0.0,0.0,0.0,0.0,0.0,0.0,0.0,0.0,0.0,0.0,0.0,0.0,0.0,0.0,0.0,0.0,0.0,0.0,0.0,0.0,0.0,0.0,0.0,0.0,0.0,0.0,0.0,0.0,0.0,0.0,0.0,0.0,0.0,0.0,0.0,0.0,0.0,0.0,0.0,0.0,0.0,0.0,0.0,0.0,0.0,0.0,0.0,0.0,0.0,0.0,0.0,0.0,0.0,0.0,0.0,0.0,0.0,0.0,0.0,0.0,0.0,0.0,0.0,0.0,0.0,0.0,0.0,0.0,0.0,0.0,0.0,0.0,0.0,0.0,0.0,0.0,0.0,0.0,0.0,0.0,0.0,0.0,0.0,0.0,0.0,0.0,0.0,0.0,0.0,0.0,0.0,0.0,0.0,0.0,0.0,0.0,0.0,0.0,0.0,0.0,0.0,0.0,0.0,0.0,0.0,0.0,0.0,0.0,0.0,0.0,0.0,0.0,0.0,0.0,0.0,0.0,0.0,0.0,0.0,0.0,0.0,0.0,0.0,0.0,0.0,0.0,0.0,0.0,0.0,0.0,0.0,0.0,0.0,0.0,0.0,0.0,0.0,0.0,0.0,0.0,0.0,0.0,0.0,0.0,0.0,0.0,0.0,0.0,0.0,0.0,0.0,0.0,0.0,0.0,0.0,0.0,0.0,0.0,0.0,0.0,0.0,0.0,0.0,0.0,0.0,0.0,0.0,0.0,0.0,0.0,0.0,0.0,0.0,0.0,0.0,0.0,0.0,0.0,0.0,0.0,0.0,0.0,0.0,0.0,0.0,0.0,0.0,0.0,0.0,0.0,0.0,0.0,0.0,0.0,0.0,0.0,0.0,0.0,0.0,0.0,0.0,0.0,0.0,0.0,0.0,0.0,0.0,0.0,0.0,0.0,0.0,0.0,0.0,0.0,0.0,0.0,0.0,0.0,0.0,0.0,0.0,0.0,0.0,0.0,0.0,0.0,0.0,0.0,0.0,0.0,0.0,0.0,0.0,0.0,0.0,0.0,0.0,0.0,0.0,0.0,0.0,0.0,0.0,0.0,0.0,0.0,0.0,0.0,0.0,0.0,0.0,0.0,0.0,0.0,0.0,0.0,0.0,0.0,0.0,0.0,0.0,0.0,0.0,0.0,0.0,0.0,0.0,0.0,0.0,0.0,0.0,0.0,0.0,0.0,0.0,0.0,0.0,0.0,0.0,0.0,0.0,0.0,0.0,0.0,0.0,0.0,0.0,0.0,0.0,0.0,0.0,0.0,0.0,0.0,0.0,0.0,0.0,0.0,0.0,0.0,0.0,0.0,0.0,0.0,0.0,0.0,0.0,0.0,0.0,0.0,0.0,0.0,0.0,0.0,0.0,0.0,0.0,0.0,0.0,0.0,0.0,0.0,0.0,0.0,0.0,0.0,0.0,0.0,0.0,0.0,0.0,0.0,0.0,0.0,0.0,0.0,0.0,0.0,0.0,0.0,0.0,0.0,0.0,0.0,0.0,0.0,0.0,0.0,0.0,0.0,0.0,0.0,0.0,0.0,0.0,0.0,0.0,0.0,0.0,0.0,0.0,0.0,0.0,0.0,0.0,0.0,0.0,0.0,0.0,0.0,0.0,0.0,0.0,0.0,0.0,0.0,0.0,0.0,0.0,0.0,0.0,0.0,0.0,0.0,0.0,0.0,0.0,0.0,0.0,0.0,0.0,0.0,0.0,0.0,0.0,0.0,0.0,0.0,0.0,0.0,0.0,0.0,0.0,0.0,0.0,0.0,0.0,0.0,0.0,0.0,0.0,0.0,0.0,0.0,0.0,0.0,0.0,0.0,0.0,0.0,0.0,0.0,0.0,0.0,0.0,0.0,0.0,0.0,0.0,0.0,0.0,0.0,0.0,0.0,0.0,0.0,0.0,0.0,0.0,0.0,0.0,0.0,0.0,0.0,0.0,0.0,0.0,0.0,0.0,0.0,0.0,0.0,0.0,0.0,0.0,0.0,0.0,0.0,0.0,0.0,0.0,0.0,0.0,0.0,0.0,0.0,0.0,0.0,0.0,0.0,0.0,0.0,0.0,0.0,0.0,0.0,0.0,0.0,0.0,0.0,0.0,0.0,0.0,0.0,0.0,0.0,0.0,0.0,0.0,0.0,0.0,0.0,0.0,0.0,0.0,0.0,0.0,0.0,0.0,0.0,0.0,0.0,0.0,0.0,0.0,0.0,0.0,0.0,0.0,0.0,0.0,0.0,0.0,0.0,0.0,0.0,0.0,0.0,0.0,0.0,0.0,0.0,0.0,0.0,0.0,0.0,0.0,0.0,0.0,0.0,0.0,0.0,0.0,0.0,0.0,0.0,0.0,0.0,0.0,0.0,0.0,0.0,0.0,0.0,0.0,0.0,0.0,0.0,0.0,0.0,0.0,0.0,0.0,0.0,0.0,0.0,0.0,0.0,0.0,0.0,0.0,0.0,0.0,0.0,0.0,0.0,0.0,0.0,0.0,0.0,0.0,0.0,0.0,0.0,0.0,0.0,0.0,0.0,0.0,0.0,0.0,0.0,0.0,0.0,0.0,0.0,0.0,0.0,0.0,0.0,0.0,0.0,0.0,0.0,0.0,0.0,0.0,0.0,0.0,0.0,0.0,0.0,0.0,0.0,0.0,0.0,0.0,0.0,0.0,0.0,0.0,0.0,0.0,0.0,0.0,0.0,0.0,0.0,0.0,0.0,0.0,0.0,0.0,0.0,0.0,0.0,0.0,0.0,0.0,0.0,0.0,0.0,0.0,0.0,0.0,0.0,0.0,0.0,0.0,0.0,0.0,0.0,0.0,0.0,0.0,0.0,0.0,0.0,0.0,0.0,0.0,0.0,0.0,0.0,0.0,0.0,0.0,0.0,0.0,0.0,0.0,0.0,0.0,0.0,0.0,0.0,0.0,0.0,0.0,0.0,0.0,0.0,0.0,0.0,0.0,0.0,0.0,0.0,0.0,0.0,0.0,0.0,0.0,0.0,0.0,0.0,0.0,0.0,0.0,0.0,0.0,0.0,0.0,0.0,0.0,0.0,0.0,0.0,0.0,0.0,0.0,0.0,0.0,0.0,0.0,0.0,0.0,0.0,0.0,0.0,0.0,0.0,0.0,0.0,0.0,0.0,0.0,0.0,0.0,0.0,0.0,0.0,0.0,0.0,0.0,0.0,0.0,0.0,0.0,0.0,0.0,0.0,0.0,0.0,0.0,0.0,0.0,0.0,0.0,0.0,0.0,0.0,0.0,0.0,0.0,0.0,0.0,0.0,0.0,0.0,0.0,0.0,0.0,0.0,0.0,0.0,0.0,0.0,0.0,0.0,0.0,0.0,0.0,0.0,0.0,0.0,0.0,0.0,0.0,0.0,0.0,0.0,0.0,0.0,0.0,0.0,0.0,0.0,0.0,0.0,0.0,0.0,0.0,0.0,0.0,0.0,0.0,0.0,0.0,0.0,0.0,0.0,0.0,0.0,0.0,0.0,0.0,0.0,0.0,0.0,0.0,0.0,0.0,0.0,0.0,0.0,0.0,0.0,0.0,0.0,0.0,0.0,0.0,0.0,0.0,0.0,0.0,0.0,0.0,0.0,0.0,0.0,0.0,0.0,0.0,0.0,0.0,0.0,0.0,0.0,0.0,0.0,0.0,0.0,0.0,0.0,0.0,0.0,0.0,0.0,0.0,0.0,0.0,0.0,0.0,0.0,0.0,0.0,0.0,0.0,0.0,0.0,0.0,0.0,0.0,0.0,0.0,0.0,0.0,0.0,0.0,0.0,0.0,0.0,0.0,0.0,0.0,0.0,0.0,0.0,-0.3141,0.0,0.0,0.0,0.0,0.0,0.0,0.0,0.0,0.0,0.0,0.0,0.0,0.0,0.0,0.0,0.0,0.0,0.0,0.0,0.0,0.0,0.0,0.0,0.0,0.0,0.0,0.0,0.0,0.0,0.0,0.0,0.0,0.0,0.0,0.0,0.0,0.0,0.0,0.0,0.0,0.0,0.0,0.0,0.0,0.0,0.0,0.0,0.0,0.0,0.0,0.0,0.0,0.0,0.0,0.0,0.0,0.0,0.0,0.0,0.0,0.0,0.0,0.0,0.0,0.0,0.0,0.0,0.0,0.0,0.0,0.0,0.0,0.0,0.0,0.0,0.0,0.0,0.0,0.0,0.0,0.0,0.0,0.0,0.0,0.0,0.0,0.0,0.0,0.0,0.0,0.0,0.0,0.0,0.0,0.0,0.0,0.0,0.0,0.0,0.0,0.0,0.0,0.0,0.0,0.0,0.0,0.0,0.0,0.0,0.0,-0.2913,-0.3155,-0.2772,-0.2769,-0.3188,0.0,0.0,0.0,0.0,0.0,0.0,0.0,0.0,0.0,0.0,0.0,0.0,0.0,0.0,0.0,0.0,0.0,0.0,0.0,0.0,0.0,0.0,0.0,0.0,0.0,0.0,0.0,0.0,0.0,0.0,0.0,0.0,0.0,0.0,0.0,0.0,0.0,0.0,0.0,0.0,0.0,0.0,0.0,0.0,0.0,0.0,0.0,0.0,0.0,0.0,0.0,0.0,0.0,0.0,0.0,0.0,0.0,0.0,0.0,0.0,0.0,0.0,0.0,0.0,0.0,0.0,0.0,0.0,0.0,0.0,0.0,0.0,0.0,0.0,0.0,0.0,0.0,0.0,0.0,0.0,0.0,0.0,0.0,0.0,0.0,0.0,0.0,0.0,0.0,0.0,0.0,0.0,0.0,0.0,0.0,0.0,0.0,0.0,0.0,0.0,0.0,0.0,0.0,0.0,0.0,0.0,0.0,0.0,0.0,0.0,0.0,0.0,-0.2449,-0.2369,-0.2891,0.0,0.0,0.0,0.0,0.0,0.0,0.0,0.0,0.0,0.0,0.0,0.0,0.0,0.0,0.0,0.0,0.0,0.0,0.0,0.0,0.0,0.0,0.0,0.0,0.0,0.0,0.0,0.0,0.0,0.0,0.0,0.0,0.0,0.0,0.0,0.0,0.0,0.0,0.0,0.0,0.0,0.0,0.0,0.0,0.0,0.0,0.0,0.0,0.0,0.0,0.0,0.0,0.0,0.0,0.0,0.0,0.0,0.0,0.0,0.0,0.0,0.0,0.0,0.0,0.0,0.0,0.0,0.0,0.0,0.0,0.0,0.0,0.0,0.0,0.0,0.0,0.0,0.0,0.0,0.0,0.0,0.0,0.0,0.0,0.0,0.0,0.0,0.0,0.0,0.0,0.0,0.0,0.0,0.0,0.0,0.0,0.0,0.0,0.0,0.0,0.0,0.0,0.0,0.0,0.0,0.0,0.0,0.0,0.0,0.0,-0.2418,-0.2456,-0.2108,0.0,-0.2107,0.0,0.0,0.0,0.0,0.0,0.0,0.0,0.0,0.0,0.0,0.0,0.0,0.0,0.0,0.0,0.0,0.0,0.0,0.0,0.0,0.0,0.0,0.0,0.0,0.0,0.0,0.0,0.0,0.0,0.0,0.0,0.0,0.0,0.0,0.0,0.0,0.0,0.0,0.0,0.0,0.0,0.0,0.0,0.0,0.0,0.0,0.0,0.0,0.0,0.0,0.0,0.0,0.0,0.0,0.0,0.0,0.0,0.0,0.0,0.0,0.0,0.0,0.0,0.0,0.0,0.0,0.0,0.0,0.0,0.0,0.0,0.0,0.0,0.0,0.0,0.0,0.0,0.0,0.0,0.0,0.0,0.0,0.0,0.0,0.0,0.0,0.0,0.0,0.0,0.0,0.0,0.0,0.0,0.0,0.0,0.0,0.0,0.0,0.0,0.0,0.0,0.0,0.0,0.0,0.0,0.0,0.0,0.0,0.0,0.0,-0.1951,-0.1748,-0.1949,-0.2022,0.0,0.0,0.0,0.0,0.0,0.0,0.0,0.0,0.0,0.0,0.0,0.0,0.0,0.0,0.0,0.0,0.0,0.0,0.0,0.0,0.0,0.0,0.0,0.0,0.0,0.0,0.0,0.0,0.0,0.0,0.0,0.0,0.0,0.0,0.0,0.0,0.0,0.0,0.0,0.0,0.0,0.0,0.0,0.0,0.0,0.0,0.0,0.0,0.0,0.0,0.0,0.0,0.0,0.0,0.0,0.0,0.0,0.0,0.0,0.0,0.0,0.0,0.0,0.0,0.0,0.0,0.0,0.0,0.0,0.0,0.0,0.0,0.0,0.0,0.0,0.0,0.0,0.0,0.0,0.0,0.0,0.0,0.0,0.0,0.0,0.0,0.0,0.0,0.0,0.0,0.0,0.0,0.0,0.0,0.0,0.0,0.0,0.0,0.0,0.0,0.0,0.0,0.0,0.0,0.0,0.0,0.0,0.0,0.0,0.0,-0.1407,-0.1302,-0.1028,-0.137,-0.1584,-0.1626,0.0,0.0,0.0,0.0,0.0,0.0,0.0,0.0,0.0,0.0,0.0,0.0,0.0,0.0,0.0,0.0,0.0,0.0,0.0,0.0,0.0,0.0,0.0,0.0,0.0,0.0,0.0,0.0,0.0,0.0,0.0,0.0,0.0,0.0,0.0,0.0,0.0,0.0,0.0,0.0,0.0,0.0,0.0,0.0,0.0,0.0,0.0,0.0,0.0,0.0,0.0,0.0,0.0,0.0,0.0,0.0,0.0,0.0,0.0,0.0,0.0,0.0,0.0,0.0,0.0,0.0,0.0,0.0,0.0,0.0,0.0,0.0,0.0,0.0,0.0,0.0,0.0,0.0,0.0,0.0,0.0,0.0,0.0,0.0,0.0,0.0,0.0,0.0,0.0,0.0,0.0,0.0,0.0,0.0,0.0,0.0,0.0,0.0,0.0,0.0,0.0,0.0,0.0,0.0,0.0,0.0,0.0,0.0,-0.0838,-0.0654,-0.0452,-0.0258,-0.0132,-0.0458,0.0,0.0,0.0,0.0,0.0,0.0,0.0,0.0,0.0,0.0,0.0,0.0,0.0,0.0,0.0,0.0,0.0,0.0,0.0,0.0,0.0,0.0,0.0,0.0,0.0,0.0,0.0,0.0,0.0,0.0,0.0,0.0,0.0,0.0,0.0,0.0,0.0,0.0,0.0,0.0,0.0,0.0,0.0,0.0,0.0,0.0,0.0,0.0,0.0,0.0,0.0,0.0,0.0,0.0,0.0,0.0,0.0,0.0,0.0,0.0,0.0,0.0,0.0,0.0,0.0,0.0,0.0,0.0,0.0,0.0,0.0,0.0,0.0,0.0,0.0,0.0,0.0,0.0,0.0,0.0,0.0,0.0,0.0,0.0,0.0,0.0,0.0,0.0,0.0,0.0,0.0,0.0,0.0,0.0,0.0,0.0,0.0,0.0,0.0,0.0,0.0,0.0,0.0,0.0,0.0,0.0,0.0,0.0,0.0,-0.0191,-0.0032,0.0063,0.0097,-0.0352,-0.0598,0.0,0.0,0.0,0.0,0.0,0.0,0.0,0.0,0.0,0.0,0.0,0.0,0.0,0.0,0.0,0.0,0.0,0.0,0.0,0.0,0.0,0.0,0.0,0.0,0.0,0.0,0.0,0.0,0.0,0.0,0.0,0.0,0.0,0.0,0.0,0.0,0.0,0.0,0.0,0.0,0.0,0.0,0.0,0.0,0.0,0.0,0.0,0.0,0.0,0.0,0.0,0.0,0.0,0.0,0.0,0.0,0.0,0.0,0.0,0.0,0.0,0.0,0.0,0.0,0.0,0.0,0.0,0.0,0.0,0.0,0.0,0.0,0.0,0.0,0.0,0.0,0.0,0.0,0.0,0.0,0.0,0.0,0.0,0.0,0.0,0.0,0.0,0.0,0.0,0.0,0.0,0.0,0.0,0.0,0.0,0.0,0.0,0.0,0.0,0.0,0.0,0.0,0.0,0.0,0.0,0.0,0.0,0.0,0.0,0.0274,0.0,0.0404,0.0282,-0.0279,-0.0522,0.0,0.0,0.0,0.0,0.0,0.0,0.0,0.0,0.0,0.0,0.0,0.0,0.0,0.0,0.0,0.0,0.0,0.0,0.0,0.0,0.0,0.0,0.0,0.0,0.0,0.0,0.0,0.0,0.0,0.0,0.0,0.0,0.0,0.0,0.0,0.0,0.0,0.0,0.0,0.0,0.0,0.0,0.0,0.0,0.0,0.0,0.0,0.0,0.0,0.0,0.0,0.0,0.0,0.0,0.0,0.0,0.0,0.0,0.0,0.0,0.0,0.0,0.0,0.0,0.0,0.0,0.0,0.0,0.0,0.0,0.0,0.0,0.0,0.0,0.0,0.0,0.0,0.0,0.0,0.0,0.0,0.0,0.0,0.0,0.0,0.0,0.0,0.0,0.0,0.0,0.0,0.0,0.0,0.0,0.0,0.0,0.0,0.0,0.0,0.0,0.0,0.0,0.0,0.0,0.0,0.0,0.0,0.0,-0.0059,0.0471,0.0607,0.0577,0.0325,0.0273,-0.0122,0.0,0.0,0.0,0.0,0.0,0.0,0.0,0.0,0.0,0.0,0.0,0.0,0.0,0.0,0.0,0.0,0.0,0.0,0.0,0.0,0.0,0.0,0.0,0.0,0.0,0.0,0.0,0.0,0.0,0.0,0.0,0.0,0.0,0.0,0.0,0.0,0.0,0.0,0.0,0.0,0.0,0.0,0.0,0.0,0.0,0.0,0.0,0.0,0.0,0.0,0.0,0.0,0.0,0.0,0.0,0.0,0.0,0.0,0.0,0.0,0.0,0.0,0.0,0.0,0.0,0.0,0.0,0.0,0.0,0.0,0.0,0.0,0.0,0.0,0.0,0.0,0.0,0.0,0.0,0.0,0.0,0.0,0.0,0.0,0.0,0.0,0.0,0.0,0.0,0.0,0.0,0.0,0.0,0.0,0.0,0.0,0.0,0.0,0.0,0.0,0.0,0.0,0.0,0.0,0.0,0.0,0.0,0.0,0.0,0.0285,0.0431,0.0646,0.0969,0.0323,-0.0119,0.0,0.0,0.0,0.0,0.0,0.0,0.0,0.0,0.0,0.0,0.0,0.0,0.0,0.0,0.0,0.0,0.0,0.0,0.0,0.0,0.0,0.0,0.0,0.0,0.0,0.0,0.0,0.0,0.0,0.0,0.0,0.0,0.0,0.0,0.0,0.0,0.0,0.0,0.0,0.0,0.0,0.0,0.0,0.0,0.0,0.0,0.0,0.0,0.0,0.0,0.0,0.0,0.0,0.0,0.0,0.0,0.0,0.0,0.0,0.0,0.0,0.0,0.0,0.0,0.0,0.0,0.0,0.0,0.0,0.0,0.0,0.0,0.0,0.0,0.0,0.0,0.0,0.0,0.0,0.0,0.0,0.0,0.0,0.0,0.0,0.0,0.0,0.0,0.0,0.0,0.0,0.0,0.0,0.0,0.0,0.0,0.0,0.0,0.0,0.0,0.0,0.0,0.0,0.0,0.0,0.0,0.0,0.0,0.0,-0.003,0.0231,0.0615,0.1046,0.0293,-0.0088,0.0031,0.0,0.0,0.0,0.0,0.0,0.0,0.0,0.0,0.0,0.0,0.0,0.0,0.0,0.0,0.0,0.0,0.0,0.0,0.0,0.0,0.0,0.0,0.0,0.0,0.0,0.0,0.0,0.0,0.0,0.0,0.0,0.0,0.0,0.0,0.0,0.0,0.0,0.0,0.0,0.0,0.0,0.0,0.0,0.0,0.0,0.0,0.0,0.0,0.0,0.0,0.0,0.0,0.0,0.0,0.0,0.0,0.0,0.0,0.0,0.0,0.0,0.0,0.0,0.0,0.0,0.0,0.0,0.0,0.0,0.0,0.0,0.0,0.0,0.0,0.0,0.0,0.0,0.0,0.0,0.0,0.0,0.0,0.0,0.0,0.0,0.0,0.0,0.0,0.0,0.0,0.0,0.0,0.0,0.0,0.0,0.0,0.0,0.0,0.0,0.0,0.0,0.0,0.0,0.0,0.0,0.0,0.0,0.0,-0.0419,0.0092,0.0514,0.0778,0.0301,0.0058,0.0,0.0,0.0,0.0,0.0,0.0,0.0,0.0,0.0,0.0,0.0,0.0,0.0,0.0,0.0,0.0,0.0,0.0,0.0,0.0,0.0,0.0,0.0,0.0,0.0,0.0,0.0,0.0,0.0,0.0,0.0,0.0,0.0,0.0,0.0,0.0,0.0,0.0,0.0,0.0,0.0,0.0,0.0,0.0,0.0,0.0,0.0,0.0,0.0,0.0,0.0,0.0,0.0,0.0,0.0,0.0,0.0,0.0,0.0,0.0,0.0,0.0,0.0,0.0,0.0,0.0,0.0,0.0,0.0,0.0,0.0,0.0,0.0,0.0,0.0,0.0,0.0,0.0,0.0,0.0,0.0,0.0,0.0,0.0,0.0,0.0,0.0,0.0,0.0,0.0,0.0,0.0,0.0,0.0,0.0,0.0,0.0,0.0,0.0,0.0,0.0,0.0,0.0,0.0,0.0,0.0,0.0,0.0,0.0,-0.0763,-0.0201,0.0574,0.1457,0.0856,0.0621,0.0,0.0,0.0,0.0,0.0,0.0,0.0,0.0,0.0,0.0,0.0,0.0,0.0,0.0,0.0,0.0,0.0,0.0,0.0,0.0,0.0,0.0,0.0,0.0,0.0,0.0,0.0,0.0,0.0,0.0,0.0,0.0,0.0,0.0,0.0,0.0,0.0,0.0,0.0,0.0,0.0,0.0,0.0,0.0,0.0,0.0,0.0,0.0,0.0,0.0,0.0,0.0,0.0,0.0,0.0,0.0,0.0,0.0,0.0,0.0,0.0,0.0,0.0,0.0,0.0,0.0,0.0,0.0,0.0,0.0,0.0,0.0,0.0,0.0,0.0,0.0,0.0,0.0,0.0,0.0,0.0,0.0,0.0,0.0,0.0,0.0,0.0,0.0,0.0,0.0,0.0,0.0,0.0,0.0,0.0,0.0,0.0,0.0,0.0,0.0,0.0,0.0,0.0,0.0,0.0,0.0,0.0,0.0,-0.0524,-0.0615,-0.0213,0.0547,0.1729,0.1227,0.0976,0.0,0.0,0.0,0.0,0.0,0.0,0.0,0.0,0.0,0.0,0.0,0.0,0.0,0.0,0.0,0.0,0.0,0.0,0.0,0.0,0.0,0.0,0.0,0.0,0.0,0.0,0.0,0.0,0.0,0.0,0.0,0.0,0.0,0.0,0.0,0.0,0.0,0.0,0.0,0.0,0.0,0.0,0.0,0.0,0.0,0.0,0.0,0.0,0.0,0.0,0.0,0.0,0.0,0.0,0.0,0.0,0.0,0.0,0.0,0.0,0.0,0.0,0.0,0.0,0.0,0.0,0.0,0.0,0.0,0.0,0.0,0.0,0.0,0.0,0.0,0.0,0.0,0.0,0.0,0.0,0.0,0.0,0.0,0.0,0.0,0.0,0.0,0.0,0.0,0.0,0.0,0.0,0.0,0.0,0.0,0.0,0.0,0.0,0.0,0.0,0.0,0.0,0.0,0.0,0.0,0.0,0.0,0.0,-0.0171,-0.021,-0.0074,0.0498,0.1518,0.1381,0.1215,0.0,0.0,0.0,0.0,0.0,0.0,0.0,0.0,0.0,0.0,0.0,0.0,0.0,0.0,0.0,0.0,0.0,0.0,0.0,0.0,0.0,0.0,0.0,0.0,0.0,0.0,0.0,0.0,0.0,0.0,0.0,0.0,0.0,0.0,0.0,0.0,0.0,0.0,0.0,0.0,0.0,0.0,0.0,0.0,0.0,0.0,0.0,0.0,0.0,0.0,0.0,0.0,0.0,0.0,0.0,0.0,0.0,0.0,0.0,0.0,0.0,0.0,0.0,0.0,0.0,0.0,0.0,0.0,0.0,0.0,0.0,0.0,0.0,0.0,0.0,0.0,0.0,0.0,0.0,0.0,0.0,0.0,0.0,0.0,0.0,0.0,0.0,0.0,0.0,0.0,0.0,0.0,0.0,0.0,0.0,0.0,0.0,0.0,0.0,0.0,0.0,0.0,0.0,0.0,0.0,0.0,0.0,0.0,-0.0137,-0.035,-0.0113,0.0232,0.0725,0.1027,0.1326,0.0,0.0,0.0,0.0,0.0,0.0,0.0,0.0,0.0,0.0,0.0,0.0,0.0,0.0,0.0,0.0,0.0,0.0,0.0,0.0,0.0,0.0,0.0,0.0,0.0,0.0,0.0,0.0,0.0,0.0,0.0,0.0,0.0,0.0,0.0,0.0,0.0,0.0,0.0,0.0,0.0,0.0,0.0,0.0,0.0,0.0,0.0,0.0,-0.0243,0.0,0.0,0.0,0.0,0.0,0.0,0.0,0.0,0.0,0.0,0.0,0.0,0.0,0.0,0.0,0.0,0.0,0.0,0.0,0.0,0.0,0.0,0.0,0.0,0.0,0.0,0.0,0.0,0.0,0.0,0.0,0.0,0.0,0.0,0.0,0.0,0.0,0.0,0.0,0.0,0.0,0.0,0.0,0.0,0.0,0.0,0.0,0.0,0.0,0.0,0.0,0.0,0.0,0.0,0.0,0.0,0.0,0.0,0.0,0.0069,0.0,-0.0112,0.0077,0.0538,0.0608,0.0897,0.0,0.0,0.0,0.0,0.0,0.0,0.0,0.0,0.0,0.0,0.0,0.0,0.0,0.0,0.0,0.0,0.0,0.0,0.0,0.0,0.0,0.0,0.0,0.0,0.0,0.0,0.0,0.0,0.0,0.0,0.0,0.0,0.0,0.0,0.0,0.0,0.0,0.0,0.0,0.0,0.0,0.0,0.0,0.0,0.0,0.0,0.0,0.0,0.0,0.0,0.0,0.0,0.0,0.0,0.0,0.0,0.0,0.0,0.0,0.0,0.0,0.0,0.0,0.0,0.0,0.0,0.0,0.0,0.0,0.0,0.0,0.0,0.0,0.0,0.0,0.0,0.0,0.0,0.0,0.0,0.0,0.0,0.0,0.0,0.0,0.0,0.0,0.0,0.0,0.0,0.0,0.0,0.0,0.0,0.0,0.0,0.0,0.0,0.0,0.0,0.0,0.0,0.0,0.0,0.0,0.0,0.0,0.0531,0.0315,0.0319,-0.0074,-0.0077,0.039,0.0219,0.0315,0.0735,0.0,0.0,0.0,0.0,0.0,0.0,0.0,0.0,0.0,0.0,0.0,0.0,0.0,0.0,0.0,0.0,0.0,0.0,0.0,0.0,0.0,0.0,0.0,0.0,0.0,0.0,0.0,0.0,0.0,0.0,0.0,0.0,0.0,0.0,0.0,0.0,0.0,0.0,0.0,0.0863,0.0,0.0,0.0,0.0,0.0,0.0,0.0,0.0,0.0274,0.0,0.0,0.0,0.0,0.0,0.0,0.0,0.0,0.0,0.0,0.0,0.0,0.0,0.0,0.0,0.0,0.0,0.0,0.0,0.0,0.0,0.0,0.0,0.0,0.0,0.0,0.0,0.0,0.0,0.0,0.0,0.0,0.0,0.0,0.0,0.0,0.0,0.0,0.0,0.0,0.0,0.0,0.0,0.0,0.0,0.0,0.0,0.0,0.0,0.0,0.0,0.0,0.0,0.0,0.0,0.0,0.0461,0.0269,0.014,0.0075,-0.0154,-0.031,-0.0381,0.0036,0.035,0.0559,0.0,0.0,0.0,0.0,0.0,0.0,0.0,0.0,0.0,0.0,0.0,0.0,0.0,0.0,0.0,0.0,0.0,0.0,0.0,0.0,0.0,0.0,0.0,0.0,0.0,0.0,0.0,0.0,0.0,0.0,0.0,0.0,0.0,0.0,0.0,0.0,0.0,0.0,0.0,0.1466,0.1825,0.0,0.0,0.0,0.0,0.0,0.0,0.0,0.0,0.0127,0.0,0.0,0.0,0.0,0.0,0.0,0.0,0.0,0.0,0.0,0.0,0.0,0.0,0.0,0.0,0.0,0.0,0.0,0.0,0.0,0.0,0.0,0.0,0.0,0.0,0.0,0.0,0.0,0.0,0.0,0.0,0.0,0.0,0.0,0.0,0.0,0.0,0.0,0.0,0.0,0.0,0.0,0.0,0.0,0.0,0.0,0.0,0.0,0.0,0.0,0.0,0.0,0.0,0.0,0.0,0.0099,0.0206,0.018,0.0,-0.0194,-0.0349,-0.0416,0.0036,0.042,0.0,0.0,0.0,0.0,0.0,0.0,0.0,0.0,0.0,0.0,0.0,0.0,0.0,0.0,0.0,0.0,0.0,0.0,0.0,0.0,0.0,0.0,0.0,0.0,0.0,0.0,0.0,0.0,0.0,0.0,0.0,0.0,0.0,0.0,0.0,0.0,0.0,0.0,0.0,0.0,0.1041,0.1238,0.0989,0.0,0.0,0.0,0.0,0.0,0.0,0.0254,0.0031,0.0,0.0,0.0,0.0,0.0,0.0,0.0,0.0,0.0,0.0,0.0,0.0,0.0,0.0,0.0,0.0,0.0,0.0,0.0,0.0,0.0,0.0,0.0,0.0,0.0,0.0,0.0,0.0,0.0,0.0,0.0,0.0,0.0,0.0,0.0,0.0,0.0,0.0,0.0,0.0,0.0,0.0,0.0,0.0,0.0,0.0,0.0,0.0,0.0,0.0,0.0,0.0,0.0,0.0,0.0,-0.023,0.0035,0.0147,0.0,-0.0194,-0.0311,-0.0303,0.0251,0.0731,0.0,0.0,0.0,0.0,0.0,0.0,0.0,0.0,0.0,0.0,0.0,0.0,0.0,0.0,0.0,0.0,0.0,0.0,0.0,0.0,0.0,0.0,0.0,0.0,0.0,0.0,0.0,0.0,0.0,0.0,0.0,0.0,0.0,0.0,0.0,0.0,0.0,0.0,0.0,0.0,0.0,0.0605,0.0672,0.1253,0.0,0.0,0.0,0.0,0.101,0.0359,0.0,0.0,0.0,0.0,0.0,0.0,0.0,0.0,0.0,0.0,0.0,0.0,0.0,0.0,0.0,0.0,0.0,0.0,0.0,0.0,0.0,0.0,0.0,0.0,0.0,0.0,0.0,0.0,0.0,0.0,0.0,0.0,0.0,0.0,0.0,0.0,0.0,0.0,0.0,0.0,0.0,0.0,0.0,0.0,0.0,0.0,0.0,0.0,0.0,0.0,0.0,0.0,0.0,0.0,0.0,0.0,-0.0415,-0.0315,-0.0146,0.0,-0.0196,-0.0311,-0.0303,0.0914,0.1432,0.0,0.0,0.0,0.0,0.0,0.0,0.0,0.0,0.0,0.0,0.0,0.0,0.0,0.0,0.0,0.0,0.0,0.0,0.0,0.0,0.0,0.0,0.0,0.0,0.0,0.0,0.0,0.0,0.0,0.0,0.0,0.0,0.0,0.0,0.0,0.0,0.0,0.0,0.0,0.0,0.0,0.0672,0.0403,0.124,0.189,0.0,0.0,0.0,0.0902,-0.0073,0.0,0.0,0.0,0.0,0.0,0.0,0.0,0.0,0.0,0.0,0.0,0.0,0.0,0.0,0.0,0.0,0.0,0.0,0.0,0.0,0.0,0.0,0.0,0.0,0.0,0.0,0.0,0.0,0.0,0.0,0.0,0.0,0.0,0.0,0.0,0.0,0.0,0.0,0.0,0.0,0.0,0.0,0.0,0.0,0.0,0.0,0.0,0.0,0.0,0.0,0.0,0.0,0.0,0.0,0.0,-0.013,-0.0769,-0.0462,-0.0222,0.0,-0.0079,-0.0116,-0.0114,0.1156,0.17,0.0,0.0,0.0,0.0,0.0,0.0,0.0,0.0,0.0,0.0,0.0,0.0,0.0,0.0,0.0,0.0,0.0,0.0,0.0,0.0,0.0,0.0,0.0,0.0,0.0,0.0,0.0,0.0,0.0,0.0,0.0,0.0,0.0,0.0,0.0,0.0,0.0,0.0,0.0,0.0,0.0,0.0,-0.0168,0.0774,0.0,0.0,0.0,0.1139,0.1754,0.0,0.0,0.0,0.0,0.0,0.0,0.0,0.0,0.0,0.0,0.0,0.0,0.0,0.0,0.0,0.0,0.0,0.0,0.0,0.0,0.0,0.0,0.0,0.0,0.0,0.0,0.0,0.0,0.0,0.0,0.0,0.0,0.0,0.0,0.0,0.0,0.0,0.0,0.0,0.0,0.0,0.0,0.0,0.0,0.0,0.0,0.0,0.0,0.0,0.0,0.0,0.0,0.0,0.0,0.0,0.0,0.0,-0.099,-0.0541,-0.0187,0.0,0.0,0.0,0.0,0.1164,0.0,0.0,0.0,0.0,0.0,0.0,0.0,0.0,0.0,0.0,0.0,0.0,0.0,0.0,0.0,0.0,0.0,0.0,0.0,0.0,0.0,0.0,0.0,0.0,0.0,0.0,0.0,0.2055,0.0,0.0,0.0,0.0,0.0,0.0,0.0,0.0,0.0,0.0,0.0,0.0,0.0,0.0,-0.0607,-0.0269,0.0505,0.1145,0.0,0.0,0.1225,0.1896,0.0396,-0.0288,0.0,0.0,0.0,0.0,0.0,0.0,0.0,0.0,0.0,0.0,0.0,0.0,0.0,0.0,0.0,0.0,0.0,0.0,0.0,0.0,0.0,0.0,0.0,0.0,0.0,0.0,0.0,0.0,0.0,0.0,0.0,0.0,0.0,0.0,0.0,0.0,0.0,0.0,0.0,0.0,0.0,0.0,0.0,0.0,0.0,0.0,0.0,0.0,0.0,0.0,0.0,0.0,0.0,0.0,0.0,-0.1051,-0.0583,-0.0187,0.0,0.0,0.0,0.0,0.0755,0.1362,0.0,0.0,0.0,0.0,0.0,0.0,0.0,0.0,0.0,0.0,0.0,0.0,0.0,0.0,0.0,0.0,0.0,0.0,0.0,0.0,0.0,0.0,0.0,0.0,0.0,0.0,0.0,0.0,0.0,0.0,0.0,0.0,0.0,0.0,0.0,0.0,0.0,0.0,0.0,0.0,0.0,-0.0269,0.0336,0.0806,0.0916,0.0,0.0,0.0865,0.0422,-0.0542,-0.0716,0.0896,0.0,0.0,0.0,0.0,0.0,0.0,0.0,0.0,0.0,0.0,0.0,0.0,0.0,0.0,0.0,0.0,0.0,0.0,0.0,0.0,0.0,0.0,0.0,0.0,0.0,0.0,0.0,0.0,0.0,0.0,0.0,0.0,0.0,0.0,0.0,0.0,0.0,0.0,0.0,0.0,0.0,0.0,0.0,0.0,0.0,0.0,0.0,0.0,0.0,0.0,0.0,0.0,0.0,-0.0205,-0.0728,-0.0437,-0.0187,0.0,0.0,0.0,0.0,0.072,0.1296,0.0,0.0,0.0,0.0,0.0,0.0,0.0,0.0,0.0,0.0,0.0,0.0,0.0,0.0,0.0,0.0,0.0,0.0,0.0,0.0,0.0,0.0,0.0,0.0,0.0,0.0,0.0,0.0,0.091,0.057,0.0772,0.0,0.0,0.0,0.0,0.0,0.0,0.0,0.0,0.0,0.0,-0.0138,-0.031,0.0175,0.0,0.0,0.0368,0.0563,0.0938,0.0114,0.0077,0.1921,0.1707,0.0,0.0,0.0,0.0,0.0,0.0,0.0,0.0,0.0,0.0,0.0,0.0,0.0,0.0,0.0,0.0,0.0,0.0,0.0,0.0,0.0,0.0,0.0,0.0,0.0,0.0,0.0,0.0,0.0,0.0,0.0,0.0,0.0,0.0,0.0,0.0,0.0,0.0,0.0,0.0,0.0,0.0,0.0,0.0,0.0,0.0,0.0,0.0,0.0,0.0,0.0,0.0,-0.0035,-0.0405,-0.0293,-0.0149,0.0,0.0,0.0,0.0,0.0506,0.0985,0.0,0.0,0.0,0.0,0.0,0.0,0.0,0.0,0.0,0.0,0.0,0.0,0.0,0.0,0.0,0.0,0.0,0.0,0.0,0.0,0.0,0.0,0.0,0.0,0.0,0.0,0.0,0.0,0.0643,0.0302,0.0672,0.0,0.0,0.0,0.0,0.0,0.0,0.0,0.0,0.0,0.0,-0.0071,-0.0106,0.0252,0.0579,0.0789,0.0899,0.1148,0.1626,0.1202,0.1237,0.2315,0.0,0.0,0.0,0.0,0.0,0.0,0.0,0.0,0.0,0.0,0.0,0.0,0.0,0.0,0.0,0.0,0.0,0.0,0.0,0.0,0.0,0.0,0.0,0.0,0.0,0.0,0.0,0.0,0.0,0.0,0.0,0.0,0.0,0.0,0.0,0.0,0.0,0.0,0.0,0.0,0.0,0.0,0.0,0.0,0.0,0.0,0.0,0.0,0.0,0.0,0.0,0.0,0.0,0.0,-0.0189,-0.0074,0.0,0.0,0.0,0.0,0.0,0.0,0.0355,0.108,0.0,0.0,0.0,0.0,0.0,0.0,0.0,0.0,0.0,0.0,0.0,0.0,0.0,0.0,0.0,0.0,0.0,0.0,0.0,0.0,0.0,0.0,0.0,0.0,0.0,0.0,0.2152,0.1092,0.037,0.0,0.0,0.0,0.0,0.0,0.0,0.0,0.0,0.0,0.0,0.0537,-0.0036,0.1417,0.1382,0.1395,0.2023,0.2563,0.2755,0.2258,0.2645,0.2682,0.0,0.0,0.0,0.0,0.0,0.0,0.0,0.0,0.0,0.0,0.0,0.0,0.0,0.0,0.0,0.0,0.0,0.0,0.0,0.0,0.0,0.0,0.0,0.0,0.0,0.0,0.0,-0.037,-0.0278,0.0,0.0,0.0,0.0,0.0,0.0,0.0,0.0,0.0,0.0,0.0,0.0034,-0.0173,0.0,0.0,0.0,0.0,0.0,0.0,0.0,0.0,0.0,0.0,0.0,0.0,0.0525,0.0151,0.0037,0.0,0.0,0.0,0.0,0.0,0.0,0.0215,0.0692,0.0,0.0,0.0,0.0,0.0,0.0,0.0,0.0,0.0,0.0,0.0,0.0,0.0,0.0,0.0,0.0,0.0,0.0,0.0,0.0,0.0,0.0,0.0,0.0,0.0,0.1736,0.0,0.0,0.0,0.0,0.0,0.0,0.0,0.0,0.0,0.0,0.0,0.1663,0.1172,0.1606,0.2008,0.2042,0.2076,0.1901,0.0,0.0,0.0,0.0,0.0,0.0,0.0,0.0,0.0,0.0,0.0,0.0,0.0,0.0,0.551,0.6371,0.5572,0.4812,0.4977,0.0,0.0,0.0,0.0,0.0,0.0,0.0,0.0,0.0,0.0,0.0,0.0,0.0,0.0,0.0,0.0,0.013,0.0,0.0,0.0,0.0,0.0,0.0,0.0,0.0,-0.1048,-0.1034,-0.079,-0.0658,-0.0147,0.0,0.0923,0.1242,0.0,0.0,0.0,0.0,0.0,0.0,0.0,0.0,0.0752,0.042,0.015,0.0,0.0,0.0,0.0,0.0,0.0,0.0109,0.0324,0.0879,0.1224,0.0,0.0,0.0,0.0,0.0,0.0,0.0,0.0,0.0,0.0,0.0,0.0,0.0,0.0,0.0,0.0,0.0,0.0,0.0,0.0,0.0,0.0,0.0,0.1719,0.0,0.0,0.0,0.0,0.0,0.0,0.0,0.0,0.0,0.1799,0.1976,0.196,0.1389,0.1909,0.2509,0.2892,0.0,0.0,0.0,0.0,0.0,0.0,0.0,0.4604,0.5197,0.447,0.361,0.3039,0.3468,0.391,0.4069,0.0,0.0,0.5606,0.4648,0.3642,0.3681,0.3306,0.2858,0.2737,0.2497,0.2185,0.0,0.0,0.0,0.0,0.0,0.0,0.0,0.0,0.0574,0.0667,0.0,0.0635,0.0,0.0,0.0,0.0,0.0,0.0,0.0,0.0,-0.206,-0.2047,-0.1323,-0.1096,-0.0492,0.0455,0.0683,0.0862,0.1061,0.106,0.0,0.0,0.0,0.0,0.0,0.0,0.0972,0.0587,0.0192,0.0,0.0,0.0,0.0,0.0,0.0,0.0,0.0,0.019,0.046,0.0784,0.161,0.0,0.0,0.0,0.0,0.0,0.0,0.0,0.0,0.0,0.0,0.0,0.0,0.0,0.0,0.0,0.0,0.0,0.0,0.0,0.0,0.2276,0.0,0.0,0.0,0.0,0.0,0.0,0.0,0.0,0.0,0.0,0.2935,0.2665,0.245,0.2604,0.0,0.0,0.0,0.0,0.3585,0.6272,0.6598,0.656,0.6907,0.6146,0.4936,0.3468,0.0,0.0,0.1138,0.309,0.4435,0.3974,0.2341,0.2086,0.4761,0.4126,0.3472,0.3581,0.2726,0.2104,0.1721,0.1389,0.1352,0.1351,0.0,0.0,0.0,0.0,0.0996,0.077,0.0464,0.0436,0.0401,0.0399,0.0256,0.0,0.0,0.0,0.0,0.0,0.0,-0.0657,-0.1308,-0.1554,-0.1534,-0.1318,-0.1241,-0.0737,0.0117,0.0198,0.0278,0.0316,0.0316,0.0885,0.1972,0.0,0.0,0.0,0.0,0.0934,0.043,0.0115,0.0,0.0,0.0,0.0,0.0,0.0,0.0,0.0,0.0039,0.0278,0.0629,0.0892,0.0,0.0,0.0,0.0,0.0,0.0,0.0,0.0,0.0,0.0,0.0,0.0,0.0,0.0,0.0,0.0,0.0,0.0,0.0,0.2589,0.1989,0.2007,0.0,0.0,0.0,0.0,0.0,0.0,0.0,0.0,0.0,0.2274,0.3196,0.3749,0.0,0.0,0.4936,0.5654,0.4916,0.4327,0.437,0.0,0.0,0.0,0.3919,0.3973,0.4001,0.2825,0.1835,0.1655,0.0995,0.0394,0.0217,-0.0829,-0.1388,-0.0716,-0.0702,-0.0937,-0.0932,-0.1193,-0.1413,-0.1518,-0.1672,-0.1948,0.1324,0.132,0.1459,0.1363,0.1132,0.0933,0.066,0.0301,0.0229,0.0191,0.0152,0.0038,0.0113,0.0291,0.0218,0.0,0.0,0.0,-0.0414,-0.1284,-0.0934,-0.098,-0.1271,-0.0954,-0.0515,0.0,0.0,0.0,0.0,0.0162,0.0674,0.1544,0.0,0.0,0.1574,0.1249,0.0843,0.0318,0.0117,0.0,0.0,0.0,0.0,0.0,0.0,0.0,0.0,0.0,0.0122,0.0364,0.0544,0.0962,0.0,0.0,0.0,0.0,0.0,0.0,0.0,0.0,0.0,0.0,0.0,0.2046,0.0,0.0,0.0,0.0,0.1849,0.1979,0.2089,0.1977,0.0,0.0,0.0,0.0,0.0,0.0,0.0,0.3113,0.2413,0.1985,0.2292,0.3231,0.3687,0.3196,0.3778,0.4492,0.5071,0.0,0.3713,0.3634,0.388,0.3865,0.3313,0.2947,0.2735,0.2643,0.184,0.1014,0.0605,-0.0574,-0.1478,-0.1973,-0.2777,-0.3479,-0.3434,-0.3736,-0.3863,-0.3537,-0.3766,-0.4063,-0.4142,-0.4264,-0.4522,0.1064,0.0919,0.1211,0.1149,0.083,0.0568,0.0268,0.0,0.0,0.0,0.0,0.0,0.0115,0.0294,0.0404,0.0,0.0266,0.0266,-0.0234,-0.1137,-0.0366,-0.0408,-0.114,-0.0367,0.0,0.0,0.0,0.0,0.0,0.0364,0.0687,0.0911,0.0909,0.1066,0.1339,0.1103,0.0757,0.0366,0.0199,0.0,0.0,0.0,0.0,0.0,0.0,0.0,0.0,0.0,0.0,0.0,0.0429,0.0651,0.0649,0.0,0.0,0.0,0.0,0.0,0.0,0.0,0.0,0.0,0.0,0.0,0.0,0.0,0.0,0.0,0.1219,0.0,0.1258,0.1966,0.0,0.0,0.0,0.2347,0.1769,0.1608,0.1735,0.2249,0.0,0.0,0.2636,0.0,0.2585,0.1607,0.141,0.1878,0.3203,0.2614,0.2357,0.3559,0.3677,0.3736,0.3554,0.2565,0.1419,0.0446,-0.0083,-0.038,-0.1127,-0.1586,-0.201,-0.2822,-0.3762,-0.4387,-0.4389,-0.5048,-0.5432,-0.4537,-0.5078,-0.5727,-0.5888,-0.5897,-0.5855,0.0859,0.0673,0.0583,0.0531,0.0442,0.0376,0.0228,0.0,0.0,0.0,0.0,0.0,0.004,0.0079,0.0117,0.0116,0.0078,0.0079,-0.004,-0.0285,-0.0083,-0.0125,-0.0292,-0.0084,0.0,0.0,0.0,0.0,0.0,0.0083,0.0462,0.1017,0.1043,0.1312,0.1814,0.1612,0.1292,0.0934,0.0848,0.0561,0.0,0.0,0.0,0.0,0.0,0.0,0.0,0.0,0.0,0.0,0.0085,0.0302,0.0594,0.118,0.0,0.0,0.0,0.0,0.0,0.0,0.0,0.0,0.0,0.1782,0.2189,0.0,0.1669,0.0,0.1052,0.0657,0.0887,0.1139,0.0,0.0,0.2562,0.2669,0.2518,0.1949,0.1743,0.2146,0.166,0.1282,0.1341,0.1372,0.1159,0.0512,0.1801,0.3008,0.332,0.2539,0.1996,0.2245,0.1634,0.1001,0.0,0.0748,0.0358,0.0042,-0.0537,-0.1086,-0.1367,-0.2554,-0.3601,-0.397,-0.4748,-0.5285,-0.5324,-0.5599,-0.5633,-0.5429,-0.5536,-0.5777,-0.6038,-0.5952,-0.5866,0.0653,0.0454,0.0326,0.0238,0.0153,0.0156,0.0117,0.0,0.0,0.0,0.0,0.0,0.0,0.0,0.0,0.0,0.0,0.0,0.0,0.0,0.0,0.0,0.0,0.0,0.0,0.0,0.0,0.0,0.0,0.0,0.0211,0.0591,0.0589,0.0956,0.1586,0.1886,0.1905,0.159,0.1284,0.073,0.0,0.0,0.0158,0.0478,0.0478,0.0641,0.0971,0.0993,0.0922,0.0797,0.078,0.0877,0.1127,0.1544,0.2036,0.0,0.0,0.0,0.0,0.0,0.0,0.0,0.0,0.0,0.0,0.0,0.1334,0.0,0.0996,0.0676,0.1239,0.1334,0.1469,0.1799,0.1902,0.1839,0.1599,0.1168,0.0991,0.1195,0.081,0.0508,0.0497,0.0491,0.0366,0.0041,0.1082,0.1861,0.1843,0.137,0.1061,0.0993,0.0479,0.0,0.0,-0.0353,-0.0593,-0.0648,-0.1261,-0.1974,-0.243,-0.3297,-0.4161,-0.4688,-0.5224,-0.5591,-0.5597,-0.561,-0.5623,-0.5675,-0.5688,-0.5733,-0.5863,-0.5777,-0.5733,0.0462,0.0253,0.0253,0.0167,0.0,0.0,0.0,0.0,0.0,0.0,0.0,0.0,0.0,0.0,0.0,0.0,0.0,0.0,0.0,0.0,0.0,0.0,0.0,0.0,0.0,0.0,0.0,0.0,0.0,0.0,0.0042,0.0124,0.0126,0.0504,0.1236,0.2096,0.2431,0.2206,0.1481,0.078,0.0158,0.0237,0.06,0.1222,0.1264,0.1564,0.2143,0.2184,0.208,0.1869,0.1858,0.179,0.1703,0.2068,0.2476,0.0,0.3189,0.0,0.0,0.0,0.0,0.0,0.0,0.0,0.0,0.0413,0.1062,0.1515,0.0977,0.0906,0.1613,0.1654,0.141,0.087,0.0785,0.0572,0.0045,0.0,0.0,0.0,0.0,0.0,0.0,0.0,0.0,0.0,0.0,0.0,0.0,0.0,0.0,0.0,0.0,0.0,0.0,-0.0708,-0.1256,-0.1341,-0.2074,-0.2912,-0.3676,-0.3969,-0.4388,-0.516,-0.5388,-0.5415,-0.5467,-0.5497,-0.5545,-0.5637,-0.5672,-0.5733,-0.5777,-0.5733,-0.5733,0.0249,0.0084,0.0042,0.0042,0.0,0.0,0.0,0.0,0.0,0.0,0.0,0.0,0.0,0.0,0.0,0.0,0.0,0.0,0.0,0.0,0.0,0.0,0.0,0.0,0.0,0.0,0.0,0.0,0.0,0.0,0.0305,0.0881,0.0885,0.1238,0.198,0.0,0.0,0.0,0.1447,0.1058,0.0928,0.148,0.183,0.2005,0.2005,0.0,0.2186,0.2195,0.2176,0.2127,0.2138,0.0,0.0,0.0,0.0,0.0,0.0,0.0,0.0,0.0,0.0,0.0,0.0506,0.0417,0.0421,0.0921,0.101,0.06,0.0735,0.0699,0.0399,0.0355,0.0311,0.0179,0.0,0.0134,0.0,0.0,0.0,0.0,0.0,0.0,0.0,0.0,0.0,0.0,0.0,0.0,0.0,0.0,0.0,0.0,0.0,0.0,0.0,0.0,-0.1301,-0.1481,-0.2619,-0.3559,-0.3868,-0.4469,-0.493,-0.5294,-0.5413,-0.5366,-0.5359,-0.548,-0.5464,-0.5494,-0.5621,-0.5777,-0.5949,-0.5866,-0.5819,0.0086,0.0,0.0,0.0,0.0,0.0,0.0,0.0,0.0,0.0,0.0,0.0,0.0,0.0,0.0,0.0,0.0,0.0,0.0,0.0,0.0,0.0,0.0,0.0,0.0,0.0,0.0,0.0,0.0,0.0,0.0179,0.0539,0.0544,0.0717,0.1087,0.1216,0.1426,0.1794,0.1337,0.0945,0.061,0.0904,0.1289,0.1639,0.0,0.0,0.0,0.0,0.0,0.0,0.0,0.0,0.0,0.0,0.0,0.1542,0.1658,0.1605,0.1389,0.1042,0.0698,0.0309,0.0219,0.026,0.0428,0.0562,0.0524,0.0177,0.0353,0.0311,0.0,0.0,0.0,0.0,0.0,0.0,0.0,0.0,0.0,0.0,0.0,0.0,0.0,0.0,0.0,0.0,0.0,0.0,0.0,0.0,0.0,0.0,0.0,0.0,0.0,-0.0712,-0.1494,-0.1944,-0.2958,-0.3714,-0.3833,-0.4214,-0.44,-0.4085,-0.3972,-0.3982,-0.408,-0.445,-0.4834,-0.494,-0.5339,-0.5727,-0.5863,-0.5822,-0.5774,0.0,0.0,0.0,0.0,0.0,0.0,0.0,0.0,0.0,0.0,0.0,0.0,0.0,0.0,0.0,0.0,0.0,0.0,0.0,0.0,0.0,0.0,0.0,0.0,0.0,0.0,0.0,0.0,0.0,0.0,0.0,0.0,0.0,0.0,0.0,0.0,0.0387,0.109,0.1112,0.0796,0.0206,0.0331,0.0668,0.1274,0.1297,0.1585,0.2191,0.2192,0.2105,0.1883,0.1883,0.1793,0.166,0.166,0.1704,0.1792,0.1798,0.1529,0.0943,0.0903,0.0635,0.0045,0.0,0.009,0.0263,0.0089,0.0,0.0,0.0,0.0,0.0,0.0,0.0,0.0,0.0,0.0,0.0,0.0,0.0,0.0,0.0,0.0,0.0,0.0,0.0,0.0,0.0,0.0,0.0,0.0,0.0,0.0,0.0,0.0,0.0,-0.0716,-0.1506,-0.2072,-0.294,-0.3559,-0.3585,-0.3581,-0.3262,-0.2788,-0.2504,-0.2606,-0.2733,-0.3546,-0.4088,-0.4254,-0.5017,-0.5688,-0.5688,-0.5688,-0.5733,0.0,0.0,0.0,0.0,0.0,0.0,0.0,0.0,0.0,0.0,0.0,0.0,0.0,0.0,0.0,0.0,0.0,0.0,0.0,0.0,0.0,0.0,0.0,0.0,0.0,0.0,0.0,0.0,0.0,0.0,0.0,0.0,0.0,0.0,0.0,0.0,0.0045,0.0223,0.0787,0.1036,0.0947,0.1577,0.1947,0.2042,0.2001,0.2097,0.2192,0.2193,0.2194,0.215,0.215,0.1881,0.1256,0.1212,0.0942,0.0359,0.0,0.0274,0.0,0.0,0.0095,0.0,0.0,0.0,0.0045,0.0,0.0,0.0,0.0,0.0,0.0,0.0,0.0,0.0,0.0,0.0,0.0,0.0,0.0,0.0,0.0,0.0,0.0,0.0,0.0,0.0,0.0,0.0,0.0,0.0,0.0,0.0,0.0,0.0,0.0,-0.07,-0.1242,-0.1415,-0.2196,-0.2712,-0.2668,-0.2701,-0.2605,-0.2477,-0.232,-0.2361,-0.2448,-0.3384,-0.3849,-0.4069,-0.488,-0.5591,-0.5644,-0.5688,-0.5822,0.0,0.0,0.0,0.0,0.0,0.0,0.0,0.0,0.0,0.0,0.0,0.0,0.0,0.0,0.0,0.0,0.0,0.0,0.0,0.0,0.0,0.0,0.0,0.0,0.0,0.0,0.0,0.0,0.0,0.0,0.0,0.0,0.0,0.0,0.0,0.0,0.0,0.0,0.0352,0.0478,0.0522,0.0834,0.1014,0.1014,0.1025,0.0987,0.0987,0.1031,0.0992,0.1002,0.1002,0.0866,0.0547,0.0507,0.0369,0.0,0.0,0.0,0.0,0.0,0.0,0.0,0.0,0.0,0.0,0.0,0.0,0.0,0.0,0.0,0.0,0.0,0.0,0.0,0.0,0.0,0.0,0.0,0.0,0.0,0.0,0.0,0.0,0.0,0.0,0.0,0.0,0.0,0.0,0.0,0.0,0.0,0.0,0.0,0.0,-0.0292,-0.0757,-0.1177,-0.1596,-0.1839,-0.1862,-0.1859,-0.1646,-0.1266,0.0,-0.1134,-0.1164,-0.1949,-0.2706,-0.35,-0.426,-0.4949,-0.551,-0.5777,-0.5994,0.0,0.0,0.0,0.0,0.0,0.0,0.0,0.0,0.0,0.0,0.0,0.0,0.0,0.0,0.0,0.0,0.0,0.0,0.0,0.0,0.0,0.0,0.0,0.0,0.0,0.0,0.0,0.0,0.0,0.0,0.0,0.0,0.0,0.0,0.0,0.0,0.0,0.0,0.0,0.0,0.0,0.0,0.0,0.0,0.0,0.0,0.0,0.0,0.0,0.0,0.0,0.0,0.0,0.0,0.0,0.0,0.0,0.0,0.0,0.0,0.0,0.0,0.0,0.0,0.0,0.0,0.0,0.0,0.0,0.0,0.0,0.0,0.0,0.0,0.0,0.0,0.0,0.0,0.0,0.0,0.0,0.0,0.0,0.0,0.0,0.0,0.0,0.0,0.0,0.0,0.0,0.0,0.0,0.0,0.0,0.0,0.0,-0.0939,-0.0983,-0.0981,-0.102,-0.1016,-0.0801,0.0,0.0,0.0,0.0,-0.0803,-0.1802,-0.2814,-0.3758,-0.461,-0.5508,-0.5911,-0.6041,0.0,0.0,0.0,0.0,0.0,0.0,0.0,0.0,0.0,0.0,0.0,0.0,0.0,0.0,0.0,0.0,0.0,0.0,0.0,0.0,0.0,0.0,0.0,0.0,0.0,0.0,0.0,0.0,0.0,0.0,0.0,0.0,0.0,0.0,0.0,0.0,0.0,0.0,0.0,0.0,0.0,0.0,0.0,0.0,0.0,0.0,0.0,0.0,0.0,0.0,0.0,0.0,0.0,0.0,0.0,0.0,0.0,0.0,0.0,0.0,0.0,0.0,0.0,0.0,0.0,0.0,0.0,0.0,0.0,0.0,0.0,0.0,0.0,0.0,0.0,0.0,0.0,0.0,0.0,0.0,0.0,0.0,0.0,0.0,0.0,0.0,0.0,0.0,0.0,0.0,0.0,0.0,0.0,0.0,0.0,0.0,0.0,0.0,0.0,0.0,0.0,0.0,0.0,0.0,0.0,0.0,0.0,-0.077,-0.1648,-0.2727,-0.3687,-0.4612,-0.5463,-0.5911,-0.5997,0.0,0.0,0.0,0.0,0.0,0.0,0.0,0.0,0.0,0.0,0.0,0.0,0.0,0.0,0.0,0.0,0.0,0.0,0.0,0.0,0.0,0.0,0.0,0.0,0.0,0.0,0.0,0.0,0.0,0.0,0.0,0.0,0.0,0.0,0.0,0.0,0.0,0.0,0.0,0.0,0.0,0.0,0.0,0.0,0.0,0.0,0.0,0.0,0.0,0.0,0.0,0.0,0.0,0.0,0.0,0.0,0.0,0.0,0.0,0.0,0.0,0.0,0.0,0.0,0.0,0.0,0.0,0.0,0.0,0.0,0.0,0.0,0.0,0.0,0.0,0.0,0.0,0.0,0.0,0.0,0.0,0.0,0.0,0.0,0.0,0.0,0.0,0.0,0.0,0.0,0.0,0.0,0.0,0.0,0.0,0.0,0.0,0.0,0.0,0.0,0.0,0.0,0.0,0.0,0.0,0.0,0.0,0.0,-0.0972,-0.2416,-0.4188,-0.5285,-0.5644,-0.5777,-0.5777,0.0,0.0,0.0,0.0,0.0,0.0,0.0,0.0,0.0,0.0,0.0,0.0,0.0,0.0,0.0,0.0,0.0,0.0,0.0,0.0,0.0,0.0,0.0,0.0,0.0,0.0,0.0,0.0,0.0,0.0,0.0,0.0,0.0,0.0,0.0,0.0,0.0,0.0,0.0,0.0,0.0,0.0,0.0,0.0,0.0,0.0,0.0,0.0,0.0,0.0,0.0,0.0,0.0,0.0,0.0,0.0,0.0,0.0,0.0,0.0,0.0,0.0,0.0,0.0,0.0,0.0,0.0,0.0,0.0,0.0,0.0,0.0,0.0,0.0,0.0,0.0,0.0,0.0,0.0,0.0,0.0,0.0,0.0,0.0,0.0,0.0,0.0,0.0,0.0,0.0,0.0,0.0,0.0,0.0,0.0,0.0,0.0,0.0,0.0,0.0,0.0,0.0,0.0,0.0,0.0,0.0,0.0,0.0,-0.0761,-0.2562,-0.4297,-0.5599,-0.5688,-0.5688,-0.5688,0.0,0.0,0.0,0.0,0.0,0.0,0.0,0.0,0.0,0.0,0.0,0.0,0.0,0.0,0.0,0.0,0.0,0.0,0.0,0.0,0.0,0.0,0.0,0.0,0.0,0.0,0.0,0.0,0.0,0.0,0.0,0.0,0.0,0.0,0.0,0.0,0.0,0.0,0.0,0.0,0.0,0.0,0.0,0.0,0.0,0.0,0.0,0.0,0.0,0.0,0.0,0.0,0.0,0.0,0.0,0.0,0.0,0.0,0.0,0.0,0.0,0.0,0.0,0.0,0.0,0.0,0.0,0.0,0.0,0.0,0.0,0.0,0.0,0.0,0.0,0.0,0.0,0.0,0.0,0.0,0.0,0.0,0.0,0.0,0.0,0.0,0.0,0.0,0.0,0.0,0.0,0.0,0.0,0.0,0.0,0.0,0.0,0.0,0.0,0.0,0.0,0.0,0.0,0.0,0.0,0.0,0.0,0.0,0.0,-0.2765,-0.4455,-0.551,-0.5688,-0.5688,-0.5688,0.0,0.0,0.0,0.0,0.0,0.0,0.0,0.0,0.0,0.0,0.0,0.0,0.0,0.0,0.0,0.0,0.0,0.0,0.0,0.0,0.0,0.0,0.0,0.0,0.0,0.0,0.0,0.0,0.0,0.0,0.0,0.0,0.0,0.0,0.0,0.0,0.0,0.0,0.0,0.0,0.0,0.0,0.0,0.0,0.0,0.0,0.0,0.0,0.0,0.0,0.0,0.0,0.0,0.0,0.0,0.0,0.0,0.0,0.0,0.0,0.0,0.0,0.0,0.0,0.0,0.0,0.0,0.0,0.0,0.0,0.0,0.0,0.0,0.0,0.0,0.0,0.0,0.0,0.0,0.0,0.0,0.0,0.0,0.0,0.0,0.0,0.0,0.0,0.0,0.0,0.0,0.0,0.0,0.0,0.0,0.0,0.0,0.0,0.0,0.0,0.0,0.0,0.0,0.0,0.0,0.0,0.0,0.0,-0.2644,-0.3315,-0.4971,-0.5555,-0.5688,-0.5688,-0.5688,0.0,0.0,0.0,0.0,0.0,0.0,0.0,0.0,0.0,0.0,0.0,0.0,0.0,0.0,0.0,0.0,0.0,0.0,0.0,0.0,0.0,0.0,0.0,0.0,0.0,0.0,0.0,0.0,0.0,0.0,0.0,0.0,0.0,0.0,0.0,0.0,0.0,0.0,0.0,0.0,0.0,0.0,0.0,0.0,0.0,0.0,0.0,0.0,0.0,0.0,0.0,0.0,0.0,0.0,0.0,0.0,0.0,0.0,0.0,0.0,0.0,0.0,0.0,0.0,0.0,0.0,0.0,0.0,0.0,0.0,0.0,0.0,0.0,0.0,0.0,0.0,0.0,0.0,0.0,0.0,0.0,0.0,0.0,0.0,0.0,0.0,0.0,0.0,0.0,0.0,0.0,0.0,0.0,0.0,0.0,0.0,0.0,0.0,0.0,0.0,0.0,0.0,-0.0449,-0.0629,-0.1032,-0.1615,-0.242,-0.3405,-0.3941,-0.4344,-0.4971,-0.5644,-0.5688,-0.5688,-0.5688,0.0,0.0,0.0,0.0,0.0,0.0,0.0,0.0,0.0,0.0,0.0,0.0,0.0,0.0,0.0,0.0,0.0,0.0,0.0,0.0,0.0,0.0,0.0,0.0,0.0,0.0,0.0,0.0,0.0,0.0,0.0,0.0,0.0,0.0,0.0,0.0,0.0,0.0,0.0,0.0,0.0,0.0,0.0,0.0,0.0,0.0,0.0,0.0,0.0,0.0,0.0,0.0,0.0,0.0,0.0,0.0,0.0,0.0,0.0,0.0,0.0,0.0,0.0,0.0,0.0,0.0,0.0,0.0,0.0,0.0,0.0,0.0,0.0,0.0,0.0,0.0,0.0,0.0,0.0,0.0,0.0,0.0,0.0,0.0,0.0,0.0,0.0,0.0,0.0,0.0,0.0,0.0,0.0,0.0,0.0,0.0,0.0,0.0,0.0,0.0,0.0,-0.0628,-0.1166,-0.1436,-0.2241,-0.2823,-0.3358,-0.4255,-0.4433,-0.4792,-0.5374,-0.5691,-0.5688,-0.5688,-0.5688,0.0,0.0,0.0,0.0,0.0,0.0,0.0,0.0,0.0,0.0,0.0,0.0,0.0,0.0,0.0,0.0,0.0,0.0,0.0,0.0,0.0,0.0,0.0,0.0,0.0,0.0,0.0,0.0,0.0,0.0,0.0,0.0,0.0,0.0,0.0,0.0,0.0,0.0,0.0,0.0,0.0,0.0,0.0,0.0,0.0,0.0,0.0,0.0,0.0,0.0,0.0,0.0,0.0,0.0,0.0,0.0,0.0,0.0,0.0,0.0,0.0,0.0,0.0,0.0,0.0,0.0,0.0,0.0,0.0,0.0,0.0,0.0,0.0,0.0,0.0,0.0,0.0,0.0,0.0,0.0,0.0,0.0,0.0,0.0,0.0,0.0,0.0,0.0,0.0,0.0,0.0,0.0,0.0,0.0,0.0,0.0,0.0,0.0,0.0,-0.041,-0.0771,-0.1487,-0.1934,-0.2566,-0.3373,-0.3961,-0.4542,-0.486,-0.5056,-0.5166,-0.5568,-0.5702,-0.5691,-0.5688,-0.5688,0.0,0.0,0.0,0.0,0.0,0.0,0.0,0.0,0.0,0.0,0.0,0.0,0.0,0.0,0.0,0.0,0.0,0.0,0.0,0.0,0.0,0.0,0.0,0.0,0.0,0.0,0.0,0.0,0.0,0.0,0.0,0.0,0.0,0.0,0.0,0.0,0.0,0.0,0.0,0.0,0.0,0.0,0.0,0.0,0.0,0.0,0.0,0.0,0.0,0.0,0.0,0.0,0.0,0.0,0.0,0.0,0.0,0.0,0.0,0.0,0.0,0.0,0.0,0.0,0.0,0.0,0.0,0.0,0.0,0.0,0.0,0.0,0.0,0.0,0.0,0.0,0.0,0.0,0.0,0.0,0.0,0.0,0.0,0.0,0.0,0.0,0.0,0.0,0.0,0.0,0.0,0.0,0.0,0.0,0.0,0.0,0.0,0.0,0.0,-0.0976,-0.125,-0.2424,-0.3229,-0.4021,-0.4804,-0.4993,-0.546,-0.5586,-0.5723,-0.5804,-0.5782,-0.5731,-0.5729,-0.5696,-0.5688,0.0,0.0,0.0,0.0,0.0,0.0,0.0,0.0,0.0,0.0,0.0,0.0,0.0,0.0,0.0,0.0,0.0,0.0,0.0,0.0,0.0,0.0,0.0,0.0,0.0,0.0,0.0,0.0,0.0,0.0,0.0,0.0,0.0,0.0,0.0,0.0,0.0,0.0,0.0,0.0,0.0,0.0,0.0,0.0,0.0,0.0,0.0,0.0,0.0,0.0,0.0,0.0,0.0,0.0,0.0,0.0,0.0,0.0,0.0,0.0,0.0,0.0,0.0,0.0,0.0,0.0,0.0,0.0,0.0,0.0,0.0,0.0,0.0,0.0,0.0,0.0,0.0,0.0,0.0,0.0,0.0,0.0,0.0,0.0,0.0,0.0,0.0,0.0,0.0,0.0,0.0,0.0,0.0,0.0,-0.0437,-0.0779,-0.1168,-0.1795,-0.1918,-0.2236,-0.2404,-0.3489,-0.4388,-0.5198,-0.5689,-0.5941,-0.6059,-0.6024,-0.6016,-0.5987,-0.5943,-0.5833,-0.5793,-0.5796,-0.5691,0.0,0.0,0.0,0.0,0.0,0.0,0.0,0.0,0.0,0.0,0.0,0.0,0.0,0.0,0.0,0.0,0.0,0.0,0.0,0.0,0.0,0.0,0.0,0.0,0.0,0.0,0.0,0.0,0.0,0.0,0.0,0.0,0.0,0.0,0.0,0.0,0.0,0.0,0.0,0.0,0.0,0.0,0.0,0.0,0.0,0.0,0.0,0.0,0.0,0.0,0.0,0.0,0.0,0.0,0.0,0.0,0.0,0.0,0.0,0.0,0.0,0.0,0.0,0.0,0.0,0.0,0.0,0.0,0.0,0.0,0.0,0.0,0.0,0.0,0.0,0.0,0.0,0.0,0.0,0.0,0.0,0.0,0.0,0.0,0.0,0.0,0.0,0.0,0.0,0.0,0.0,0.0,0.0,0.0,-0.094,-0.1341,-0.1891,-0.279,-0.3358,-0.3999,-0.4236,-0.4827,-0.5427,-0.6001,-0.5915,-0.6108,-0.6097,-0.607,-0.6098,-0.6154,-0.6031,-0.592,-0.5893,-0.5869,-0.5738,0.0,0.0,0.0,0.0,0.0,0.0,0.0,0.0,0.0,0.0,0.0,0.0,0.0,0.0,0.0,0.0,0.0,0.0,0.0,0.0,0.0,0.0,0.0,0.0,0.0,0.0,0.0,0.0,0.0,0.0,0.0,0.0,0.0,0.0,0.0,0.0,0.0,0.0,0.0,0.0,0.0,0.0,0.0,0.0,0.0,0.0,0.0,0.0,0.0,0.0,0.0,0.0,0.0,0.0,0.0,0.0,0.0,0.0,0.0,0.0,0.0,0.0,0.0,0.0,0.0,0.0,0.0,0.0,0.0,0.0,0.0,0.0,0.0,0.0,0.0,0.0,0.0,0.0,0.0,0.0,0.0,0.0,0.0,0.0,0.0,0.0,0.0,0.0,0.0,0.0,0.0,0.0,0.0,0.0,-0.1397,-0.1902,-0.2803,-0.3714,-0.4458,-0.521,-0.5394,-0.5787,-0.5941,-0.6181,-0.617,-0.6168,-0.6181,-0.6181,-0.6194,-0.6205,-0.6111,-0.6029,-0.6014,-0.5955,-0.5818,0.0,0.0,0.0,0.0,0.0,0.0,0.0,0.0,0.0,0.0,0.0,0.0,0.0,0.0,0.0,0.0,0.0,0.0,0.0,0.0,0.0,0.0,0.0,0.0,0.0,0.0,0.0,0.0,0.0,0.0,0.0,0.0,0.0,0.0,0.0,0.0,0.0,0.0,0.0,0.0,0.0,0.0,0.0,0.0,0.0,0.0,0.0,0.0,0.0,0.0,0.0,0.0,0.0,0.0,0.0,0.0,0.0,0.0,0.0,0.0,0.0,0.0,0.0,0.0,0.0,0.0,0.0,0.0,0.0,0.0,0.0,0.0,0.0,0.0,0.0,0.0,0.0,0.0,0.0,0.0,0.0,0.0,0.0,0.0,0.0,0.0,0.0,0.0,0.0,0.0,0.0,0.0,0.0,0.0,-0.1511,-0.2517,-0.3621,-0.4678,-0.5377,-0.5999,-0.5963,-0.6157,-0.6227,-0.6328,-0.6293,-0.6309,-0.6352,-0.6336,-0.6328,-0.6327,-0.6266,-0.6175,-0.6076,-0.5933,-0.585,0.0,0.0,0.0,0.0,0.0,0.0,0.0,0.0,0.0,0.0,0.0,0.0,0.0,0.0,0.0,0.0,0.0,0.0,0.0,0.0,0.0,0.0,0.0,0.0,0.0,0.0,0.0,0.0,0.0,0.0,0.0,0.0,0.0,0.0,0.0,0.0,0.0,0.0,0.0,0.0,0.0,0.0,0.0,0.0,0.0,0.0,0.0,0.0,0.0,0.0,0.0,0.0,0.0,0.0,0.0,0.0,0.0,0.0,0.0,0.0,0.0,0.0,0.0,0.0,0.0,0.0,0.0,0.0,0.0,0.0,0.0,0.0,0.0,0.0,0.0,0.0,0.0,0.0,0.0,0.0,0.0,0.0,0.0,0.0,0.0,0.0,0.0,0.0,0.0,0.0,0.0,0.0,0.0,0.0,-0.2217,-0.3272,-0.4427,-0.5281,-0.5934,-0.6384,-0.6349,-0.6388,-0.6391,-0.6399,-0.6404,-0.6426,-0.6423,-0.6407,-0.6333,-0.6401,-0.6414,-0.628,-0.6189,-0.6046,-0.5899,0.0,0.0,0.0,0.0,0.0,0.0,0.0,0.0,0.0,0.0,0.0,0.0,0.0,0.0,0.0,0.0,0.0,0.0,0.0,0.0,0.0,0.0,0.0,0.0,0.0,0.0,0.0,0.0,0.0,0.0,0.0,0.0,0.0,0.0,0.0,0.0,0.0,0.0,0.0,0.0,0.0,0.0,0.0,0.0,0.0,0.0,0.0,0.0,0.0,0.0,0.0,0.0,0.0,0.0,0.0,0.0,0.0,0.0,0.0,0.0,0.0,0.0,0.0,0.0,0.0,0.0,0.0,0.0,0.0,0.0,0.0,0.0,0.0,0.0,0.0,0.0,0.0,0.0,0.0,0.0,0.0,0.0,0.0,0.0,0.0,0.0,0.0,0.0,0.0,0.0,0.0,0.0,0.0,0.0,0.0,-0.4076,-0.5229,-0.5834,-0.6187,-0.6387,-0.6373,-0.6373,-0.6381,-0.6429,-0.6418,-0.6404,-0.6399,-0.6388,-0.6393,-0.638,-0.6388,-0.6374,-0.6294,-0.6144,-0.5988,0.005,0.0,0.0,0.0,0.0,0.0,0.0,0.0,0.0,0.0,0.0,0.0,0.0,0.0,0.0,0.0,0.0,0.0,0.0,0.0,0.0,0.0,0.0,0.0,0.0,0.0,0.0,0.0,0.0,0.0,0.0,0.0,0.0,0.0,0.0,0.0,0.0,0.0,0.0,0.0,0.0,0.0,0.0,0.0,0.0,0.0,0.0,0.0,0.0,0.0,0.0,0.0,0.0,0.0,0.0,0.0,0.0,0.0,0.0,0.0,0.0,0.0,0.0,0.0,0.0,0.0,0.0,0.0,0.0,0.0,0.0,0.0,0.0,0.0,0.0,0.0,0.0,0.0,0.0,0.0,0.0,0.0,0.0,0.0,0.0,0.0,0.0,0.0,0.0,0.0,0.0,0.0,0.0,0.0,0.0,-0.4678,-0.5882,-0.6134,-0.6387,-0.6387,-0.6387,-0.6387,-0.6384,-0.6368,-0.6357,-0.6401,-0.6396,-0.6391,-0.6404,-0.6379,-0.6415,-0.6405,-0.6328,-0.6192,-0.6094,0.0202,0.0,0.0,0.0,0.0,0.0,0.0,0.0,0.0,0.0,0.0,0.0,0.0,0.0,0.0,0.0,0.0,0.0,0.0,0.0,0.0,0.0,0.0,0.0,0.0,0.0,0.0,0.0,0.0,0.0,0.0,0.0,0.0,0.0,0.0,0.0,0.0,0.0,0.0,0.0,0.0,0.0,0.0,0.0,0.0,0.0,0.0,0.0,0.0,0.0,0.0,0.0,0.0,0.0,0.0,0.0,0.0,0.0,0.0,0.0,0.0,0.0,0.0,0.0,0.0,0.0,0.0,0.0,0.0,0.0,0.0,0.0,0.0,0.0,0.0,0.0,0.0,0.0,0.0,0.0,0.0,0.0,0.0,0.0,0.0,0.0,0.0,0.0,0.0,0.0,0.0,0.0,0.0,0.0,0.0,-0.5334,-0.6287,-0.6287,-0.6387,-0.6387,-0.6387,-0.6387,-0.6381,-0.6371,-0.6371,-0.6373,-0.6415,-0.6404,-0.6412,-0.6384,-0.6434,-0.6429,-0.6355,-0.6274,-0.6233,0.0254,0.0,0.0,0.0,0.0,0.0,0.0,0.0,0.0,0.0,0.0,0.0,0.0,0.0,0.0,0.0,0.0,0.0,0.0,0.0,0.0,0.0,0.0,0.0,0.0,0.0,0.0,0.0,0.0,0.0,0.0,0.0,0.0,0.0,0.0,0.0,0.0,0.0,0.0,0.0,0.0,0.0,0.0,0.0,0.0,0.0,0.0,0.0,0.0,0.0,0.0,0.0,0.0,0.0,0.0,0.0,0.0,0.0,0.0,0.0,0.0,0.0,0.0,0.0,0.0,0.0,0.0,0.0,0.0,0.0,0.0,0.0,0.0,0.0,0.0,0.0,0.0,0.0,0.0,0.0,0.0,0.0,0.0,0.0,0.0,0.0,0.0,0.0,0.0,0.0,0.0,0.0,-0.1412,-0.277,-0.4429,-0.5584,-0.6387,-0.6387,-0.6387,-0.6387,-0.6387,-0.6387,-0.6387,-0.6384,-0.6387,-0.6387,-0.6384,-0.642,-0.6381,-0.6387,-0.6384,-0.6429,-0.6404,-0.6366,-0.6314,0.0256,0.0,0.0,0.0,0.0,0.0,0.0,0.0,0.0,0.0,0.0,0.0,0.0,0.0,0.0,0.0,0.0,0.0,0.0,0.0,0.0,0.0,0.0,0.0,0.0,0.0,0.0,0.0,0.0,0.0,0.0,0.0,0.0,0.0,0.0,0.0,0.0,0.0,0.0,0.0,0.0,0.0,0.0,0.0,0.0,0.0,0.0,0.0,0.0,0.0,0.0,0.0,0.0,0.0,0.0,0.0,0.0,0.0,0.0,0.0,0.0,0.0,0.0,0.0,0.0,0.0,0.0,0.0,0.0,0.0,0.0,0.0,0.0,0.0,0.0,0.0,0.0,0.0,0.0,0.0,-0.0203,0.0,0.0,0.0,0.0,0.0,0.0,0.0,0.0,0.0,0.0,0.0,-0.2065,-0.3172,-0.4477,-0.5684,-0.6237,-0.6387,-0.6387,-0.6387,-0.6387,-0.6387,-0.6387,-0.6387,-0.6387,-0.6387,-0.6387,-0.6387,-0.6387,-0.6387,-0.6387,-0.6381,-0.6418,-0.6396,-0.6358,0.0259,0.0,0.0,0.0,0.0,0.0,0.0,0.0,0.0,0.0,0.0,0.0,0.0,0.0,0.0,0.0,0.0,0.0,0.0,0.0,0.0,0.0,0.0,0.0,0.0,0.0,0.0,0.0,0.0,0.0,0.0,0.0,0.0,0.0,0.0,0.0,0.0,0.0,0.0,0.0,0.0,0.0,0.0,0.0,0.0,0.0,0.0,0.0,0.0,0.0,0.0,0.0,0.0,0.0,0.0,0.0,0.0,0.0,0.0,0.0,0.0,0.0,0.0,0.0,0.0,0.0,0.0,0.0,0.0,0.0,0.0,0.0,0.0,0.0,0.0,0.0,0.0,-0.0258,-0.036,-0.0361,-0.031,-0.0205,0.0,0.0,0.0,0.0,0.0,0.0,0.0,0.0,0.0,0.0,-0.267,-0.3827,-0.4528,-0.5734,-0.6187,-0.6387,-0.6387,-0.6387,-0.6387,-0.6387,-0.6387,-0.6387,-0.6387,-0.6387,-0.6387,-0.6387,-0.6387,-0.6387,-0.6387,-0.6387,-0.6384,-0.6412,-0.6391,0.0105,0.0,0.0,0.0,0.0,0.0,0.0,0.0,0.0,0.0,0.0,0.0,0.0,0.0,0.0,0.0,0.0,0.0,0.0,0.0,0.0,0.0,0.0,0.0,0.0,0.0,0.0,0.0,0.0,0.0,0.0,0.0,0.0,0.0,0.0,0.0,0.0,0.0,0.0,0.0,0.0,0.0,0.0,0.0,0.0,0.0,0.0,0.0,0.0,0.0,0.0,0.0,0.0,0.0,0.0,0.0,0.0,0.0,0.0,0.0,0.0,0.0,0.0,0.0,0.0,0.0,0.0,0.0,0.0,0.0,0.0,0.0,0.0,0.0,0.0,0.0,0.0,0.0,-0.0367,-0.0368,-0.0369,-0.0314,0.0,0.0,0.0,0.0,0.0,0.0,0.0,0.0,0.0,0.0,-0.3073,-0.4431,-0.4983,-0.5737,-0.6187,-0.6387,-0.6387,-0.6387,-0.6387,-0.6387,-0.6387,-0.6387,-0.6387,-0.6387,-0.6387,-0.6387,-0.6387,-0.6387,-0.6387,-0.6387,-0.6387,-0.6384,-0.6418,0.0,0.0,0.0,0.0,0.0,0.0,0.0,0.0,0.0,0.0,0.0,0.0,0.0,0.0,0.0,0.0,0.0,0.0,0.0,0.0,0.0,0.0,0.0,0.0,0.0,0.0,0.0,0.0,0.0,0.0,0.0,0.0,0.0,0.0,0.0,0.0,0.0,0.0,0.0,0.0,0.0,0.0,0.0,0.0,0.0,0.0,0.0,0.0,0.0,0.0,0.0,0.0,0.0,0.0,0.0,0.0,0.0,0.0,0.0,0.0,0.0,0.0,0.0,0.0,0.0,0.0,0.0,0.0,0.0,0.0,0.0,0.0,0.0,0.0,0.0,0.0,0.0,0.0,-0.048,-0.0321,-0.0322,-0.0377,0.0,0.0,0.0,0.0,0.0,0.0,0.0,0.0,-0.1715,-0.2268,-0.3528,-0.4839,-0.5539,-0.5989,-0.6339,-0.6392,-0.6392,-0.6387,-0.6387,-0.6387,-0.6387,-0.6387,-0.6387,-0.6387,-0.6387,-0.6387,-0.6387,-0.6387,-0.6387,-0.6387,-0.6387,-0.6387,-0.6387,0.0,0.0,0.0,0.0,0.0,0.0,0.0,0.0,0.0,0.0,0.0,0.0,0.0,0.0,0.0,0.0,0.0,0.0,0.0,0.0,0.0,0.0,0.0,0.0,0.0,0.0,0.0,0.0,0.0,0.0,0.0,0.0,0.0,0.0,0.0,0.0,0.0,0.0,0.0,0.0,0.0,0.0,0.0,0.0,0.0,0.0,0.0,0.0,0.0,0.0,0.0,0.0,0.0,0.0,0.0,0.0,0.0,0.0,0.0,0.0,0.0,0.0,0.0,0.0,0.0,0.0,0.0,0.0,0.0,0.0,0.0,0.0,0.0,0.0,0.0,0.0,0.0,0.0,-0.0703,-0.0381,-0.0274,-0.0274,0.0,0.0,0.0,0.0,0.0,0.0,0.0,-0.1066,-0.2072,-0.2927,-0.4086,-0.5196,-0.6047,-0.6408,-0.6435,-0.6425,-0.6411,-0.6398,-0.6387,-0.6387,-0.6387,-0.6387,-0.6387,-0.6387,-0.6387,-0.6387,-0.6387,-0.6387,-0.6387,-0.6387,-0.6387,-0.6387,-0.6387,0.0156,0.0,0.0,0.0,0.0,0.0,0.0,0.0,0.0,0.0,0.0,0.0,0.0,0.0,0.0,0.0,0.0,0.0,0.0,0.0,0.0,0.0,0.0,0.0,0.0,0.0,0.0,0.0,0.0,0.0,0.0,0.0,0.0,0.0,0.0,0.0,0.0,0.0,0.0,0.0,0.0,0.0,0.0,0.0,0.0,0.0,0.0,0.0,0.0,0.0,0.0,0.0,0.0,0.0,0.0,0.0,0.0,0.0,0.0,0.0,0.0,0.0,0.0,0.0,0.0,0.0,0.0,0.0,0.0,0.0,0.0,0.0,0.0,0.0,0.0,0.0,0.0,0.0,0.0,0.0,0.0,-0.0167,0.0,0.0,0.0,0.0,0.0,0.0,0.0,-0.1434,-0.2504,-0.3469,-0.4544,-0.5475,-0.6342,-0.6497,-0.6497,-0.6465,-0.6435,-0.6414,-0.64,-0.6387,-0.6387,-0.6387,-0.6389,-0.6345,-0.6345,-0.6389,-0.6387,-0.6389,-0.6389,-0.6387,-0.6387,-0.6387,-0.6387,0.0412,0.0258,0.0261,0.0159,0.0,0.0,0.0,0.0,0.0,0.0,0.0,0.0,0.0,0.0,0.0,0.0,0.0,0.0,0.0,0.0,0.0,0.0,0.0,0.0,0.0,0.0,0.0,0.0,0.0,0.0,0.0,0.0,0.0,0.0,0.0,0.0,0.0,0.0,0.0,0.0,0.0,0.0,0.0,0.0,0.0,0.0,0.0,0.0,0.0,0.0,0.0,0.0,0.0,0.0,0.0,0.0,0.0,0.0,0.0,0.0,0.0,0.0,0.0,0.0,0.0,0.0,0.0,0.0,0.0,0.0,0.0,0.0,0.0,0.0,0.0,0.0,0.0,0.0,0.0,0.0,0.0,0.0,0.0,0.0,0.0,0.0,0.0,0.0,0.0,-0.2033,-0.317,-0.4102,-0.4981,-0.5827,-0.657,-0.6202,-0.593,-0.6524,-0.6489,-0.6438,-0.6416,-0.6411,-0.6398,-0.6387,-0.6342,-0.625,-0.6128,-0.6106,-0.6231,-0.6392,-0.6389,-0.6387,-0.6387,-0.6387,-0.6387,0.0809,0.0758,0.076,0.0465,0.0,0.0,0.0,0.0,0.0,0.0,0.0,0.0,0.0,0.0,0.0,0.0,0.0,0.0,0.0,0.0,0.0,0.0,0.0,0.0,0.0,0.0,0.0,0.0,0.0,0.0,0.0,0.0,0.0,0.0,0.0,0.0,0.0,0.0,0.0,0.0,0.0,0.0,0.0,0.0,0.0,0.0,0.0,0.0,0.0,0.0,0.0,0.0,0.0,0.0,0.0,0.0,0.0,0.0,0.0,0.0,0.0,0.0,0.0,0.0,0.0,0.0,0.0,0.0,0.0,0.0,0.0,0.0,0.0,0.0,0.0,0.0,0.0,0.0,0.0,0.0,0.0,0.0,0.0,0.0,0.0,0.0,0.0,0.0,0.0,-0.2069,-0.3069,-0.3636,-0.4372,-0.5349,-0.5785,-0.5468,-0.5442,-0.6152,-0.6613,-0.6532,-0.6497,-0.6489,-0.6462,-0.6419,-0.6095,-0.5795,-0.5765,-0.5733,-0.5736,-0.5737,-0.6297,-0.6387,-0.6387,-0.6387,-0.6387,0.096,0.0758,0.0606,0.0458,0.0257,0.0257,0.0156,0.0,0.0,0.0,0.0,0.0,0.0,0.0,0.0,0.0,0.0,0.0,0.0,0.0,0.0,0.0,0.0,0.0,0.0,0.0,0.0,0.0,0.0,0.0,0.0,0.0,0.0,0.0,0.0,0.0,0.0,0.0,0.0,0.0,0.0,0.0,0.0,0.0,0.0,0.0,0.0,0.0,0.0,0.0,0.0,0.0,0.0,0.0,0.0,0.0,0.0,0.0,0.0,0.0,0.0,0.0,0.0,0.0,0.0,0.0,0.0,0.0,0.0,0.0,0.0,0.0,0.0,0.0,0.0,0.0,0.0,0.0,0.0,0.0,0.0,0.0,0.0,0.0,0.0,0.0,0.0,0.0,0.0,-0.1352,-0.2155,-0.257,-0.3208,-0.436,-0.4972,-0.4811,-0.5339,-0.6194,-0.6616,-0.6733,-0.6695,-0.6532,-0.6597,-0.654,-0.5935,-0.538,-0.5291,-0.5187,-0.4918,-0.5024,-0.5925,-0.6422,-0.6387,-0.6387,-0.6387,0.1162,0.0909,0.0758,0.0556,0.0404,0.0303,0.0153,0.0,0.0,0.0,0.0,0.0,0.0,0.0,0.0,0.0,0.0,0.0,0.0,0.0,0.0,0.0,0.0,0.0,0.0,0.0,0.0,0.0,0.0,0.0,0.0,0.0,0.0,0.0,0.0,0.0,0.0,0.0,0.0,0.0,0.0,0.0,0.0,0.0,0.0,0.0,0.0,0.0,0.0,0.0,0.0,0.0,0.0,0.0,0.0,0.0,0.0,0.0,0.0,0.0,0.0,0.0,0.0,0.0,0.0,0.0,0.0,0.0,0.0,0.0,0.0,0.0,0.0,0.0,0.0,0.0,0.0,0.0,0.0,0.0,0.0,0.0,0.0,0.0,0.0,0.0,0.0,0.0,-0.0332,-0.0991,-0.1589,-0.2072,-0.2339,-0.3284,-0.4066,-0.44,-0.5099,-0.6169,-0.6388,-0.6437,-0.6524,-0.6307,-0.6508,-0.6537,-0.5822,-0.5235,-0.4902,-0.4682,-0.4597,-0.5139,-0.6202,-0.6481,-0.6416,-0.6416,-0.6497,0.1465,0.1212,0.1212,0.0859,0.0404,0.0151,0.0,0.0,0.0,0.0,0.0,0.0,0.0,0.0,0.0,0.0,0.0,0.0,0.0,0.0,0.0,0.0,0.0,0.0,0.0,0.0,0.0,0.0,0.0,0.0,0.0,0.0,0.0,0.0,0.0,0.0,0.0,0.0,0.0,0.0,0.0,0.0,0.0,0.0,0.0,0.0,0.0,0.0,0.0,0.0,0.0,0.0,0.0,0.0,0.0,0.0,0.0,0.0,0.0,0.0,0.0,0.0,0.0,0.0,0.0,0.0,0.0,0.0,0.0,0.0,0.0,0.0,0.0,0.0,0.0,0.0,0.0,0.0,0.0,0.0,0.0,0.0,0.0,0.0,0.0,0.0,0.0,0.0,-0.0507,-0.0781,-0.1391,-0.1944,-0.222,-0.2283,-0.2846,-0.3397,-0.4159,-0.5013,-0.5602,-0.5773,-0.5868,-0.6105,-0.6304,-0.6207,-0.5618,-0.5036,-0.4554,-0.4405,-0.45,-0.527,-0.6114,-0.6505,-0.6449,-0.6551,-0.6608,0.1465,0.1212,0.101,0.0707,0.0404,0.0101,0.0,0.0,0.0,0.0,0.0,0.0,0.0,0.0,0.0,0.0,0.0,0.0,0.0,0.0,0.0,0.0,0.0,0.0,0.0,0.0,0.0,0.0,0.0,0.0,0.0,0.0,0.0,0.0,0.0,0.0,0.0,0.0,0.0,0.0,0.0,0.0,0.0,0.0,0.0,0.0,0.0,0.0,0.0,0.0,0.0,0.0,0.0,0.0,0.0,0.0,0.0,0.0,0.0,0.0,0.0,0.0,0.0,0.0,0.0,0.0,0.0,0.0,0.0,0.0,0.0,0.0,0.0,0.0,0.0,0.0,0.0,0.0,0.0,0.0,0.0,0.0,0.0,0.0,0.0,0.0,0.0,0.0,0.0,0.0,0.0,0.0,-0.1525,-0.1416,-0.18,-0.2355,-0.3073,-0.3784,-0.4509,-0.5174,-0.5528,-0.5784,-0.606,-0.593,-0.5458,-0.4771,-0.4044,-0.4147,-0.4607,-0.4969,-0.5674,-0.6136,-0.6495,-0.665,-0.6558,0.1263,0.101,0.0758,0.0505,0.0252,0.0,0.0,0.0,0.0,0.0,0.0,0.0,0.0,0.0,0.0,0.0,0.0,0.0,0.0,0.0,0.0,0.0,0.0,0.0,0.0,0.0,0.0,0.0,0.0,0.0,0.0,0.0,0.0,0.0,0.0,0.0,0.0,0.0,0.0,0.0,0.0,0.0,0.0,0.0,0.0,0.0,0.0,0.0,0.0,0.0,0.0,0.0,0.0,0.0,0.0,0.0,0.0,0.0,0.0,0.0,0.0,0.0,0.0,0.0,0.0,0.0,0.0,0.0,0.0,0.0,0.0,0.0,0.0,0.0,0.0,0.0,0.0,0.0,0.0,0.0,0.0,0.0,0.0,0.0,0.0,0.0,0.0,0.0,0.0,0.0,0.0,0.0,0.0,-0.046,-0.0913,-0.1478,-0.2221,-0.3025,-0.3835,-0.4457,-0.4994,-0.5131,-0.5164,-0.5316,-0.5409,-0.4918,-0.4636,-0.4559,-0.4862,-0.5338,-0.5882,-0.6389,-0.6821,-0.6845,-0.6621,0.1061,0.0758,0.0455,0.0252,0.0,0.0,0.0,0.0,0.0,0.0,0.0,0.0,0.0,0.0,0.0,0.0,0.0,0.0,0.0,0.0,0.0,0.0,0.0,0.0,0.0,0.0,0.0,0.0,0.0,0.0,0.0,0.0,0.0,0.0,0.0,0.0,0.0,0.0,0.0,0.0,0.0,0.0,0.0,0.0,0.0,0.0,0.0,0.0,0.0,0.0,0.0,0.0,0.0,0.0,0.0,0.0,0.0,0.0,0.0,0.0,0.0,0.0,0.0,0.0,0.0,0.0,0.0,0.0,0.0,0.0,0.0,0.0,0.0,0.0,0.0,0.0,0.0,0.0,0.0,0.0,0.0,0.0,0.0,0.0,0.0,0.0,0.0,0.0,0.0,0.0,0.0,0.0,0.0,-0.0116,-0.0291,-0.0872,-0.1518,-0.2283,-0.3344,-0.431,-0.5242,-0.487,-0.4168,-0.4881,-0.5641,-0.5779,-0.5594,-0.5571,-0.5782,-0.634,-0.6785,-0.7027,-0.7161,-0.7089,-0.6465,0.1061,0.0758,0.0303,0.005,0.0,0.0,0.0,0.0,0.0,0.0,0.0,0.0,0.0,0.0,0.0,0.0,0.0,0.0,0.0,0.0,0.0,0.0,0.0,0.0,0.0,0.0,0.0,0.0,0.0,0.0,0.0,0.0,0.0,0.0,0.0,0.0,0.0,0.0,0.0,0.0,0.0,0.0,0.0,0.0,0.0,0.0,0.0,0.0,0.0,0.0,0.0,0.0,0.0,0.0,0.0,0.0,0.0,0.0,0.0,0.0,0.0,0.0,0.0,0.0,0.0,0.0,0.0,0.0,0.0,0.0,0.0,0.0,0.0,0.0,0.0,0.0,0.0,0.0,0.0,0.0,0.0,0.0,0.0,0.0,0.0,0.0,0.0,0.0,0.0,0.0,0.0,0.0,0.0,-0.0118,-0.0296,-0.0893,-0.1856,-0.2566,-0.3517,-0.449,-0.5504,-0.5656,-0.5697,-0.5629,-0.598,-0.6238,-0.6483,-0.6707,-0.6982,-0.721,-0.721,-0.721,-0.721,-0.7158,-0.6376,0.0859,0.0606,0.0,0.0,0.0,0.0,0.0,0.0,0.0,0.0,0.0,0.0,0.0,0.0,0.0,0.0,0.0,0.0,0.0,0.0,0.0,0.0,0.0,0.0,0.0,0.0,0.0,0.0,0.0,0.0,0.0,0.0,0.0,0.0,0.0,0.0,0.0,0.0,0.0,0.0,0.0,0.0,0.0,0.0,0.0,0.0,0.0,0.0,0.0,0.0,0.0,0.0,0.0,0.0,0.0,0.0,0.0,0.0,0.0,0.0,0.0,0.0,0.0,0.0,0.0,0.0,0.0,0.0,0.0,0.0,0.0,0.0,0.0,0.0,0.0,0.0,0.0,0.0,0.0,0.0,0.0,0.0,0.0,0.0,0.0,0.0,0.0,0.0,0.0,0.0,0.0,0.0,0.0,-0.0966,-0.1222,-0.1901,-0.2703,-0.3362,-0.4,-0.4997,-0.6085,-0.6886,-0.7276,-0.6686,-0.6505,-0.6951,-0.7247,-0.7217,-0.7218,-0.721,-0.721,-0.721,-0.721,-0.7154,-0.6493,0.0606,0.0303,0.0101,0.0,0.0,0.0,0.0,0.0,0.0,0.0,0.0,0.0,0.0,0.0,0.0,0.0,0.0,0.0,0.0,0.0,0.0,0.0,0.0,0.0,0.0,0.0,0.0,0.0,0.0,0.0,0.0,0.0,0.0,0.0,0.0,0.0,0.0,0.0,0.0,0.0,0.0,0.0,0.0,0.0,0.0,0.0,0.0,0.0,0.0,0.0,0.0,0.0,0.0,0.0,0.0,0.0,0.0,0.0,0.0,0.0,0.0,0.0,0.0,0.0,0.0,0.0,0.0,0.0,0.0,0.0,0.0,0.0,0.0,0.0,0.0,0.0,0.0,0.0,0.0,0.0,0.0,0.0,0.0,0.0,0.0,0.0,0.0,0.0,0.0,0.0,0.0,0.0,0.0,-0.2535,-0.2247,-0.2866,-0.3659,-0.4351,-0.5005,-0.5831,-0.6625,-0.7382,-0.757,-0.6918,-0.6906,-0.7341,-0.7372,-0.7263,-0.7214,-0.7229,-0.721,-0.721,-0.721,-0.7099,-0.6707,0.0505,0.0101,0.0,0.0,0.0,0.0,0.0,0.0,0.0,0.0,0.0,0.0,0.0,0.0,0.0,0.0,0.0,0.0,0.0,0.0,0.0,0.0,0.0,0.0,0.0,0.0,0.0,0.0,0.0,0.0,0.0,0.0,0.0,0.0,0.0,0.0,0.0,0.0,0.0,0.0,0.0,0.0,0.0,0.0,0.0,0.0,0.0,0.0,0.0,0.0,0.0,0.0,0.0,0.0,0.0,0.0,0.0,0.0,0.0,0.0,0.0,0.0,0.0,0.0,0.0,0.0,0.0,0.0,0.0,0.0,0.0,0.0,0.0,0.0,0.0,0.0,0.0,0.0,0.0,0.0,0.0,0.0,0.0,0.0,0.0,0.0,0.0,-0.0387,-0.1223,-0.1593,-0.1953,-0.2878,-0.3852,-0.3217,-0.2596,-0.3722,-0.4586,-0.53,-0.5972,-0.6667,-0.7285,-0.7811,-0.7765,-0.7365,-0.7301,-0.7617,-0.7524,-0.7355,-0.7263,-0.722,-0.7229,-0.721,-0.721,-0.7154,-0.6874]}]]